<?xml version="1.0" encoding="UTF-8" standalone="no" ?>
<gpx xmlns="http://www.topografix.com/GPX/1/1" xmlns:xsi="http://www.w3.org/2001/XMLSchema-instance" xsi:schemaLocation="http://www.topografix.com/GPX/1/1 http://www.topografix.com/GPX/1/1/gpx.xsd" version="1.1" creator="VisuGPX - https://www.visugpx.com">
  <metadata>
    <name>Mt St Odile Nord</name>
  </metadata>
  <trk>
    <name><![CDATA[Mt St Odile Nord]]></name>
    <trkseg>
      <trkpt lat="48.43468" lon="7.41816">
        <ele>580.85514542599</ele>
        <time>2022-04-27T09:04:38.000Z</time>
      </trkpt>
      <trkpt lat="48.43466" lon="7.41816">
        <ele>580.72029547095</ele>
        <time>2022-04-27T09:04:38.000Z</time>
      </trkpt>
      <trkpt lat="48.43464" lon="7.41831">
        <ele>580.6233931525</ele>
        <time>2022-04-27T09:04:38.002Z</time>
      </trkpt>
      <trkpt lat="48.43445" lon="7.419">
        <ele>580.70150871531</ele>
        <time>2022-04-27T09:04:38.012Z</time>
      </trkpt>
      <trkpt lat="48.43444" lon="7.41919">
        <ele>580.37665888157</ele>
        <time>2022-04-27T09:04:38.024Z</time>
      </trkpt>
      <trkpt lat="48.43448" lon="7.41935">
        <ele>579.75445871215</ele>
        <time>2022-04-27T09:04:38.038Z</time>
      </trkpt>
      <trkpt lat="48.43453" lon="7.41946">
        <ele>578.88442578844</ele>
        <time>2022-04-27T09:04:38.053Z</time>
      </trkpt>
      <trkpt lat="48.4346" lon="7.41954">
        <ele>577.79161808535</ele>
        <time>2022-04-27T09:04:38.070Z</time>
      </trkpt>
      <trkpt lat="48.43472" lon="7.41962">
        <ele>576.42533104821</ele>
        <time>2022-04-27T09:04:38.089Z</time>
      </trkpt>
      <trkpt lat="48.43499" lon="7.41966">
        <ele>574.42254057682</ele>
        <time>2022-04-27T09:04:38.112Z</time>
      </trkpt>
      <trkpt lat="48.43522" lon="7.41962">
        <ele>572.23948597478</ele>
        <time>2022-04-27T09:04:38.139Z</time>
      </trkpt>
      <trkpt lat="48.43535" lon="7.41954">
        <ele>570.23846608684</ele>
        <time>2022-04-27T09:04:38.168Z</time>
      </trkpt>
      <trkpt lat="48.43545" lon="7.41935">
        <ele>568.4993042684</ele>
        <time>2022-04-27T09:04:38.200Z</time>
      </trkpt>
      <trkpt lat="48.43563" lon="7.41837">
        <ele>567.31077600973</ele>
        <time>2022-04-27T09:04:38.243Z</time>
      </trkpt>
      <trkpt lat="48.43569" lon="7.41819">
        <ele>565.89134447663</ele>
        <time>2022-04-27T09:04:38.288Z</time>
      </trkpt>
      <trkpt lat="48.43588" lon="7.41777">
        <ele>564.14044424624</ele>
        <time>2022-04-27T09:04:38.338Z</time>
      </trkpt>
      <trkpt lat="48.43594" lon="7.41754">
        <ele>562.38601766289</ele>
        <time>2022-04-27T09:04:38.391Z</time>
      </trkpt>
      <trkpt lat="48.43603" lon="7.41689">
        <ele>560.56837507707</ele>
        <time>2022-04-27T09:04:38.451Z</time>
      </trkpt>
      <trkpt lat="48.43606" lon="7.41682">
        <ele>558.74046480309</ele>
        <time>2022-04-27T09:04:38.512Z</time>
      </trkpt>
      <trkpt lat="48.43612" lon="7.41679">
        <ele>556.87631261066</ele>
        <time>2022-04-27T09:04:38.574Z</time>
      </trkpt>
      <trkpt lat="48.43618" lon="7.41681">
        <ele>555.03169696894</ele>
        <time>2022-04-27T09:04:38.637Z</time>
      </trkpt>
      <trkpt lat="48.43624" lon="7.41689">
        <ele>553.24397180176</ele>
        <time>2022-04-27T09:04:38.701Z</time>
      </trkpt>
      <trkpt lat="48.43642" lon="7.41742">
        <ele>551.41084656738</ele>
        <time>2022-04-27T09:04:38.771Z</time>
      </trkpt>
      <trkpt lat="48.43668" lon="7.4178">
        <ele>549.09283827012</ele>
        <time>2022-04-27T09:04:38.847Z</time>
      </trkpt>
      <trkpt lat="48.43671" lon="7.41797">
        <ele>546.9229395163</ele>
        <time>2022-04-27T09:04:38.925Z</time>
      </trkpt>
      <trkpt lat="48.43671" lon="7.41815">
        <ele>544.74857129366</ele>
        <time>2022-04-27T09:04:39.005Z</time>
      </trkpt>
      <trkpt lat="48.43667" lon="7.41911">
        <ele>541.89477494899</ele>
        <time>2022-04-27T09:04:39.095Z</time>
      </trkpt>
      <trkpt lat="48.4367" lon="7.41968">
        <ele>538.8721657625</ele>
        <time>2022-04-27T09:04:39.191Z</time>
      </trkpt>
      <trkpt lat="48.43666" lon="7.41984">
        <ele>536.25568432977</ele>
        <time>2022-04-27T09:04:39.289Z</time>
      </trkpt>
      <trkpt lat="48.43654" lon="7.42011">
        <ele>533.91038145111</ele>
        <time>2022-04-27T09:04:39.390Z</time>
      </trkpt>
      <trkpt lat="48.43651" lon="7.42027">
        <ele>531.4864865667</ele>
        <time>2022-04-27T09:04:39.493Z</time>
      </trkpt>
      <trkpt lat="48.43653" lon="7.42038">
        <ele>529.06560524859</ele>
        <time>2022-04-27T09:04:39.597Z</time>
      </trkpt>
      <trkpt lat="48.43659" lon="7.42044">
        <ele>526.57703907414</ele>
        <time>2022-04-27T09:04:39.703Z</time>
      </trkpt>
      <trkpt lat="48.43667" lon="7.42047">
        <ele>524.01476319334</ele>
        <time>2022-04-27T09:04:39.810Z</time>
      </trkpt>
      <trkpt lat="48.43677" lon="7.42044">
        <ele>521.41056139892</ele>
        <time>2022-04-27T09:04:39.918Z</time>
      </trkpt>
      <trkpt lat="48.43738" lon="7.42004">
        <ele>518.75895634875</ele>
        <time>2022-04-27T09:04:40.037Z</time>
      </trkpt>
      <trkpt lat="48.43816" lon="7.41933">
        <ele>515.61536122639</ele>
        <time>2022-04-27T09:04:40.171Z</time>
      </trkpt>
      <trkpt lat="48.43826" lon="7.41917">
        <ele>512.91176684726</ele>
        <time>2022-04-27T09:04:40.307Z</time>
      </trkpt>
      <trkpt lat="48.43834" lon="7.41899">
        <ele>510.2701002915</ele>
        <time>2022-04-27T09:04:40.445Z</time>
      </trkpt>
      <trkpt lat="48.43836" lon="7.41877">
        <ele>507.80223149409</ele>
        <time>2022-04-27T09:04:40.586Z</time>
      </trkpt>
      <trkpt lat="48.43841" lon="7.41771">
        <ele>505.17085505251</ele>
        <time>2022-04-27T09:04:40.738Z</time>
      </trkpt>
      <trkpt lat="48.43838" lon="7.41747">
        <ele>502.78780097526</ele>
        <time>2022-04-27T09:04:40.893Z</time>
      </trkpt>
      <trkpt lat="48.43831" lon="7.41728">
        <ele>500.51483085504</ele>
        <time>2022-04-27T09:04:41.050Z</time>
      </trkpt>
      <trkpt lat="48.43815" lon="7.41698">
        <ele>498.42118316016</ele>
        <time>2022-04-27T09:04:41.211Z</time>
      </trkpt>
      <trkpt lat="48.43805" lon="7.41671">
        <ele>496.28949581418</ele>
        <time>2022-04-27T09:04:41.375Z</time>
      </trkpt>
      <trkpt lat="48.43794" lon="7.41624">
        <ele>494.07684526298</ele>
        <time>2022-04-27T09:04:41.545Z</time>
      </trkpt>
      <trkpt lat="48.43782" lon="7.4159">
        <ele>492.00622204045</ele>
        <time>2022-04-27T09:04:41.719Z</time>
      </trkpt>
      <trkpt lat="48.43777" lon="7.41565">
        <ele>490.1316224123</ele>
        <time>2022-04-27T09:04:41.896Z</time>
      </trkpt>
      <trkpt lat="48.43779" lon="7.41556">
        <ele>488.29236125631</ele>
        <time>2022-04-27T09:04:42.074Z</time>
      </trkpt>
      <trkpt lat="48.43788" lon="7.41549">
        <ele>486.29371813362</ele>
        <time>2022-04-27T09:04:42.253Z</time>
      </trkpt>
      <trkpt lat="48.43797" lon="7.41552">
        <ele>484.38757215185</ele>
        <time>2022-04-27T09:04:42.434Z</time>
      </trkpt>
      <trkpt lat="48.4382" lon="7.41589">
        <ele>482.5608712091</ele>
        <time>2022-04-27T09:04:42.620Z</time>
      </trkpt>
      <trkpt lat="48.43843" lon="7.41619">
        <ele>480.78585790685</ele>
        <time>2022-04-27T09:04:42.811Z</time>
      </trkpt>
      <trkpt lat="48.43857" lon="7.41635">
        <ele>478.99741118609</ele>
        <time>2022-04-27T09:04:43.005Z</time>
      </trkpt>
      <trkpt lat="48.43868" lon="7.41647">
        <ele>477.19044457843</ele>
        <time>2022-04-27T09:04:43.201Z</time>
      </trkpt>
      <trkpt lat="48.43927" lon="7.41723">
        <ele>474.85918534255</ele>
        <time>2022-04-27T09:04:43.409Z</time>
      </trkpt>
      <trkpt lat="48.43936" lon="7.41743">
        <ele>472.90751070988</ele>
        <time>2022-04-27T09:04:43.620Z</time>
      </trkpt>
      <trkpt lat="48.43941" lon="7.41761">
        <ele>471.02790381593</ele>
        <time>2022-04-27T09:04:43.833Z</time>
      </trkpt>
      <trkpt lat="48.43944" lon="7.41807">
        <ele>469.49093337189</ele>
        <time>2022-04-27T09:04:44.051Z</time>
      </trkpt>
      <trkpt lat="48.43948" lon="7.41823">
        <ele>467.744230132</ele>
        <time>2022-04-27T09:04:44.271Z</time>
      </trkpt>
      <trkpt lat="48.43968" lon="7.41861">
        <ele>465.65128179643</ele>
        <time>2022-04-27T09:04:44.496Z</time>
      </trkpt>
      <trkpt lat="48.43978" lon="7.41887">
        <ele>463.83663236553</ele>
        <time>2022-04-27T09:04:44.724Z</time>
      </trkpt>
      <trkpt lat="48.43983" lon="7.41913">
        <ele>462.12334794233</ele>
        <time>2022-04-27T09:04:44.955Z</time>
      </trkpt>
      <trkpt lat="48.4399" lon="7.42006">
        <ele>460.18439546691</ele>
        <time>2022-04-27T09:04:45.196Z</time>
      </trkpt>
      <trkpt lat="48.4399" lon="7.4206">
        <ele>458.29019367623</ele>
        <time>2022-04-27T09:04:45.443Z</time>
      </trkpt>
      <trkpt lat="48.43995" lon="7.42119">
        <ele>456.27021164208</ele>
        <time>2022-04-27T09:04:45.696Z</time>
      </trkpt>
      <trkpt lat="48.43996" lon="7.42163">
        <ele>454.22522516891</ele>
        <time>2022-04-27T09:04:45.954Z</time>
      </trkpt>
      <trkpt lat="48.43992" lon="7.42224">
        <ele>452.29936147588</ele>
        <time>2022-04-27T09:04:46.218Z</time>
      </trkpt>
      <trkpt lat="48.43984" lon="7.42284">
        <ele>450.06224651039</ele>
        <time>2022-04-27T09:04:46.489Z</time>
      </trkpt>
      <trkpt lat="48.43974" lon="7.42312">
        <ele>448.10548285478</ele>
        <time>2022-04-27T09:04:46.763Z</time>
      </trkpt>
      <trkpt lat="48.43921" lon="7.42393">
        <ele>446.18248079619</ele>
        <time>2022-04-27T09:04:47.049Z</time>
      </trkpt>
      <trkpt lat="48.439" lon="7.42415">
        <ele>443.96678055135</ele>
        <time>2022-04-27T09:04:47.339Z</time>
      </trkpt>
      <trkpt lat="48.43875" lon="7.42422">
        <ele>441.88065563481</ele>
        <time>2022-04-27T09:04:47.633Z</time>
      </trkpt>
      <trkpt lat="48.43818" lon="7.42418">
        <ele>439.59708007247</ele>
        <time>2022-04-27T09:04:47.936Z</time>
      </trkpt>
      <trkpt lat="48.43739" lon="7.42408">
        <ele>436.95287556834</ele>
        <time>2022-04-27T09:04:48.252Z</time>
      </trkpt>
      <trkpt lat="48.43686" lon="7.42387">
        <ele>434.92458037275</ele>
        <time>2022-04-27T09:04:48.577Z</time>
      </trkpt>
      <trkpt lat="48.43674" lon="7.42389">
        <ele>432.64788830123</ele>
        <time>2022-04-27T09:04:48.904Z</time>
      </trkpt>
      <trkpt lat="48.43654" lon="7.42405">
        <ele>430.01840569632</ele>
        <time>2022-04-27T09:04:49.235Z</time>
      </trkpt>
      <trkpt lat="48.43651" lon="7.42413">
        <ele>427.27482950473</ele>
        <time>2022-04-27T09:04:49.567Z</time>
      </trkpt>
      <trkpt lat="48.43652" lon="7.42424">
        <ele>424.3260656295</ele>
        <time>2022-04-27T09:04:49.900Z</time>
      </trkpt>
      <trkpt lat="48.43657" lon="7.42435">
        <ele>421.1368387013</ele>
        <time>2022-04-27T09:04:50.234Z</time>
      </trkpt>
      <trkpt lat="48.43665" lon="7.42437">
        <ele>417.8500640241</ele>
        <time>2022-04-27T09:04:50.570Z</time>
      </trkpt>
      <trkpt lat="48.43675" lon="7.42431">
        <ele>414.57780881601</ele>
        <time>2022-04-27T09:04:50.907Z</time>
      </trkpt>
      <trkpt lat="48.43689" lon="7.42417">
        <ele>411.18106420015</ele>
        <time>2022-04-27T09:04:51.247Z</time>
      </trkpt>
      <trkpt lat="48.43703" lon="7.42417">
        <ele>407.57993640715</ele>
        <time>2022-04-27T09:04:51.589Z</time>
      </trkpt>
      <trkpt lat="48.43813" lon="7.42478">
        <ele>403.18407652861</ele>
        <time>2022-04-27T09:04:51.950Z</time>
      </trkpt>
      <trkpt lat="48.43856" lon="7.42508">
        <ele>399.32950839269</ele>
        <time>2022-04-27T09:04:52.319Z</time>
      </trkpt>
      <trkpt lat="48.43894" lon="7.42538">
        <ele>394.88809337529</ele>
        <time>2022-04-27T09:04:52.694Z</time>
      </trkpt>
      <trkpt lat="48.43921" lon="7.42549">
        <ele>390.50475169728</ele>
        <time>2022-04-27T09:04:53.074Z</time>
      </trkpt>
      <trkpt lat="48.4394" lon="7.42547">
        <ele>386.42697645615</ele>
        <time>2022-04-27T09:04:53.457Z</time>
      </trkpt>
      <trkpt lat="48.44027" lon="7.42502">
        <ele>381.77185831682</ele>
        <time>2022-04-27T09:04:53.855Z</time>
      </trkpt>
      <trkpt lat="48.44113" lon="7.42413">
        <ele>377.31735847313</ele>
        <time>2022-04-27T09:04:54.269Z</time>
      </trkpt>
      <trkpt lat="48.44173" lon="7.42347">
        <ele>373.02094446159</ele>
        <time>2022-04-27T09:04:54.695Z</time>
      </trkpt>
      <trkpt lat="48.44183" lon="7.42317">
        <ele>369.21875678861</ele>
        <time>2022-04-27T09:04:55.125Z</time>
      </trkpt>
      <trkpt lat="48.44182" lon="7.42239">
        <ele>365.8399379626</ele>
        <time>2022-04-27T09:04:55.563Z</time>
      </trkpt>
      <trkpt lat="48.44186" lon="7.42225">
        <ele>362.50160887628</ele>
        <time>2022-04-27T09:04:56.003Z</time>
      </trkpt>
      <trkpt lat="48.44194" lon="7.42214">
        <ele>359.33141196008</ele>
        <time>2022-04-27T09:04:56.445Z</time>
      </trkpt>
      <trkpt lat="48.44205" lon="7.4221">
        <ele>356.41471010336</ele>
        <time>2022-04-27T09:04:56.888Z</time>
      </trkpt>
      <trkpt lat="48.44218" lon="7.42216">
        <ele>353.6224508868</ele>
        <time>2022-04-27T09:04:57.334Z</time>
      </trkpt>
      <trkpt lat="48.44268" lon="7.42261">
        <ele>350.65837306843</ele>
        <time>2022-04-27T09:04:57.789Z</time>
      </trkpt>
      <trkpt lat="48.44286" lon="7.42284">
        <ele>348.09022270853</ele>
        <time>2022-04-27T09:04:58.248Z</time>
      </trkpt>
      <trkpt lat="48.44294" lon="7.42301">
        <ele>345.80390437344</ele>
        <time>2022-04-27T09:04:58.709Z</time>
      </trkpt>
      <trkpt lat="48.44306" lon="7.42333">
        <ele>343.5592521478</ele>
        <time>2022-04-27T09:04:59.174Z</time>
      </trkpt>
      <trkpt lat="48.44313" lon="7.42346">
        <ele>341.81812308765</ele>
        <time>2022-04-27T09:04:59.641Z</time>
      </trkpt>
      <trkpt lat="48.44323" lon="7.42358">
        <ele>340.36026181001</ele>
        <time>2022-04-27T09:05:00.110Z</time>
      </trkpt>
      <trkpt lat="48.44348" lon="7.42373">
        <ele>339.15635024715</ele>
        <time>2022-04-27T09:05:00.583Z</time>
      </trkpt>
      <trkpt lat="48.44363" lon="7.42383">
        <ele>338.15114116073</ele>
        <time>2022-04-27T09:05:01.058Z</time>
      </trkpt>
      <trkpt lat="48.44368" lon="7.42386">
        <ele>337.40423344532</ele>
        <time>2022-04-27T09:05:01.534Z</time>
      </trkpt>
      <trkpt lat="48.44391" lon="7.42399">
        <ele>336.89797132686</ele>
        <time>2022-04-27T09:05:02.014Z</time>
      </trkpt>
      <trkpt lat="48.44406" lon="7.42404">
        <ele>336.57210065727</ele>
        <time>2022-04-27T09:05:02.497Z</time>
      </trkpt>
      <trkpt lat="48.44427" lon="7.42406">
        <ele>336.44898895253</ele>
        <time>2022-04-27T09:05:02.983Z</time>
      </trkpt>
      <trkpt lat="48.4444" lon="7.42403">
        <ele>336.43464156414</ele>
        <time>2022-04-27T09:05:03.471Z</time>
      </trkpt>
      <trkpt lat="48.44461" lon="7.42399">
        <ele>336.53376196945</ele>
        <time>2022-04-27T09:05:03.963Z</time>
      </trkpt>
      <trkpt lat="48.4447" lon="7.42397">
        <ele>336.71516545034</ele>
        <time>2022-04-27T09:05:04.456Z</time>
      </trkpt>
      <trkpt lat="48.44474" lon="7.42396">
        <ele>336.96638111085</ele>
        <time>2022-04-27T09:05:04.950Z</time>
      </trkpt>
      <trkpt lat="48.44478" lon="7.42397">
        <ele>337.26259246516</ele>
        <time>2022-04-27T09:05:05.444Z</time>
      </trkpt>
      <trkpt lat="48.44481" lon="7.42401">
        <ele>337.58109538625</ele>
        <time>2022-04-27T09:05:05.939Z</time>
      </trkpt>
      <trkpt lat="48.44502" lon="7.4248">
        <ele>337.53017535448</ele>
        <time>2022-04-27T09:05:06.443Z</time>
      </trkpt>
      <trkpt lat="48.44504" lon="7.42486">
        <ele>337.89906234551</ele>
        <time>2022-04-27T09:05:06.948Z</time>
      </trkpt>
      <trkpt lat="48.44507" lon="7.42485">
        <ele>338.28497069974</ele>
        <time>2022-04-27T09:05:07.453Z</time>
      </trkpt>
      <trkpt lat="48.44516" lon="7.42478">
        <ele>338.68588803007</ele>
        <time>2022-04-27T09:05:07.960Z</time>
      </trkpt>
      <trkpt lat="48.44538" lon="7.42463">
        <ele>339.10989426641</ele>
        <time>2022-04-27T09:05:08.471Z</time>
      </trkpt>
      <trkpt lat="48.44559" lon="7.42449">
        <ele>339.52088356504</ele>
        <time>2022-04-27T09:05:08.986Z</time>
      </trkpt>
      <trkpt lat="48.44577" lon="7.42435">
        <ele>339.80882759767</ele>
        <time>2022-04-27T09:05:09.504Z</time>
      </trkpt>
      <trkpt lat="48.4458" lon="7.42428">
        <ele>339.94152897369</ele>
        <time>2022-04-27T09:05:10.023Z</time>
      </trkpt>
      <trkpt lat="48.4458" lon="7.42419">
        <ele>339.96949965772</ele>
        <time>2022-04-27T09:05:10.543Z</time>
      </trkpt>
      <trkpt lat="48.44573" lon="7.42396">
        <ele>339.90371828585</ele>
        <time>2022-04-27T09:05:11.065Z</time>
      </trkpt>
      <trkpt lat="48.44574" lon="7.42385">
        <ele>339.67657359094</ele>
        <time>2022-04-27T09:05:11.588Z</time>
      </trkpt>
      <trkpt lat="48.44585" lon="7.42367">
        <ele>339.29773200109</ele>
        <time>2022-04-27T09:05:12.114Z</time>
      </trkpt>
      <trkpt lat="48.44592" lon="7.42362">
        <ele>338.70632830118</ele>
        <time>2022-04-27T09:05:12.641Z</time>
      </trkpt>
      <trkpt lat="48.44598" lon="7.4236">
        <ele>337.95749755095</ele>
        <time>2022-04-27T09:05:13.169Z</time>
      </trkpt>
      <trkpt lat="48.44603" lon="7.42361">
        <ele>337.04167334321</ele>
        <time>2022-04-27T09:05:13.698Z</time>
      </trkpt>
      <trkpt lat="48.44614" lon="7.42367">
        <ele>335.92782697803</ele>
        <time>2022-04-27T09:05:14.229Z</time>
      </trkpt>
      <trkpt lat="48.44632" lon="7.42382">
        <ele>334.61197693213</ele>
        <time>2022-04-27T09:05:14.763Z</time>
      </trkpt>
      <trkpt lat="48.44712" lon="7.42447">
        <ele>332.85567633869</ele>
        <time>2022-04-27T09:05:15.312Z</time>
      </trkpt>
      <trkpt lat="48.44722" lon="7.42454">
        <ele>331.30016023869</ele>
        <time>2022-04-27T09:05:15.863Z</time>
      </trkpt>
      <trkpt lat="48.44727" lon="7.42456">
        <ele>329.62789570393</ele>
        <time>2022-04-27T09:05:16.414Z</time>
      </trkpt>
      <trkpt lat="48.44793" lon="7.4248">
        <ele>327.59224926535</ele>
        <time>2022-04-27T09:05:16.976Z</time>
      </trkpt>
      <trkpt lat="48.44818" lon="7.42486">
        <ele>325.67842818622</ele>
        <time>2022-04-27T09:05:17.542Z</time>
      </trkpt>
      <trkpt lat="48.44854" lon="7.42488">
        <ele>323.57213713545</ele>
        <time>2022-04-27T09:05:18.114Z</time>
      </trkpt>
      <trkpt lat="48.44879" lon="7.42487">
        <ele>321.40809027734</ele>
        <time>2022-04-27T09:05:18.690Z</time>
      </trkpt>
      <trkpt lat="48.44886" lon="7.42485">
        <ele>319.28239719</ele>
        <time>2022-04-27T09:05:19.267Z</time>
      </trkpt>
      <trkpt lat="48.44898" lon="7.4248">
        <ele>317.11057439723</ele>
        <time>2022-04-27T09:05:19.846Z</time>
      </trkpt>
      <trkpt lat="48.44911" lon="7.4248">
        <ele>314.89970599235</ele>
        <time>2022-04-27T09:05:20.427Z</time>
      </trkpt>
      <trkpt lat="48.44924" lon="7.42483">
        <ele>312.70127543173</ele>
        <time>2022-04-27T09:05:21.010Z</time>
      </trkpt>
      <trkpt lat="48.44957" lon="7.42495">
        <ele>310.47313976956</ele>
        <time>2022-04-27T09:05:21.599Z</time>
      </trkpt>
      <trkpt lat="48.44965" lon="7.42499">
        <ele>308.28719777913</ele>
        <time>2022-04-27T09:05:22.189Z</time>
      </trkpt>
      <trkpt lat="48.44977" lon="7.42503">
        <ele>306.11667910012</ele>
        <time>2022-04-27T09:05:22.781Z</time>
      </trkpt>
      <trkpt lat="48.45172" lon="7.42578">
        <ele>303.22730360426</ele>
        <time>2022-04-27T09:05:23.405Z</time>
      </trkpt>
      <trkpt lat="48.452" lon="7.42585">
        <ele>301.13773002017</ele>
        <time>2022-04-27T09:05:24.034Z</time>
      </trkpt>
      <trkpt lat="48.45242" lon="7.42582">
        <ele>298.99907277523</ele>
        <time>2022-04-27T09:05:24.670Z</time>
      </trkpt>
      <trkpt lat="48.45295" lon="7.42586">
        <ele>297.07291903092</ele>
        <time>2022-04-27T09:05:25.314Z</time>
      </trkpt>
      <trkpt lat="48.45353" lon="7.42596">
        <ele>295.22739456364</ele>
        <time>2022-04-27T09:05:25.967Z</time>
      </trkpt>
      <trkpt lat="48.45359" lon="7.42596">
        <ele>293.64900723792</ele>
        <time>2022-04-27T09:05:26.622Z</time>
      </trkpt>
      <trkpt lat="48.45365" lon="7.42593">
        <ele>292.20776451544</ele>
        <time>2022-04-27T09:05:27.277Z</time>
      </trkpt>
      <trkpt lat="48.45369" lon="7.42587">
        <ele>290.9156821441</ele>
        <time>2022-04-27T09:05:27.933Z</time>
      </trkpt>
      <trkpt lat="48.45377" lon="7.42575">
        <ele>289.76987313116</ele>
        <time>2022-04-27T09:05:28.591Z</time>
      </trkpt>
      <trkpt lat="48.4538" lon="7.4257">
        <ele>288.77043631505</ele>
        <time>2022-04-27T09:05:29.250Z</time>
      </trkpt>
      <trkpt lat="48.45389" lon="7.4256">
        <ele>287.89458356461</ele>
        <time>2022-04-27T09:05:29.911Z</time>
      </trkpt>
      <trkpt lat="48.45434" lon="7.42531">
        <ele>286.97982960824</ele>
        <time>2022-04-27T09:05:30.580Z</time>
      </trkpt>
      <trkpt lat="48.45465" lon="7.42521">
        <ele>286.30324545996</ele>
        <time>2022-04-27T09:05:31.254Z</time>
      </trkpt>
      <trkpt lat="48.45481" lon="7.42519">
        <ele>285.77960575448</ele>
        <time>2022-04-27T09:05:31.930Z</time>
      </trkpt>
      <trkpt lat="48.45538" lon="7.42526">
        <ele>285.50359544694</ele>
        <time>2022-04-27T09:05:32.615Z</time>
      </trkpt>
      <trkpt lat="48.45562" lon="7.42523">
        <ele>285.31086453361</ele>
        <time>2022-04-27T09:05:33.304Z</time>
      </trkpt>
      <trkpt lat="48.45572" lon="7.42517">
        <ele>285.18332309612</ele>
        <time>2022-04-27T09:05:33.995Z</time>
      </trkpt>
      <trkpt lat="48.45581" lon="7.4251">
        <ele>285.1279816848</ele>
        <time>2022-04-27T09:05:34.688Z</time>
      </trkpt>
      <trkpt lat="48.456" lon="7.42555">
        <ele>284.86474687844</ele>
        <time>2022-04-27T09:05:35.386Z</time>
      </trkpt>
      <trkpt lat="48.45603" lon="7.42555">
        <ele>284.85254303061</ele>
        <time>2022-04-27T09:05:36.085Z</time>
      </trkpt>
      <trkpt lat="48.45627" lon="7.42552">
        <ele>284.86988803226</ele>
        <time>2022-04-27T09:05:36.787Z</time>
      </trkpt>
      <trkpt lat="48.45638" lon="7.42548">
        <ele>284.90807932703</ele>
        <time>2022-04-27T09:05:37.491Z</time>
      </trkpt>
      <trkpt lat="48.45649" lon="7.42537">
        <ele>284.9674644884</ele>
        <time>2022-04-27T09:05:38.198Z</time>
      </trkpt>
      <trkpt lat="48.45663" lon="7.4252">
        <ele>285.02802568501</ele>
        <time>2022-04-27T09:05:38.907Z</time>
      </trkpt>
      <trkpt lat="48.45673" lon="7.42509">
        <ele>285.01240794648</ele>
        <time>2022-04-27T09:05:39.618Z</time>
      </trkpt>
      <trkpt lat="48.457" lon="7.42478">
        <ele>285.01449526291</ele>
        <time>2022-04-27T09:05:40.335Z</time>
      </trkpt>
      <trkpt lat="48.45703" lon="7.42472">
        <ele>284.85015558293</ele>
        <time>2022-04-27T09:05:41.053Z</time>
      </trkpt>
      <trkpt lat="48.4571" lon="7.42475">
        <ele>284.54839623472</ele>
        <time>2022-04-27T09:05:41.772Z</time>
      </trkpt>
      <trkpt lat="48.45728" lon="7.42475">
        <ele>284.15944520682</ele>
        <time>2022-04-27T09:05:42.494Z</time>
      </trkpt>
      <trkpt lat="48.45758" lon="7.42474">
        <ele>283.63862931406</ele>
        <time>2022-04-27T09:05:43.220Z</time>
      </trkpt>
      <trkpt lat="48.45769" lon="7.42474">
        <ele>282.98578177075</ele>
        <time>2022-04-27T09:05:43.948Z</time>
      </trkpt>
      <trkpt lat="48.45777" lon="7.42478">
        <ele>282.18037931022</ele>
        <time>2022-04-27T09:05:44.678Z</time>
      </trkpt>
      <trkpt lat="48.45786" lon="7.4249">
        <ele>281.1960742138</ele>
        <time>2022-04-27T09:05:45.409Z</time>
      </trkpt>
      <trkpt lat="48.45821" lon="7.42539">
        <ele>280.00981228705</ele>
        <time>2022-04-27T09:05:46.148Z</time>
      </trkpt>
      <trkpt lat="48.4583" lon="7.42559">
        <ele>278.81591444389</ele>
        <time>2022-04-27T09:05:46.890Z</time>
      </trkpt>
      <trkpt lat="48.45871" lon="7.42764">
        <ele>276.91332430696</ele>
        <time>2022-04-27T09:05:47.654Z</time>
      </trkpt>
      <trkpt lat="48.45876" lon="7.42777">
        <ele>275.5177850639</ele>
        <time>2022-04-27T09:05:48.420Z</time>
      </trkpt>
      <trkpt lat="48.45887" lon="7.42799">
        <ele>273.97633690265</ele>
        <time>2022-04-27T09:05:49.189Z</time>
      </trkpt>
      <trkpt lat="48.45894" lon="7.42807">
        <ele>272.40666032062</ele>
        <time>2022-04-27T09:05:49.959Z</time>
      </trkpt>
      <trkpt lat="48.45913" lon="7.42819">
        <ele>270.72186946333</ele>
        <time>2022-04-27T09:05:50.733Z</time>
      </trkpt>
      <trkpt lat="48.45921" lon="7.42825">
        <ele>269.07222635861</ele>
        <time>2022-04-27T09:05:51.508Z</time>
      </trkpt>
      <trkpt lat="48.45966" lon="7.42865">
        <ele>267.32872647173</ele>
        <time>2022-04-27T09:05:52.292Z</time>
      </trkpt>
      <trkpt lat="48.46004" lon="7.42907">
        <ele>265.60705284171</ele>
        <time>2022-04-27T09:05:53.083Z</time>
      </trkpt>
      <trkpt lat="48.46037" lon="7.42944">
        <ele>263.79801960944</ele>
        <time>2022-04-27T09:05:53.881Z</time>
      </trkpt>
      <trkpt lat="48.46061" lon="7.4296">
        <ele>262.01788675386</ele>
        <time>2022-04-27T09:05:54.683Z</time>
      </trkpt>
      <trkpt lat="48.4607" lon="7.42969">
        <ele>260.30393622348</ele>
        <time>2022-04-27T09:05:55.487Z</time>
      </trkpt>
      <trkpt lat="48.46073" lon="7.42983">
        <ele>258.62013271823</ele>
        <time>2022-04-27T09:05:56.292Z</time>
      </trkpt>
      <trkpt lat="48.46067" lon="7.42988">
        <ele>257.03464506467</ele>
        <time>2022-04-27T09:05:57.098Z</time>
      </trkpt>
      <trkpt lat="48.46056" lon="7.43005">
        <ele>255.429551508</ele>
        <time>2022-04-27T09:05:57.907Z</time>
      </trkpt>
      <trkpt lat="48.46047" lon="7.43031">
        <ele>253.89902593866</ele>
        <time>2022-04-27T09:05:58.719Z</time>
      </trkpt>
      <trkpt lat="48.46042" lon="7.43065">
        <ele>252.44036839075</ele>
        <time>2022-04-27T09:05:59.535Z</time>
      </trkpt>
      <trkpt lat="48.46042" lon="7.43108">
        <ele>251.0862510284</ele>
        <time>2022-04-27T09:06:00.355Z</time>
      </trkpt>
      <trkpt lat="48.46044" lon="7.43135">
        <ele>249.82702960025</ele>
        <time>2022-04-27T09:06:01.178Z</time>
      </trkpt>
      <trkpt lat="48.46046" lon="7.43151">
        <ele>248.68996761764</ele>
        <time>2022-04-27T09:06:02.003Z</time>
      </trkpt>
      <trkpt lat="48.46052" lon="7.43194">
        <ele>247.65413997297</ele>
        <time>2022-04-27T09:06:02.833Z</time>
      </trkpt>
      <trkpt lat="48.46054" lon="7.43211">
        <ele>246.76558499048</ele>
        <time>2022-04-27T09:06:03.664Z</time>
      </trkpt>
      <trkpt lat="48.46061" lon="7.43212">
        <ele>245.95618231644</ele>
        <time>2022-04-27T09:06:04.497Z</time>
      </trkpt>
      <trkpt lat="48.46098" lon="7.43214">
        <ele>245.12677452616</ele>
        <time>2022-04-27T09:06:05.335Z</time>
      </trkpt>
      <trkpt lat="48.46105" lon="7.43213">
        <ele>244.57430023047</ele>
        <time>2022-04-27T09:06:06.175Z</time>
      </trkpt>
      <trkpt lat="48.46115" lon="7.43204">
        <ele>244.15084426178</ele>
        <time>2022-04-27T09:06:07.017Z</time>
      </trkpt>
      <trkpt lat="48.4626" lon="7.43066">
        <ele>243.90155357533</ele>
        <time>2022-04-27T09:06:07.886Z</time>
      </trkpt>
      <trkpt lat="48.46268" lon="7.43061">
        <ele>243.73558189462</ele>
        <time>2022-04-27T09:06:08.756Z</time>
      </trkpt>
      <trkpt lat="48.46287" lon="7.43057">
        <ele>243.66195804108</ele>
        <time>2022-04-27T09:06:09.629Z</time>
      </trkpt>
      <trkpt lat="48.46308" lon="7.43056">
        <ele>243.71333127685</ele>
        <time>2022-04-27T09:06:10.506Z</time>
      </trkpt>
      <trkpt lat="48.46319" lon="7.43058">
        <ele>243.89537459111</ele>
        <time>2022-04-27T09:06:11.385Z</time>
      </trkpt>
      <trkpt lat="48.46327" lon="7.43062">
        <ele>244.19291663166</ele>
        <time>2022-04-27T09:06:12.265Z</time>
      </trkpt>
      <trkpt lat="48.46339" lon="7.43066">
        <ele>244.58257483434</ele>
        <time>2022-04-27T09:06:13.147Z</time>
      </trkpt>
      <trkpt lat="48.46372" lon="7.43063">
        <ele>245.08062351093</ele>
        <time>2022-04-27T09:06:14.034Z</time>
      </trkpt>
      <trkpt lat="48.46442" lon="7.43047">
        <ele>246.02955999594</ele>
        <time>2022-04-27T09:06:14.932Z</time>
      </trkpt>
      <trkpt lat="48.46462" lon="7.4305">
        <ele>246.80742281536</ele>
        <time>2022-04-27T09:06:15.834Z</time>
      </trkpt>
      <trkpt lat="48.46483" lon="7.43068">
        <ele>247.58730066776</ele>
        <time>2022-04-27T09:06:16.740Z</time>
      </trkpt>
      <trkpt lat="48.46508" lon="7.43094">
        <ele>248.41252651018</ele>
        <time>2022-04-27T09:06:17.650Z</time>
      </trkpt>
      <trkpt lat="48.46542" lon="7.43134">
        <ele>249.21133183756</ele>
        <time>2022-04-27T09:06:18.567Z</time>
      </trkpt>
      <trkpt lat="48.46569" lon="7.43163">
        <ele>249.99721471732</ele>
        <time>2022-04-27T09:06:19.490Z</time>
      </trkpt>
      <trkpt lat="48.46621" lon="7.43229">
        <ele>250.88837308485</ele>
        <time>2022-04-27T09:06:20.424Z</time>
      </trkpt>
      <trkpt lat="48.46668" lon="7.43306">
        <ele>251.72163626043</ele>
        <time>2022-04-27T09:06:21.369Z</time>
      </trkpt>
      <trkpt lat="48.46681" lon="7.43325">
        <ele>252.46894686066</ele>
        <time>2022-04-27T09:06:22.317Z</time>
      </trkpt>
      <trkpt lat="48.46718" lon="7.4338">
        <ele>253.24882234349</ele>
        <time>2022-04-27T09:06:23.273Z</time>
      </trkpt>
      <trkpt lat="48.46725" lon="7.43388">
        <ele>253.95578387108</ele>
        <time>2022-04-27T09:06:24.230Z</time>
      </trkpt>
      <trkpt lat="48.46771" lon="7.43444">
        <ele>254.49467882989</ele>
        <time>2022-04-27T09:06:25.197Z</time>
      </trkpt>
      <trkpt lat="48.46786" lon="7.43465">
        <ele>255.103752874</ele>
        <time>2022-04-27T09:06:26.167Z</time>
      </trkpt>
      <trkpt lat="48.46791" lon="7.43471">
        <ele>255.66910693235</ele>
        <time>2022-04-27T09:06:27.138Z</time>
      </trkpt>
      <trkpt lat="48.46835" lon="7.4354">
        <ele>256.24281201463</ele>
        <time>2022-04-27T09:06:28.119Z</time>
      </trkpt>
      <trkpt lat="48.46854" lon="7.43583">
        <ele>256.83502945922</ele>
        <time>2022-04-27T09:06:29.106Z</time>
      </trkpt>
      <trkpt lat="48.46883" lon="7.4369">
        <ele>257.37523025223</ele>
        <time>2022-04-27T09:06:30.105Z</time>
      </trkpt>
      <trkpt lat="48.46894" lon="7.43713">
        <ele>257.67798256766</ele>
        <time>2022-04-27T09:06:31.107Z</time>
      </trkpt>
      <trkpt lat="48.46914" lon="7.4375">
        <ele>257.82194816298</ele>
        <time>2022-04-27T09:06:32.114Z</time>
      </trkpt>
      <trkpt lat="48.46922" lon="7.43768">
        <ele>257.87129116553</ele>
        <time>2022-04-27T09:06:33.123Z</time>
      </trkpt>
      <trkpt lat="48.46925" lon="7.43774">
        <ele>257.87337960787</ele>
        <time>2022-04-27T09:06:34.133Z</time>
      </trkpt>
      <trkpt lat="48.46928" lon="7.4378">
        <ele>257.79712617294</ele>
        <time>2022-04-27T09:06:35.144Z</time>
      </trkpt>
      <trkpt lat="48.46931" lon="7.43786">
        <ele>257.6405670095</ele>
        <time>2022-04-27T09:06:36.156Z</time>
      </trkpt>
      <trkpt lat="48.46952" lon="7.43844">
        <ele>257.28739427367</ele>
        <time>2022-04-27T09:06:37.175Z</time>
      </trkpt>
      <trkpt lat="48.46971" lon="7.43882">
        <ele>256.92854089962</ele>
        <time>2022-04-27T09:06:38.199Z</time>
      </trkpt>
      <trkpt lat="48.47012" lon="7.43939">
        <ele>256.60323505244</ele>
        <time>2022-04-27T09:06:39.232Z</time>
      </trkpt>
      <trkpt lat="48.47038" lon="7.43966">
        <ele>256.25981078038</ele>
        <time>2022-04-27T09:06:40.270Z</time>
      </trkpt>
      <trkpt lat="48.47065" lon="7.43986">
        <ele>255.74257693463</ele>
        <time>2022-04-27T09:06:41.313Z</time>
      </trkpt>
      <trkpt lat="48.47079" lon="7.43992">
        <ele>255.18614846854</ele>
        <time>2022-04-27T09:06:42.358Z</time>
      </trkpt>
      <trkpt lat="48.47094" lon="7.43996">
        <ele>254.58285859499</ele>
        <time>2022-04-27T09:06:43.406Z</time>
      </trkpt>
      <trkpt lat="48.47115" lon="7.43998">
        <ele>253.94432984544</ele>
        <time>2022-04-27T09:06:44.457Z</time>
      </trkpt>
      <trkpt lat="48.47144" lon="7.43992">
        <ele>253.37716846463</ele>
        <time>2022-04-27T09:06:45.513Z</time>
      </trkpt>
      <trkpt lat="48.47236" lon="7.43949">
        <ele>252.5810907666</ele>
        <time>2022-04-27T09:06:46.584Z</time>
      </trkpt>
      <trkpt lat="48.47254" lon="7.43947">
        <ele>251.9006657608</ele>
        <time>2022-04-27T09:06:47.658Z</time>
      </trkpt>
      <trkpt lat="48.47263" lon="7.43947">
        <ele>251.21504861802</ele>
        <time>2022-04-27T09:06:48.733Z</time>
      </trkpt>
      <trkpt lat="48.47268" lon="7.43948">
        <ele>250.51230531949</ele>
        <time>2022-04-27T09:06:49.809Z</time>
      </trkpt>
      <trkpt lat="48.4728" lon="7.4395">
        <ele>249.788283411</ele>
        <time>2022-04-27T09:06:50.887Z</time>
      </trkpt>
      <trkpt lat="48.47309" lon="7.43961">
        <ele>249.02621434079</ele>
        <time>2022-04-27T09:06:51.970Z</time>
      </trkpt>
      <trkpt lat="48.47381" lon="7.44001">
        <ele>248.27856421912</ele>
        <time>2022-04-27T09:06:53.065Z</time>
      </trkpt>
      <trkpt lat="48.47396" lon="7.44005">
        <ele>247.49610039107</ele>
        <time>2022-04-27T09:06:54.163Z</time>
      </trkpt>
      <trkpt lat="48.47411" lon="7.44006">
        <ele>246.70367840588</ele>
        <time>2022-04-27T09:06:55.263Z</time>
      </trkpt>
      <trkpt lat="48.47433" lon="7.44003">
        <ele>245.91559331286</ele>
        <time>2022-04-27T09:06:56.367Z</time>
      </trkpt>
      <trkpt lat="48.47475" lon="7.4399">
        <ele>245.15277216489</ele>
        <time>2022-04-27T09:06:57.477Z</time>
      </trkpt>
      <trkpt lat="48.47514" lon="7.43984">
        <ele>244.19903571857</ele>
        <time>2022-04-27T09:06:58.594Z</time>
      </trkpt>
      <trkpt lat="48.47525" lon="7.43984">
        <ele>243.37385967901</ele>
        <time>2022-04-27T09:06:59.712Z</time>
      </trkpt>
      <trkpt lat="48.4753" lon="7.43986">
        <ele>242.57746347406</ele>
        <time>2022-04-27T09:07:00.831Z</time>
      </trkpt>
      <trkpt lat="48.47587" lon="7.44003">
        <ele>241.71931744537</ele>
        <time>2022-04-27T09:07:01.960Z</time>
      </trkpt>
      <trkpt lat="48.47596" lon="7.44005">
        <ele>240.91517575192</ele>
        <time>2022-04-27T09:07:03.090Z</time>
      </trkpt>
      <trkpt lat="48.476" lon="7.44006">
        <ele>240.13064568696</ele>
        <time>2022-04-27T09:07:04.221Z</time>
      </trkpt>
      <trkpt lat="48.47603" lon="7.44007">
        <ele>239.35004938731</ele>
        <time>2022-04-27T09:07:05.352Z</time>
      </trkpt>
      <trkpt lat="48.47636" lon="7.44008">
        <ele>238.51130130244</ele>
        <time>2022-04-27T09:07:06.488Z</time>
      </trkpt>
      <trkpt lat="48.47651" lon="7.44009">
        <ele>237.75447995844</ele>
        <time>2022-04-27T09:07:07.627Z</time>
      </trkpt>
      <trkpt lat="48.47683" lon="7.44024">
        <ele>236.93276997258</ele>
        <time>2022-04-27T09:07:08.771Z</time>
      </trkpt>
      <trkpt lat="48.47691" lon="7.44025">
        <ele>236.16871184467</ele>
        <time>2022-04-27T09:07:09.916Z</time>
      </trkpt>
      <trkpt lat="48.477" lon="7.44027">
        <ele>235.40422245973</ele>
        <time>2022-04-27T09:07:11.063Z</time>
      </trkpt>
      <trkpt lat="48.47729" lon="7.44021">
        <ele>234.59227369858</ele>
        <time>2022-04-27T09:07:12.215Z</time>
      </trkpt>
      <trkpt lat="48.47741" lon="7.44021">
        <ele>233.81358642241</ele>
        <time>2022-04-27T09:07:13.369Z</time>
      </trkpt>
      <trkpt lat="48.47747" lon="7.44024">
        <ele>233.06273018808</ele>
        <time>2022-04-27T09:07:14.524Z</time>
      </trkpt>
      <trkpt lat="48.4775" lon="7.44029">
        <ele>232.33859846501</ele>
        <time>2022-04-27T09:07:15.679Z</time>
      </trkpt>
      <trkpt lat="48.47753" lon="7.44041">
        <ele>231.62185968348</ele>
        <time>2022-04-27T09:07:16.836Z</time>
      </trkpt>
      <trkpt lat="48.47754" lon="7.44072">
        <ele>230.86332814564</ele>
        <time>2022-04-27T09:07:17.996Z</time>
      </trkpt>
      <trkpt lat="48.47753" lon="7.4409">
        <ele>230.12777365851</ele>
        <time>2022-04-27T09:07:19.158Z</time>
      </trkpt>
      <trkpt lat="48.47753" lon="7.44096">
        <ele>229.45244161557</ele>
        <time>2022-04-27T09:07:20.321Z</time>
      </trkpt>
      <trkpt lat="48.47747" lon="7.44165">
        <ele>228.67393317236</ele>
        <time>2022-04-27T09:07:21.491Z</time>
      </trkpt>
      <trkpt lat="48.47745" lon="7.44177">
        <ele>228.02408032567</ele>
        <time>2022-04-27T09:07:22.662Z</time>
      </trkpt>
      <trkpt lat="48.47741" lon="7.44233">
        <ele>227.33222063399</ele>
        <time>2022-04-27T09:07:23.839Z</time>
      </trkpt>
      <trkpt lat="48.47739" lon="7.44243">
        <ele>226.74479187124</ele>
        <time>2022-04-27T09:07:25.017Z</time>
      </trkpt>
      <trkpt lat="48.47734" lon="7.44265">
        <ele>226.23088388816</ele>
        <time>2022-04-27T09:07:26.198Z</time>
      </trkpt>
      <trkpt lat="48.47729" lon="7.44282">
        <ele>225.73245492458</ele>
        <time>2022-04-27T09:07:27.381Z</time>
      </trkpt>
      <trkpt lat="48.47727" lon="7.44291">
        <ele>225.24135506584</ele>
        <time>2022-04-27T09:07:28.565Z</time>
      </trkpt>
      <trkpt lat="48.47711" lon="7.44332">
        <ele>224.78572196149</ele>
        <time>2022-04-27T09:07:29.754Z</time>
      </trkpt>
      <trkpt lat="48.47691" lon="7.44386">
        <ele>224.32076319312</ele>
        <time>2022-04-27T09:07:30.949Z</time>
      </trkpt>
      <trkpt lat="48.47681" lon="7.44417">
        <ele>223.93554484908</ele>
        <time>2022-04-27T09:07:32.148Z</time>
      </trkpt>
      <trkpt lat="48.47667" lon="7.44462">
        <ele>223.43934036025</ele>
        <time>2022-04-27T09:07:33.352Z</time>
      </trkpt>
      <trkpt lat="48.47659" lon="7.44474">
        <ele>223.02135401403</ele>
        <time>2022-04-27T09:07:34.558Z</time>
      </trkpt>
      <trkpt lat="48.47656" lon="7.44471">
        <ele>222.69505982211</ele>
        <time>2022-04-27T09:07:35.765Z</time>
      </trkpt>
      <trkpt lat="48.47649" lon="7.44471">
        <ele>222.36153371859</ele>
        <time>2022-04-27T09:07:36.973Z</time>
      </trkpt>
      <trkpt lat="48.47645" lon="7.44474">
        <ele>222.11329363707</ele>
        <time>2022-04-27T09:07:38.182Z</time>
      </trkpt>
      <trkpt lat="48.47643" lon="7.44479">
        <ele>221.93624435228</ele>
        <time>2022-04-27T09:07:39.391Z</time>
      </trkpt>
      <trkpt lat="48.47643" lon="7.44484">
        <ele>221.83172926517</ele>
        <time>2022-04-27T09:07:40.601Z</time>
      </trkpt>
      <trkpt lat="48.47644" lon="7.44493">
        <ele>221.8031277982</ele>
        <time>2022-04-27T09:07:41.812Z</time>
      </trkpt>
      <trkpt lat="48.47647" lon="7.44497">
        <ele>221.81728137863</ele>
        <time>2022-04-27T09:07:43.023Z</time>
      </trkpt>
      <trkpt lat="48.47649" lon="7.44499">
        <ele>221.87622209369</ele>
        <time>2022-04-27T09:07:44.235Z</time>
      </trkpt>
      <trkpt lat="48.47654" lon="7.445">
        <ele>221.99894724941</ele>
        <time>2022-04-27T09:07:45.448Z</time>
      </trkpt>
      <trkpt lat="48.47657" lon="7.44499">
        <ele>222.1528740537</ele>
        <time>2022-04-27T09:07:46.661Z</time>
      </trkpt>
      <trkpt lat="48.47659" lon="7.44497">
        <ele>222.34760184406</ele>
        <time>2022-04-27T09:07:47.874Z</time>
      </trkpt>
      <trkpt lat="48.47661" lon="7.44506">
        <ele>222.59524412255</ele>
        <time>2022-04-27T09:07:49.088Z</time>
      </trkpt>
      <trkpt lat="48.47664" lon="7.44535">
        <ele>222.86204232817</ele>
        <time>2022-04-27T09:07:50.306Z</time>
      </trkpt>
      <trkpt lat="48.47667" lon="7.44552">
        <ele>223.15951980277</ele>
        <time>2022-04-27T09:07:51.525Z</time>
      </trkpt>
      <trkpt lat="48.47675" lon="7.44575">
        <ele>223.55638450262</ele>
        <time>2022-04-27T09:07:52.747Z</time>
      </trkpt>
      <trkpt lat="48.47696" lon="7.44612">
        <ele>224.00499839211</ele>
        <time>2022-04-27T09:07:53.974Z</time>
      </trkpt>
      <trkpt lat="48.47748" lon="7.44671">
        <ele>224.38334271756</ele>
        <time>2022-04-27T09:07:55.212Z</time>
      </trkpt>
      <trkpt lat="48.47846" lon="7.44781">
        <ele>225.05259395337</ele>
        <time>2022-04-27T09:07:56.469Z</time>
      </trkpt>
      <trkpt lat="48.47867" lon="7.44804">
        <ele>225.62390111769</ele>
        <time>2022-04-27T09:07:57.731Z</time>
      </trkpt>
      <trkpt lat="48.4801" lon="7.44988">
        <ele>226.08546909705</ele>
        <time>2022-04-27T09:07:59.023Z</time>
      </trkpt>
      <trkpt lat="48.48055" lon="7.45045">
        <ele>226.66275674721</ele>
        <time>2022-04-27T09:08:00.324Z</time>
      </trkpt>
      <trkpt lat="48.48101" lon="7.45088">
        <ele>227.30275314541</ele>
        <time>2022-04-27T09:08:01.634Z</time>
      </trkpt>
      <trkpt lat="48.48151" lon="7.45122">
        <ele>227.90087518679</ele>
        <time>2022-04-27T09:08:02.953Z</time>
      </trkpt>
      <trkpt lat="48.48194" lon="7.45144">
        <ele>228.56240776254</ele>
        <time>2022-04-27T09:08:04.279Z</time>
      </trkpt>
      <trkpt lat="48.48257" lon="7.45165">
        <ele>229.18931449536</ele>
        <time>2022-04-27T09:08:05.615Z</time>
      </trkpt>
      <trkpt lat="48.48272" lon="7.45174">
        <ele>229.88682798491</ele>
        <time>2022-04-27T09:08:06.954Z</time>
      </trkpt>
      <trkpt lat="48.48292" lon="7.45197">
        <ele>230.56559474176</ele>
        <time>2022-04-27T09:08:08.297Z</time>
      </trkpt>
      <trkpt lat="48.48304" lon="7.45225">
        <ele>231.20965934509</ele>
        <time>2022-04-27T09:08:09.643Z</time>
      </trkpt>
      <trkpt lat="48.48325" lon="7.45293">
        <ele>231.78003637869</ele>
        <time>2022-04-27T09:08:10.997Z</time>
      </trkpt>
      <trkpt lat="48.48325" lon="7.45295">
        <ele>232.56453724669</ele>
        <time>2022-04-27T09:08:12.352Z</time>
      </trkpt>
      <trkpt lat="48.48336" lon="7.45334">
        <ele>233.36716708884</ele>
        <time>2022-04-27T09:08:13.711Z</time>
      </trkpt>
      <trkpt lat="48.48344" lon="7.45361">
        <ele>234.28350161585</ele>
        <time>2022-04-27T09:08:15.073Z</time>
      </trkpt>
      <trkpt lat="48.48352" lon="7.45379">
        <ele>235.2962496575</ele>
        <time>2022-04-27T09:08:16.438Z</time>
      </trkpt>
      <trkpt lat="48.48348" lon="7.45395">
        <ele>236.3022765338</ele>
        <time>2022-04-27T09:08:17.804Z</time>
      </trkpt>
      <trkpt lat="48.4835" lon="7.4542">
        <ele>237.38660768251</ele>
        <time>2022-04-27T09:08:19.173Z</time>
      </trkpt>
      <trkpt lat="48.48363" lon="7.45516">
        <ele>238.47762187801</ele>
        <time>2022-04-27T09:08:20.553Z</time>
      </trkpt>
      <trkpt lat="48.48367" lon="7.45565">
        <ele>239.71282086173</ele>
        <time>2022-04-27T09:08:21.938Z</time>
      </trkpt>
      <trkpt lat="48.48366" lon="7.45699">
        <ele>241.12898710844</ele>
        <time>2022-04-27T09:08:23.337Z</time>
      </trkpt>
      <trkpt lat="48.48373" lon="7.45808">
        <ele>242.58717826908</ele>
        <time>2022-04-27T09:08:24.748Z</time>
      </trkpt>
      <trkpt lat="48.4838" lon="7.45869">
        <ele>244.0116585239</ele>
        <time>2022-04-27T09:08:26.165Z</time>
      </trkpt>
      <trkpt lat="48.48389" lon="7.45925">
        <ele>245.44149661472</ele>
        <time>2022-04-27T09:08:27.588Z</time>
      </trkpt>
      <trkpt lat="48.48395" lon="7.45951">
        <ele>246.8159029792</ele>
        <time>2022-04-27T09:08:29.014Z</time>
      </trkpt>
      <trkpt lat="48.48466" lon="7.46206">
        <ele>249.81085518501</ele>
        <time>2022-04-27T09:08:30.470Z</time>
      </trkpt>
      <trkpt lat="48.48482" lon="7.4625">
        <ele>251.13728393904</ele>
        <time>2022-04-27T09:08:31.931Z</time>
      </trkpt>
      <trkpt lat="48.48498" lon="7.46291">
        <ele>252.35845432461</ele>
        <time>2022-04-27T09:08:33.397Z</time>
      </trkpt>
      <trkpt lat="48.48524" lon="7.46378">
        <ele>253.99436276258</ele>
        <time>2022-04-27T09:08:34.873Z</time>
      </trkpt>
      <trkpt lat="48.48556" lon="7.4645">
        <ele>254.96955483535</ele>
        <time>2022-04-27T09:08:36.359Z</time>
      </trkpt>
      <trkpt lat="48.48607" lon="7.46535">
        <ele>256.15007624634</ele>
        <time>2022-04-27T09:08:37.857Z</time>
      </trkpt>
      <trkpt lat="48.4865" lon="7.46588">
        <ele>256.89554364874</ele>
        <time>2022-04-27T09:08:39.364Z</time>
      </trkpt>
      <trkpt lat="48.48685" lon="7.4666">
        <ele>257.57625779707</ele>
        <time>2022-04-27T09:08:40.880Z</time>
      </trkpt>
      <trkpt lat="48.48727" lon="7.46725">
        <ele>258.042191736</ele>
        <time>2022-04-27T09:08:42.406Z</time>
      </trkpt>
      <trkpt lat="48.48767" lon="7.46796">
        <ele>258.42128517849</ele>
        <time>2022-04-27T09:08:43.942Z</time>
      </trkpt>
      <trkpt lat="48.48774" lon="7.46809">
        <ele>258.55485905544</ele>
        <time>2022-04-27T09:08:45.479Z</time>
      </trkpt>
      <trkpt lat="48.48791" lon="7.46847">
        <ele>258.57232049921</ele>
        <time>2022-04-27T09:08:47.021Z</time>
      </trkpt>
      <trkpt lat="48.48825" lon="7.46946">
        <ele>258.14935640951</ele>
        <time>2022-04-27T09:08:48.575Z</time>
      </trkpt>
      <trkpt lat="48.48845" lon="7.47026">
        <ele>257.68449066085</ele>
        <time>2022-04-27T09:08:50.138Z</time>
      </trkpt>
      <trkpt lat="48.48865" lon="7.4713">
        <ele>256.8251831477</ele>
        <time>2022-04-27T09:08:51.713Z</time>
      </trkpt>
      <trkpt lat="48.48891" lon="7.47225">
        <ele>255.86907327952</ele>
        <time>2022-04-27T09:08:53.299Z</time>
      </trkpt>
      <trkpt lat="48.48899" lon="7.4726">
        <ele>255.02291847615</ele>
        <time>2022-04-27T09:08:54.889Z</time>
      </trkpt>
      <trkpt lat="48.48903" lon="7.47295">
        <ele>253.97837458261</ele>
        <time>2022-04-27T09:08:56.482Z</time>
      </trkpt>
      <trkpt lat="48.48905" lon="7.4733">
        <ele>252.83743306458</ele>
        <time>2022-04-27T09:08:58.079Z</time>
      </trkpt>
      <trkpt lat="48.48912" lon="7.47578">
        <ele>251.50700350124</ele>
        <time>2022-04-27T09:08:59.703Z</time>
      </trkpt>
      <trkpt lat="48.48909" lon="7.4771">
        <ele>250.05306937845</ele>
        <time>2022-04-27T09:09:01.341Z</time>
      </trkpt>
      <trkpt lat="48.48908" lon="7.47726">
        <ele>248.6650779528</ele>
        <time>2022-04-27T09:09:02.980Z</time>
      </trkpt>
      <trkpt lat="48.48905" lon="7.47806">
        <ele>246.97195700554</ele>
        <time>2022-04-27T09:09:04.628Z</time>
      </trkpt>
      <trkpt lat="48.48898" lon="7.47859">
        <ele>245.28662054661</ele>
        <time>2022-04-27T09:09:06.282Z</time>
      </trkpt>
      <trkpt lat="48.48879" lon="7.47947">
        <ele>243.61840805297</ele>
        <time>2022-04-27T09:09:07.946Z</time>
      </trkpt>
      <trkpt lat="48.48863" lon="7.4801">
        <ele>242.02759251256</ele>
        <time>2022-04-27T09:09:09.617Z</time>
      </trkpt>
      <trkpt lat="48.48844" lon="7.48066">
        <ele>240.26882211169</ele>
        <time>2022-04-27T09:09:11.294Z</time>
      </trkpt>
      <trkpt lat="48.48834" lon="7.48113">
        <ele>238.61482385849</ele>
        <time>2022-04-27T09:09:12.977Z</time>
      </trkpt>
      <trkpt lat="48.48828" lon="7.48147">
        <ele>236.93713937297</ele>
        <time>2022-04-27T09:09:14.663Z</time>
      </trkpt>
      <trkpt lat="48.48818" lon="7.4823">
        <ele>235.17544766348</ele>
        <time>2022-04-27T09:09:16.358Z</time>
      </trkpt>
      <trkpt lat="48.48806" lon="7.48293">
        <ele>233.43781350678</ele>
        <time>2022-04-27T09:09:18.060Z</time>
      </trkpt>
      <trkpt lat="48.48795" lon="7.48334">
        <ele>231.80926034758</ele>
        <time>2022-04-27T09:09:19.767Z</time>
      </trkpt>
      <trkpt lat="48.4878" lon="7.48374">
        <ele>230.1112821931</ele>
        <time>2022-04-27T09:09:21.479Z</time>
      </trkpt>
      <trkpt lat="48.48767" lon="7.48402">
        <ele>228.41883160143</ele>
        <time>2022-04-27T09:09:23.195Z</time>
      </trkpt>
      <trkpt lat="48.48756" lon="7.48414">
        <ele>226.75736774603</ele>
        <time>2022-04-27T09:09:24.913Z</time>
      </trkpt>
      <trkpt lat="48.48734" lon="7.48445">
        <ele>225.09561984245</ele>
        <time>2022-04-27T09:09:26.636Z</time>
      </trkpt>
      <trkpt lat="48.48731" lon="7.4845">
        <ele>223.59555731602</ele>
        <time>2022-04-27T09:09:28.359Z</time>
      </trkpt>
      <trkpt lat="48.48725" lon="7.48462">
        <ele>222.09042434176</ele>
        <time>2022-04-27T09:09:30.084Z</time>
      </trkpt>
      <trkpt lat="48.48709" lon="7.48504">
        <ele>220.62505141476</ele>
        <time>2022-04-27T09:09:31.814Z</time>
      </trkpt>
      <trkpt lat="48.48699" lon="7.48551">
        <ele>219.20470303435</ele>
        <time>2022-04-27T09:09:33.549Z</time>
      </trkpt>
      <trkpt lat="48.48697" lon="7.48573">
        <ele>217.83732114639</ele>
        <time>2022-04-27T09:09:35.287Z</time>
      </trkpt>
      <trkpt lat="48.48701" lon="7.48663">
        <ele>216.35004578523</ele>
        <time>2022-04-27T09:09:37.034Z</time>
      </trkpt>
      <trkpt lat="48.48702" lon="7.4868">
        <ele>215.06184259864</ele>
        <time>2022-04-27T09:09:38.783Z</time>
      </trkpt>
      <trkpt lat="48.48708" lon="7.48723">
        <ele>213.75202166742</ele>
        <time>2022-04-27T09:09:40.537Z</time>
      </trkpt>
      <trkpt lat="48.4871" lon="7.48733">
        <ele>212.55937346653</ele>
        <time>2022-04-27T09:09:42.292Z</time>
      </trkpt>
      <trkpt lat="48.48711" lon="7.48744">
        <ele>211.41009602628</ele>
        <time>2022-04-27T09:09:44.048Z</time>
      </trkpt>
      <trkpt lat="48.48717" lon="7.48778">
        <ele>210.2321899616</ele>
        <time>2022-04-27T09:09:45.808Z</time>
      </trkpt>
      <trkpt lat="48.48718" lon="7.4879">
        <ele>209.14103843008</ele>
        <time>2022-04-27T09:09:47.569Z</time>
      </trkpt>
      <trkpt lat="48.48716" lon="7.48805">
        <ele>208.09500721527</ele>
        <time>2022-04-27T09:09:49.332Z</time>
      </trkpt>
      <trkpt lat="48.4871" lon="7.48866">
        <ele>207.02240185933</ele>
        <time>2022-04-27T09:09:51.101Z</time>
      </trkpt>
      <trkpt lat="48.48709" lon="7.48876">
        <ele>206.00661368102</ele>
        <time>2022-04-27T09:09:52.871Z</time>
      </trkpt>
      <trkpt lat="48.48703" lon="7.48886">
        <ele>204.99763108523</ele>
        <time>2022-04-27T09:09:54.643Z</time>
      </trkpt>
      <trkpt lat="48.48701" lon="7.48894">
        <ele>204.02756404528</ele>
        <time>2022-04-27T09:09:56.416Z</time>
      </trkpt>
      <trkpt lat="48.487" lon="7.48919">
        <ele>203.06044074391</ele>
        <time>2022-04-27T09:09:58.191Z</time>
      </trkpt>
      <trkpt lat="48.487" lon="7.48946">
        <ele>202.11138188737</ele>
        <time>2022-04-27T09:09:59.969Z</time>
      </trkpt>
      <trkpt lat="48.48702" lon="7.49003">
        <ele>201.16817830458</ele>
        <time>2022-04-27T09:10:01.753Z</time>
      </trkpt>
      <trkpt lat="48.48704" lon="7.49021">
        <ele>200.27896445399</ele>
        <time>2022-04-27T09:10:03.539Z</time>
      </trkpt>
      <trkpt lat="48.48705" lon="7.49042">
        <ele>199.39485738591</ele>
        <time>2022-04-27T09:10:05.327Z</time>
      </trkpt>
      <trkpt lat="48.48705" lon="7.49115">
        <ele>198.42580639925</ele>
        <time>2022-04-27T09:10:07.123Z</time>
      </trkpt>
      <trkpt lat="48.48705" lon="7.49128">
        <ele>197.60513634021</ele>
        <time>2022-04-27T09:10:08.921Z</time>
      </trkpt>
      <trkpt lat="48.48705" lon="7.49141">
        <ele>196.80958191078</ele>
        <time>2022-04-27T09:10:10.720Z</time>
      </trkpt>
      <trkpt lat="48.48706" lon="7.49147">
        <ele>196.05227033049</ele>
        <time>2022-04-27T09:10:12.520Z</time>
      </trkpt>
      <trkpt lat="48.48732" lon="7.49337">
        <ele>195.15782048555</ele>
        <time>2022-04-27T09:10:14.340Z</time>
      </trkpt>
      <trkpt lat="48.48732" lon="7.49341">
        <ele>194.47933764829</ele>
        <time>2022-04-27T09:10:16.161Z</time>
      </trkpt>
      <trkpt lat="48.48742" lon="7.49404">
        <ele>193.78999135457</ele>
        <time>2022-04-27T09:10:17.989Z</time>
      </trkpt>
      <trkpt lat="48.48742" lon="7.49413">
        <ele>193.16978576316</ele>
        <time>2022-04-27T09:10:19.818Z</time>
      </trkpt>
      <trkpt lat="48.48758" lon="7.49529">
        <ele>192.50177169526</ele>
        <time>2022-04-27T09:10:21.659Z</time>
      </trkpt>
      <trkpt lat="48.48769" lon="7.4961">
        <ele>191.92841111419</ele>
        <time>2022-04-27T09:10:23.509Z</time>
      </trkpt>
      <trkpt lat="48.4877" lon="7.49625">
        <ele>191.42203896938</ele>
        <time>2022-04-27T09:10:25.361Z</time>
      </trkpt>
      <trkpt lat="48.4877" lon="7.49644">
        <ele>190.95532341598</ele>
        <time>2022-04-27T09:10:27.215Z</time>
      </trkpt>
      <trkpt lat="48.48767" lon="7.49659">
        <ele>190.54743700436</ele>
        <time>2022-04-27T09:10:29.070Z</time>
      </trkpt>
      <trkpt lat="48.48763" lon="7.49661">
        <ele>190.21982056943</ele>
        <time>2022-04-27T09:10:30.926Z</time>
      </trkpt>
      <trkpt lat="48.48761" lon="7.49663">
        <ele>189.93228526909</ele>
        <time>2022-04-27T09:10:32.782Z</time>
      </trkpt>
      <trkpt lat="48.4876" lon="7.49668">
        <ele>189.68814828915</ele>
        <time>2022-04-27T09:10:34.639Z</time>
      </trkpt>
      <trkpt lat="48.4876" lon="7.49674">
        <ele>189.48129423892</ele>
        <time>2022-04-27T09:10:36.497Z</time>
      </trkpt>
      <trkpt lat="48.48762" lon="7.49678">
        <ele>189.31079852117</ele>
        <time>2022-04-27T09:10:38.355Z</time>
      </trkpt>
      <trkpt lat="48.48763" lon="7.4968">
        <ele>189.17676132277</ele>
        <time>2022-04-27T09:10:40.213Z</time>
      </trkpt>
      <trkpt lat="48.48765" lon="7.49682">
        <ele>189.07569771666</ele>
        <time>2022-04-27T09:10:42.072Z</time>
      </trkpt>
      <trkpt lat="48.48768" lon="7.49682">
        <ele>189.00421731316</ele>
        <time>2022-04-27T09:10:43.931Z</time>
      </trkpt>
      <trkpt lat="48.48772" lon="7.4968">
        <ele>188.95827290377</ele>
        <time>2022-04-27T09:10:45.791Z</time>
      </trkpt>
      <trkpt lat="48.48774" lon="7.49678">
        <ele>188.9424519001</ele>
        <time>2022-04-27T09:10:47.651Z</time>
      </trkpt>
      <trkpt lat="48.48775" lon="7.49675">
        <ele>188.94997881372</ele>
        <time>2022-04-27T09:10:49.512Z</time>
      </trkpt>
      <trkpt lat="48.48775" lon="7.49671">
        <ele>188.9778789001</ele>
        <time>2022-04-27T09:10:51.373Z</time>
      </trkpt>
      <trkpt lat="48.48785" lon="7.49671">
        <ele>189.0255891339</ele>
        <time>2022-04-27T09:10:53.236Z</time>
      </trkpt>
      <trkpt lat="48.4892" lon="7.4967">
        <ele>188.96503660536</ele>
        <time>2022-04-27T09:10:55.120Z</time>
      </trkpt>
      <trkpt lat="48.48957" lon="7.49669">
        <ele>189.16662913797</ele>
        <time>2022-04-27T09:10:57.010Z</time>
      </trkpt>
      <trkpt lat="48.48968" lon="7.4967">
        <ele>189.26343748999</ele>
        <time>2022-04-27T09:10:58.902Z</time>
      </trkpt>
      <trkpt lat="48.48982" lon="7.49673">
        <ele>189.33271525733</ele>
        <time>2022-04-27T09:11:00.796Z</time>
      </trkpt>
      <trkpt lat="48.48989" lon="7.49677">
        <ele>189.39355944616</ele>
        <time>2022-04-27T09:11:02.691Z</time>
      </trkpt>
      <trkpt lat="48.4899" lon="7.49679">
        <ele>189.46984371586</ele>
        <time>2022-04-27T09:11:04.587Z</time>
      </trkpt>
      <trkpt lat="48.48993" lon="7.49681">
        <ele>189.54010921118</ele>
        <time>2022-04-27T09:11:06.483Z</time>
      </trkpt>
      <trkpt lat="48.49027" lon="7.49735">
        <ele>189.48573611273</ele>
        <time>2022-04-27T09:11:08.387Z</time>
      </trkpt>
      <trkpt lat="48.4904" lon="7.49743">
        <ele>189.54382024602</ele>
        <time>2022-04-27T09:11:10.293Z</time>
      </trkpt>
      <trkpt lat="48.49055" lon="7.49742">
        <ele>189.58591576155</ele>
        <time>2022-04-27T09:11:12.202Z</time>
      </trkpt>
      <trkpt lat="48.49062" lon="7.4974">
        <ele>189.64799294719</ele>
        <time>2022-04-27T09:11:14.112Z</time>
      </trkpt>
      <trkpt lat="48.49115" lon="7.49722">
        <ele>189.83513029408</ele>
        <time>2022-04-27T09:11:16.031Z</time>
      </trkpt>
      <trkpt lat="48.49235" lon="7.4968">
        <ele>189.79105035406</ele>
        <time>2022-04-27T09:11:17.969Z</time>
      </trkpt>
      <trkpt lat="48.49269" lon="7.49675">
        <ele>189.85558797264</ele>
        <time>2022-04-27T09:11:19.913Z</time>
      </trkpt>
      <trkpt lat="48.49276" lon="7.49675">
        <ele>189.84824526768</ele>
        <time>2022-04-27T09:11:21.858Z</time>
      </trkpt>
      <trkpt lat="48.49276" lon="7.49683">
        <ele>189.77981659879</ele>
        <time>2022-04-27T09:11:23.804Z</time>
      </trkpt>
      <trkpt lat="48.49279" lon="7.4969">
        <ele>189.68417141325</ele>
        <time>2022-04-27T09:11:25.751Z</time>
      </trkpt>
      <trkpt lat="48.49282" lon="7.49695">
        <ele>189.55424590108</ele>
        <time>2022-04-27T09:11:27.698Z</time>
      </trkpt>
      <trkpt lat="48.49288" lon="7.49699">
        <ele>189.39139874833</ele>
        <time>2022-04-27T09:11:29.646Z</time>
      </trkpt>
      <trkpt lat="48.49293" lon="7.49698">
        <ele>189.19315462583</ele>
        <time>2022-04-27T09:11:31.595Z</time>
      </trkpt>
      <trkpt lat="48.49298" lon="7.49695">
        <ele>188.95829944333</ele>
        <time>2022-04-27T09:11:33.545Z</time>
      </trkpt>
      <trkpt lat="48.49302" lon="7.49689">
        <ele>188.68678735631</ele>
        <time>2022-04-27T09:11:35.496Z</time>
      </trkpt>
      <trkpt lat="48.49304" lon="7.49681">
        <ele>188.37983262638</ele>
        <time>2022-04-27T09:11:37.448Z</time>
      </trkpt>
      <trkpt lat="48.49303" lon="7.49672">
        <ele>188.04059422186</ele>
        <time>2022-04-27T09:11:39.401Z</time>
      </trkpt>
      <trkpt lat="48.49351" lon="7.49673">
        <ele>187.70357470086</ele>
        <time>2022-04-27T09:11:41.362Z</time>
      </trkpt>
      <trkpt lat="48.49417" lon="7.49675">
        <ele>187.29071214267</ele>
        <time>2022-04-27T09:11:43.333Z</time>
      </trkpt>
      <trkpt lat="48.49626" lon="7.49682">
        <ele>186.80692917426</ele>
        <time>2022-04-27T09:11:45.337Z</time>
      </trkpt>
      <trkpt lat="48.49916" lon="7.49693">
        <ele>185.47489464224</ele>
        <time>2022-04-27T09:11:47.388Z</time>
      </trkpt>
      <trkpt lat="48.50223" lon="7.49702">
        <ele>185.69062116571</ele>
        <time>2022-04-27T09:11:49.488Z</time>
      </trkpt>
      <trkpt lat="48.50253" lon="7.49707">
        <ele>185.33050749336</ele>
        <time>2022-04-27T09:11:51.593Z</time>
      </trkpt>
      <trkpt lat="48.50286" lon="7.4971">
        <ele>185.0934410017</ele>
        <time>2022-04-27T09:11:53.703Z</time>
      </trkpt>
      <trkpt lat="48.50303" lon="7.49715">
        <ele>184.81256218048</ele>
        <time>2022-04-27T09:11:55.816Z</time>
      </trkpt>
      <trkpt lat="48.50313" lon="7.49725">
        <ele>184.5293650568</ele>
        <time>2022-04-27T09:11:57.931Z</time>
      </trkpt>
      <trkpt lat="48.50321" lon="7.49738">
        <ele>184.30115268551</ele>
        <time>2022-04-27T09:12:00.048Z</time>
      </trkpt>
      <trkpt lat="48.50313" lon="7.49761">
        <ele>184.08729739198</ele>
        <time>2022-04-27T09:12:02.168Z</time>
      </trkpt>
      <trkpt lat="48.50306" lon="7.49772">
        <ele>183.94178985122</ele>
        <time>2022-04-27T09:12:04.289Z</time>
      </trkpt>
      <trkpt lat="48.50301" lon="7.49786">
        <ele>183.82783692251</ele>
        <time>2022-04-27T09:12:06.412Z</time>
      </trkpt>
      <trkpt lat="48.50296" lon="7.498">
        <ele>183.75211388679</ele>
        <time>2022-04-27T09:12:08.537Z</time>
      </trkpt>
      <trkpt lat="48.50294" lon="7.49815">
        <ele>183.73349124179</ele>
        <time>2022-04-27T09:12:10.663Z</time>
      </trkpt>
      <trkpt lat="48.50293" lon="7.49825">
        <ele>183.77537263549</ele>
        <time>2022-04-27T09:12:12.790Z</time>
      </trkpt>
      <trkpt lat="48.50294" lon="7.49857">
        <ele>183.82896312626</ele>
        <time>2022-04-27T09:12:14.921Z</time>
      </trkpt>
      <trkpt lat="48.50333" lon="7.50137">
        <ele>184.30051512321</ele>
        <time>2022-04-27T09:12:17.082Z</time>
      </trkpt>
      <trkpt lat="48.50347" lon="7.50238">
        <ele>184.51383207164</ele>
        <time>2022-04-27T09:12:19.254Z</time>
      </trkpt>
      <trkpt lat="48.50351" lon="7.50267">
        <ele>184.68397590538</ele>
        <time>2022-04-27T09:12:21.429Z</time>
      </trkpt>
      <trkpt lat="48.50358" lon="7.50265">
        <ele>184.95638362952</ele>
        <time>2022-04-27T09:12:23.606Z</time>
      </trkpt>
      <trkpt lat="48.50365" lon="7.50254">
        <ele>185.25497211409</ele>
        <time>2022-04-27T09:12:25.784Z</time>
      </trkpt>
      <trkpt lat="48.50365" lon="7.50248">
        <ele>185.53474873242</ele>
        <time>2022-04-27T09:12:27.963Z</time>
      </trkpt>
      <trkpt lat="48.50361" lon="7.50189">
        <ele>185.86987206882</ele>
        <time>2022-04-27T09:12:30.148Z</time>
      </trkpt>
      <trkpt lat="48.50363" lon="7.50179">
        <ele>186.16074959597</ele>
        <time>2022-04-27T09:12:32.334Z</time>
      </trkpt>
      <trkpt lat="48.50368" lon="7.50167">
        <ele>186.45363772112</ele>
        <time>2022-04-27T09:12:34.522Z</time>
      </trkpt>
      <trkpt lat="48.50376" lon="7.5016">
        <ele>186.74535011048</ele>
        <time>2022-04-27T09:12:36.711Z</time>
      </trkpt>
      <trkpt lat="48.50388" lon="7.50156">
        <ele>187.05237325868</ele>
        <time>2022-04-27T09:12:38.902Z</time>
      </trkpt>
      <trkpt lat="48.50402" lon="7.50156">
        <ele>187.33422238039</ele>
        <time>2022-04-27T09:12:41.095Z</time>
      </trkpt>
      <trkpt lat="48.50437" lon="7.50161">
        <ele>187.54344782277</ele>
        <time>2022-04-27T09:12:43.294Z</time>
      </trkpt>
      <trkpt lat="48.50446" lon="7.50162">
        <ele>187.78313144922</ele>
        <time>2022-04-27T09:12:45.494Z</time>
      </trkpt>
      <trkpt lat="48.50468" lon="7.50157">
        <ele>187.95203637557</ele>
        <time>2022-04-27T09:12:47.698Z</time>
      </trkpt>
      <trkpt lat="48.50485" lon="7.50144">
        <ele>188.16327118031</ele>
        <time>2022-04-27T09:12:49.905Z</time>
      </trkpt>
      <trkpt lat="48.50498" lon="7.50114">
        <ele>188.37766026477</ele>
        <time>2022-04-27T09:12:52.116Z</time>
      </trkpt>
      <trkpt lat="48.50504" lon="7.50082">
        <ele>188.57019374503</ele>
        <time>2022-04-27T09:12:54.330Z</time>
      </trkpt>
      <trkpt lat="48.50504" lon="7.50046">
        <ele>188.80461996779</ele>
        <time>2022-04-27T09:12:56.548Z</time>
      </trkpt>
      <trkpt lat="48.5049" lon="7.49984">
        <ele>188.98558975989</ele>
        <time>2022-04-27T09:12:58.773Z</time>
      </trkpt>
      <trkpt lat="48.50492" lon="7.49957">
        <ele>189.12048727379</ele>
        <time>2022-04-27T09:13:01.001Z</time>
      </trkpt>
      <trkpt lat="48.50511" lon="7.49917">
        <ele>189.15306441906</ele>
        <time>2022-04-27T09:13:03.234Z</time>
      </trkpt>
      <trkpt lat="48.50557" lon="7.49867">
        <ele>189.27098799706</ele>
        <time>2022-04-27T09:13:05.476Z</time>
      </trkpt>
      <trkpt lat="48.50621" lon="7.49811">
        <ele>189.32721342086</ele>
        <time>2022-04-27T09:13:07.730Z</time>
      </trkpt>
      <trkpt lat="48.50691" lon="7.49776">
        <ele>189.40281139939</ele>
        <time>2022-04-27T09:13:09.996Z</time>
      </trkpt>
      <trkpt lat="48.50773" lon="7.49759">
        <ele>189.3159292357</ele>
        <time>2022-04-27T09:13:12.275Z</time>
      </trkpt>
      <trkpt lat="48.51025" lon="7.49777">
        <ele>189.1474712786</ele>
        <time>2022-04-27T09:13:14.595Z</time>
      </trkpt>
      <trkpt lat="48.5104" lon="7.49788">
        <ele>188.90555437175</ele>
        <time>2022-04-27T09:13:16.917Z</time>
      </trkpt>
      <trkpt lat="48.51064" lon="7.49828">
        <ele>188.65705764327</ele>
        <time>2022-04-27T09:13:19.245Z</time>
      </trkpt>
      <trkpt lat="48.51081" lon="7.4984">
        <ele>188.29388820256</ele>
        <time>2022-04-27T09:13:21.576Z</time>
      </trkpt>
      <trkpt lat="48.51132" lon="7.49842">
        <ele>187.82581027615</ele>
        <time>2022-04-27T09:13:23.915Z</time>
      </trkpt>
      <trkpt lat="48.51148" lon="7.49831">
        <ele>187.34075755817</ele>
        <time>2022-04-27T09:13:26.257Z</time>
      </trkpt>
      <trkpt lat="48.51182" lon="7.49783">
        <ele>186.81128187183</ele>
        <time>2022-04-27T09:13:28.607Z</time>
      </trkpt>
      <trkpt lat="48.51205" lon="7.49775">
        <ele>186.15908361858</ele>
        <time>2022-04-27T09:13:30.960Z</time>
      </trkpt>
      <trkpt lat="48.51267" lon="7.49777">
        <ele>185.49885891786</ele>
        <time>2022-04-27T09:13:33.323Z</time>
      </trkpt>
      <trkpt lat="48.51281" lon="7.50372">
        <ele>184.7476902263</ele>
        <time>2022-04-27T09:13:35.750Z</time>
      </trkpt>
      <trkpt lat="48.51579" lon="7.50373">
        <ele>183.8129664032</ele>
        <time>2022-04-27T09:13:38.224Z</time>
      </trkpt>
      <trkpt lat="48.5194" lon="7.50375">
        <ele>182.68833484493</ele>
        <time>2022-04-27T09:13:40.756Z</time>
      </trkpt>
      <trkpt lat="48.52001" lon="7.50253">
        <ele>181.91268922966</ele>
        <time>2022-04-27T09:13:43.304Z</time>
      </trkpt>
      <trkpt lat="48.52012" lon="7.50251">
        <ele>181.18110202881</ele>
        <time>2022-04-27T09:13:45.854Z</time>
      </trkpt>
      <trkpt lat="48.52039" lon="7.5025">
        <ele>180.45769286945</ele>
        <time>2022-04-27T09:13:48.409Z</time>
      </trkpt>
      <trkpt lat="48.52054" lon="7.50251">
        <ele>179.70956706695</ele>
        <time>2022-04-27T09:13:50.966Z</time>
      </trkpt>
      <trkpt lat="48.52095" lon="7.5025">
        <ele>178.80486481275</ele>
        <time>2022-04-27T09:13:53.530Z</time>
      </trkpt>
      <trkpt lat="48.52136" lon="7.50251">
        <ele>178.08861803062</ele>
        <time>2022-04-27T09:13:56.100Z</time>
      </trkpt>
      <trkpt lat="48.52233" lon="7.50251">
        <ele>177.65059858993</ele>
        <time>2022-04-27T09:13:58.686Z</time>
      </trkpt>
      <trkpt lat="48.52253" lon="7.50254">
        <ele>177.08535917218</ele>
        <time>2022-04-27T09:14:01.275Z</time>
      </trkpt>
      <trkpt lat="48.52257" lon="7.50258">
        <ele>176.56377069322</ele>
        <time>2022-04-27T09:14:03.865Z</time>
      </trkpt>
      <trkpt lat="48.5226" lon="7.50264">
        <ele>176.09444586735</ele>
        <time>2022-04-27T09:14:06.456Z</time>
      </trkpt>
      <trkpt lat="48.52263" lon="7.50274">
        <ele>175.67708594558</ele>
        <time>2022-04-27T09:14:09.048Z</time>
      </trkpt>
      <trkpt lat="48.52262" lon="7.50288">
        <ele>175.31548883771</ele>
        <time>2022-04-27T09:14:11.641Z</time>
      </trkpt>
      <trkpt lat="48.52263" lon="7.50332">
        <ele>174.9970335367</ele>
        <time>2022-04-27T09:14:14.239Z</time>
      </trkpt>
      <trkpt lat="48.52263" lon="7.5035">
        <ele>174.73259109206</ele>
        <time>2022-04-27T09:14:16.839Z</time>
      </trkpt>
      <trkpt lat="48.52264" lon="7.50361">
        <ele>174.51889170431</ele>
        <time>2022-04-27T09:14:19.440Z</time>
      </trkpt>
      <trkpt lat="48.52266" lon="7.50367">
        <ele>174.35166713325</ele>
        <time>2022-04-27T09:14:22.042Z</time>
      </trkpt>
      <trkpt lat="48.52271" lon="7.50375">
        <ele>174.23358970198</ele>
        <time>2022-04-27T09:14:24.645Z</time>
      </trkpt>
      <trkpt lat="48.52275" lon="7.50384">
        <ele>174.15612738437</ele>
        <time>2022-04-27T09:14:27.249Z</time>
      </trkpt>
      <trkpt lat="48.52278" lon="7.50401">
        <ele>174.11259585902</ele>
        <time>2022-04-27T09:14:29.855Z</time>
      </trkpt>
      <trkpt lat="48.52277" lon="7.50413">
        <ele>174.09467267297</ele>
        <time>2022-04-27T09:14:32.462Z</time>
      </trkpt>
      <trkpt lat="48.52277" lon="7.50425">
        <ele>174.13242974498</ele>
        <time>2022-04-27T09:14:35.070Z</time>
      </trkpt>
      <trkpt lat="48.52281" lon="7.50437">
        <ele>174.19694593862</ele>
        <time>2022-04-27T09:14:37.680Z</time>
      </trkpt>
      <trkpt lat="48.52286" lon="7.50446">
        <ele>174.27458344766</ele>
        <time>2022-04-27T09:14:40.291Z</time>
      </trkpt>
      <trkpt lat="48.52293" lon="7.50453">
        <ele>174.3561230502</ele>
        <time>2022-04-27T09:14:42.903Z</time>
      </trkpt>
      <trkpt lat="48.52301" lon="7.50457">
        <ele>174.45599289803</ele>
        <time>2022-04-27T09:14:45.517Z</time>
      </trkpt>
      <trkpt lat="48.5231" lon="7.50456">
        <ele>174.58130254969</ele>
        <time>2022-04-27T09:14:48.132Z</time>
      </trkpt>
      <trkpt lat="48.52318" lon="7.50452">
        <ele>174.73537783105</ele>
        <time>2022-04-27T09:14:50.749Z</time>
      </trkpt>
      <trkpt lat="48.52321" lon="7.50449">
        <ele>174.90562335405</ele>
        <time>2022-04-27T09:14:53.366Z</time>
      </trkpt>
      <trkpt lat="48.52325" lon="7.50443">
        <ele>175.09037876847</ele>
        <time>2022-04-27T09:14:55.984Z</time>
      </trkpt>
      <trkpt lat="48.52329" lon="7.50434">
        <ele>175.30008942385</ele>
        <time>2022-04-27T09:14:58.603Z</time>
      </trkpt>
      <trkpt lat="48.52332" lon="7.50423">
        <ele>175.5355035702</ele>
        <time>2022-04-27T09:15:01.223Z</time>
      </trkpt>
      <trkpt lat="48.52332" lon="7.50412">
        <ele>175.77100204175</ele>
        <time>2022-04-27T09:15:03.845Z</time>
      </trkpt>
      <trkpt lat="48.5233" lon="7.50399">
        <ele>175.99695634947</ele>
        <time>2022-04-27T09:15:06.468Z</time>
      </trkpt>
      <trkpt lat="48.52326" lon="7.50388">
        <ele>176.22949166382</ele>
        <time>2022-04-27T09:15:09.092Z</time>
      </trkpt>
      <trkpt lat="48.52319" lon="7.50379">
        <ele>176.4675776211</ele>
        <time>2022-04-27T09:15:11.718Z</time>
      </trkpt>
      <trkpt lat="48.52318" lon="7.50362">
        <ele>176.71028580442</ele>
        <time>2022-04-27T09:15:14.346Z</time>
      </trkpt>
      <trkpt lat="48.52318" lon="7.50342">
        <ele>176.92540820756</ele>
        <time>2022-04-27T09:15:16.976Z</time>
      </trkpt>
      <trkpt lat="48.52328" lon="7.50244">
        <ele>177.16206724503</ele>
        <time>2022-04-27T09:15:19.616Z</time>
      </trkpt>
      <trkpt lat="48.52341" lon="7.50133">
        <ele>177.45888021252</ele>
        <time>2022-04-27T09:15:22.268Z</time>
      </trkpt>
      <trkpt lat="48.52347" lon="7.50065">
        <ele>177.74178323627</ele>
        <time>2022-04-27T09:15:24.928Z</time>
      </trkpt>
      <trkpt lat="48.5235" lon="7.50054">
        <ele>177.98826159363</ele>
        <time>2022-04-27T09:15:27.589Z</time>
      </trkpt>
      <trkpt lat="48.52358" lon="7.49986">
        <ele>178.26919097177</ele>
        <time>2022-04-27T09:15:30.257Z</time>
      </trkpt>
      <trkpt lat="48.52371" lon="7.49863">
        <ele>178.52970303104</ele>
        <time>2022-04-27T09:15:32.939Z</time>
      </trkpt>
      <trkpt lat="48.52377" lon="7.49838">
        <ele>178.85511948405</ele>
        <time>2022-04-27T09:15:35.623Z</time>
      </trkpt>
      <trkpt lat="48.52381" lon="7.49823">
        <ele>179.09967003364</ele>
        <time>2022-04-27T09:15:38.309Z</time>
      </trkpt>
      <trkpt lat="48.52385" lon="7.49818">
        <ele>179.3375571799</ele>
        <time>2022-04-27T09:15:40.996Z</time>
      </trkpt>
      <trkpt lat="48.52388" lon="7.49812">
        <ele>179.56521069684</ele>
        <time>2022-04-27T09:15:43.684Z</time>
      </trkpt>
      <trkpt lat="48.5239" lon="7.49806">
        <ele>179.77902046844</ele>
        <time>2022-04-27T09:15:46.372Z</time>
      </trkpt>
      <trkpt lat="48.52391" lon="7.49794">
        <ele>179.96560890296</ele>
        <time>2022-04-27T09:15:49.062Z</time>
      </trkpt>
      <trkpt lat="48.5239" lon="7.49789">
        <ele>180.13971964599</ele>
        <time>2022-04-27T09:15:51.752Z</time>
      </trkpt>
      <trkpt lat="48.52389" lon="7.49784">
        <ele>180.30196194672</ele>
        <time>2022-04-27T09:15:54.443Z</time>
      </trkpt>
      <trkpt lat="48.52382" lon="7.49771">
        <ele>180.42862822972</ele>
        <time>2022-04-27T09:15:57.136Z</time>
      </trkpt>
      <trkpt lat="48.52378" lon="7.49768">
        <ele>180.55675950095</ele>
        <time>2022-04-27T09:15:59.829Z</time>
      </trkpt>
      <trkpt lat="48.52377" lon="7.4975">
        <ele>180.68958561378</ele>
        <time>2022-04-27T09:16:02.524Z</time>
      </trkpt>
      <trkpt lat="48.52381" lon="7.49714">
        <ele>180.81715313581</ele>
        <time>2022-04-27T09:16:05.223Z</time>
      </trkpt>
      <trkpt lat="48.52382" lon="7.49685">
        <ele>180.94697488626</ele>
        <time>2022-04-27T09:16:07.925Z</time>
      </trkpt>
      <trkpt lat="48.52384" lon="7.49676">
        <ele>181.07442478109</ele>
        <time>2022-04-27T09:16:10.628Z</time>
      </trkpt>
      <trkpt lat="48.52392" lon="7.496">
        <ele>181.25131605657</ele>
        <time>2022-04-27T09:16:13.339Z</time>
      </trkpt>
      <trkpt lat="48.52397" lon="7.49571">
        <ele>181.35020549593</ele>
        <time>2022-04-27T09:16:16.054Z</time>
      </trkpt>
      <trkpt lat="48.524" lon="7.49557">
        <ele>181.46461174122</ele>
        <time>2022-04-27T09:16:18.770Z</time>
      </trkpt>
      <trkpt lat="48.52409" lon="7.4948">
        <ele>181.67230485518</ele>
        <time>2022-04-27T09:16:21.494Z</time>
      </trkpt>
      <trkpt lat="48.5241" lon="7.49462">
        <ele>181.81296187982</ele>
        <time>2022-04-27T09:16:24.220Z</time>
      </trkpt>
      <trkpt lat="48.52411" lon="7.49429">
        <ele>181.95559068858</ele>
        <time>2022-04-27T09:16:26.950Z</time>
      </trkpt>
      <trkpt lat="48.5242" lon="7.49348">
        <ele>182.16409520452</ele>
        <time>2022-04-27T09:16:29.689Z</time>
      </trkpt>
      <trkpt lat="48.52422" lon="7.49335">
        <ele>182.28804709065</ele>
        <time>2022-04-27T09:16:32.429Z</time>
      </trkpt>
      <trkpt lat="48.52426" lon="7.49297">
        <ele>182.33323821965</ele>
        <time>2022-04-27T09:16:35.173Z</time>
      </trkpt>
      <trkpt lat="48.52427" lon="7.49286">
        <ele>182.42045634712</ele>
        <time>2022-04-27T09:16:37.918Z</time>
      </trkpt>
      <trkpt lat="48.52433" lon="7.49229">
        <ele>182.49085168748</ele>
        <time>2022-04-27T09:16:40.670Z</time>
      </trkpt>
      <trkpt lat="48.52437" lon="7.49193">
        <ele>182.69105878476</ele>
        <time>2022-04-27T09:16:43.425Z</time>
      </trkpt>
      <trkpt lat="48.5244" lon="7.49162">
        <ele>182.84873578417</ele>
        <time>2022-04-27T09:16:46.184Z</time>
      </trkpt>
      <trkpt lat="48.52442" lon="7.49141">
        <ele>183.04105558878</ele>
        <time>2022-04-27T09:16:48.945Z</time>
      </trkpt>
      <trkpt lat="48.52443" lon="7.49129">
        <ele>183.19985253185</ele>
        <time>2022-04-27T09:16:51.707Z</time>
      </trkpt>
      <trkpt lat="48.52444" lon="7.49117">
        <ele>183.35717352783</ele>
        <time>2022-04-27T09:16:54.471Z</time>
      </trkpt>
      <trkpt lat="48.52444" lon="7.49113">
        <ele>183.51677703956</ele>
        <time>2022-04-27T09:16:57.235Z</time>
      </trkpt>
      <trkpt lat="48.52444" lon="7.49101">
        <ele>183.68064678244</ele>
        <time>2022-04-27T09:17:00.000Z</time>
      </trkpt>
      <trkpt lat="48.52442" lon="7.49069">
        <ele>183.87434613184</ele>
        <time>2022-04-27T09:17:02.769Z</time>
      </trkpt>
      <trkpt lat="48.52442" lon="7.49036">
        <ele>184.07513767633</ele>
        <time>2022-04-27T09:17:05.541Z</time>
      </trkpt>
      <trkpt lat="48.52441" lon="7.49021">
        <ele>184.24225161931</ele>
        <time>2022-04-27T09:17:08.315Z</time>
      </trkpt>
      <trkpt lat="48.52438" lon="7.48963">
        <ele>184.35533536902</ele>
        <time>2022-04-27T09:17:11.095Z</time>
      </trkpt>
      <trkpt lat="48.52435" lon="7.48914">
        <ele>184.52767691642</ele>
        <time>2022-04-27T09:17:13.880Z</time>
      </trkpt>
      <trkpt lat="48.52435" lon="7.48902">
        <ele>184.68125230797</ele>
        <time>2022-04-27T09:17:16.666Z</time>
      </trkpt>
      <trkpt lat="48.52434" lon="7.48827">
        <ele>184.89629120751</ele>
        <time>2022-04-27T09:17:19.460Z</time>
      </trkpt>
      <trkpt lat="48.52431" lon="7.48768">
        <ele>185.1205324968</ele>
        <time>2022-04-27T09:17:22.261Z</time>
      </trkpt>
      <trkpt lat="48.52431" lon="7.48758">
        <ele>185.27447531758</ele>
        <time>2022-04-27T09:17:25.063Z</time>
      </trkpt>
      <trkpt lat="48.52429" lon="7.48729">
        <ele>185.42445884375</ele>
        <time>2022-04-27T09:17:27.868Z</time>
      </trkpt>
      <trkpt lat="48.52432" lon="7.48695">
        <ele>185.59887746949</ele>
        <time>2022-04-27T09:17:30.676Z</time>
      </trkpt>
      <trkpt lat="48.5244" lon="7.48664">
        <ele>185.64760327014</ele>
        <time>2022-04-27T09:17:33.488Z</time>
      </trkpt>
      <trkpt lat="48.52453" lon="7.48632">
        <ele>185.7169052185</ele>
        <time>2022-04-27T09:17:36.304Z</time>
      </trkpt>
      <trkpt lat="48.52473" lon="7.48589">
        <ele>185.82590137267</ele>
        <time>2022-04-27T09:17:39.126Z</time>
      </trkpt>
      <trkpt lat="48.52473" lon="7.48582">
        <ele>185.89131253979</ele>
        <time>2022-04-27T09:17:41.948Z</time>
      </trkpt>
      <trkpt lat="48.52475" lon="7.48535">
        <ele>185.94005298964</ele>
        <time>2022-04-27T09:17:44.775Z</time>
      </trkpt>
      <trkpt lat="48.52473" lon="7.48493">
        <ele>185.98115280581</ele>
        <time>2022-04-27T09:17:47.607Z</time>
      </trkpt>
      <trkpt lat="48.52473" lon="7.48482">
        <ele>186.0040472037</ele>
        <time>2022-04-27T09:17:50.440Z</time>
      </trkpt>
      <trkpt lat="48.52466" lon="7.48377">
        <ele>185.95943029489</ele>
        <time>2022-04-27T09:17:53.284Z</time>
      </trkpt>
      <trkpt lat="48.52462" lon="7.48307">
        <ele>186.0098632998</ele>
        <time>2022-04-27T09:17:56.136Z</time>
      </trkpt>
      <trkpt lat="48.52462" lon="7.48277">
        <ele>186.00053593643</ele>
        <time>2022-04-27T09:17:58.991Z</time>
      </trkpt>
      <trkpt lat="48.52463" lon="7.48263">
        <ele>185.97583629239</ele>
        <time>2022-04-27T09:18:01.847Z</time>
      </trkpt>
      <trkpt lat="48.52464" lon="7.48249">
        <ele>185.94024131015</ele>
        <time>2022-04-27T09:18:04.705Z</time>
      </trkpt>
      <trkpt lat="48.52474" lon="7.48132">
        <ele>185.89603204358</ele>
        <time>2022-04-27T09:18:07.575Z</time>
      </trkpt>
      <trkpt lat="48.52475" lon="7.48123">
        <ele>185.84302513043</ele>
        <time>2022-04-27T09:18:10.446Z</time>
      </trkpt>
      <trkpt lat="48.52476" lon="7.48113">
        <ele>185.78288667357</ele>
        <time>2022-04-27T09:18:13.319Z</time>
      </trkpt>
      <trkpt lat="48.52486" lon="7.47969">
        <ele>185.66583105618</ele>
        <time>2022-04-27T09:18:16.207Z</time>
      </trkpt>
      <trkpt lat="48.52487" lon="7.47961">
        <ele>185.61362615256</ele>
        <time>2022-04-27T09:18:19.096Z</time>
      </trkpt>
      <trkpt lat="48.52487" lon="7.47951">
        <ele>185.54698537193</ele>
        <time>2022-04-27T09:18:21.986Z</time>
      </trkpt>
      <trkpt lat="48.52493" lon="7.47882">
        <ele>185.57441547607</ele>
        <time>2022-04-27T09:18:24.883Z</time>
      </trkpt>
      <trkpt lat="48.52498" lon="7.47848">
        <ele>185.53998040742</ele>
        <time>2022-04-27T09:18:27.784Z</time>
      </trkpt>
      <trkpt lat="48.52502" lon="7.47837">
        <ele>185.46578836612</ele>
        <time>2022-04-27T09:18:30.686Z</time>
      </trkpt>
      <trkpt lat="48.52578" lon="7.47672">
        <ele>185.37129574972</ele>
        <time>2022-04-27T09:18:33.610Z</time>
      </trkpt>
      <trkpt lat="48.52751" lon="7.47297">
        <ele>184.93323837221</ele>
        <time>2022-04-27T09:18:36.582Z</time>
      </trkpt>
      <trkpt lat="48.5283" lon="7.47124">
        <ele>185.05125462415</ele>
        <time>2022-04-27T09:18:39.577Z</time>
      </trkpt>
      <trkpt lat="48.52851" lon="7.47092">
        <ele>185.00273793468</ele>
        <time>2022-04-27T09:18:42.576Z</time>
      </trkpt>
      <trkpt lat="48.52872" lon="7.47052">
        <ele>184.97787377336</ele>
        <time>2022-04-27T09:18:45.581Z</time>
      </trkpt>
      <trkpt lat="48.52879" lon="7.47052">
        <ele>184.99988835022</ele>
        <time>2022-04-27T09:18:48.587Z</time>
      </trkpt>
      <trkpt lat="48.52885" lon="7.4705">
        <ele>185.04802495506</ele>
        <time>2022-04-27T09:18:51.594Z</time>
      </trkpt>
      <trkpt lat="48.52891" lon="7.47044">
        <ele>185.12676489976</ele>
        <time>2022-04-27T09:18:54.602Z</time>
      </trkpt>
      <trkpt lat="48.52896" lon="7.47036">
        <ele>185.23993174774</ele>
        <time>2022-04-27T09:18:57.611Z</time>
      </trkpt>
      <trkpt lat="48.52898" lon="7.47027">
        <ele>185.37806526232</ele>
        <time>2022-04-27T09:19:00.621Z</time>
      </trkpt>
      <trkpt lat="48.52899" lon="7.47016">
        <ele>185.54081948494</ele>
        <time>2022-04-27T09:19:03.632Z</time>
      </trkpt>
      <trkpt lat="48.52898" lon="7.47006">
        <ele>185.72652162675</ele>
        <time>2022-04-27T09:19:06.644Z</time>
      </trkpt>
      <trkpt lat="48.52895" lon="7.46997">
        <ele>185.94409293636</ele>
        <time>2022-04-27T09:19:09.658Z</time>
      </trkpt>
      <trkpt lat="48.52929" lon="7.46907">
        <ele>186.1943422516</ele>
        <time>2022-04-27T09:19:12.683Z</time>
      </trkpt>
      <trkpt lat="48.53005" lon="7.46742">
        <ele>186.51476301609</ele>
        <time>2022-04-27T09:19:15.729Z</time>
      </trkpt>
      <trkpt lat="48.53035" lon="7.46677">
        <ele>186.70708451038</ele>
        <time>2022-04-27T09:19:18.783Z</time>
      </trkpt>
      <trkpt lat="48.53125" lon="7.46483">
        <ele>187.35056998637</ele>
        <time>2022-04-27T09:19:21.862Z</time>
      </trkpt>
      <trkpt lat="48.53181" lon="7.46359">
        <ele>187.7015234493</ele>
        <time>2022-04-27T09:19:24.957Z</time>
      </trkpt>
      <trkpt lat="48.53193" lon="7.46335">
        <ele>187.97435869865</ele>
        <time>2022-04-27T09:19:28.056Z</time>
      </trkpt>
      <trkpt lat="48.53259" lon="7.46191">
        <ele>188.20667046692</ele>
        <time>2022-04-27T09:19:31.173Z</time>
      </trkpt>
      <trkpt lat="48.53268" lon="7.46179">
        <ele>188.49614952729</ele>
        <time>2022-04-27T09:19:34.292Z</time>
      </trkpt>
      <trkpt lat="48.53276" lon="7.46173">
        <ele>188.78008611231</ele>
        <time>2022-04-27T09:19:37.413Z</time>
      </trkpt>
      <trkpt lat="48.53283" lon="7.46168">
        <ele>189.0649224599</ele>
        <time>2022-04-27T09:19:40.535Z</time>
      </trkpt>
      <trkpt lat="48.53317" lon="7.46146">
        <ele>189.32587316971</ele>
        <time>2022-04-27T09:19:43.663Z</time>
      </trkpt>
      <trkpt lat="48.53324" lon="7.46141">
        <ele>189.58591269455</ele>
        <time>2022-04-27T09:19:46.792Z</time>
      </trkpt>
      <trkpt lat="48.53357" lon="7.46119">
        <ele>189.78080218568</ele>
        <time>2022-04-27T09:19:49.927Z</time>
      </trkpt>
      <trkpt lat="48.53363" lon="7.46115">
        <ele>190.02705735006</ele>
        <time>2022-04-27T09:19:53.063Z</time>
      </trkpt>
      <trkpt lat="48.53369" lon="7.46112">
        <ele>190.29104459987</ele>
        <time>2022-04-27T09:19:56.200Z</time>
      </trkpt>
      <trkpt lat="48.53372" lon="7.4611">
        <ele>190.54032493705</ele>
        <time>2022-04-27T09:19:59.337Z</time>
      </trkpt>
      <trkpt lat="48.53386" lon="7.46101">
        <ele>190.82545117172</ele>
        <time>2022-04-27T09:20:02.477Z</time>
      </trkpt>
      <trkpt lat="48.53402" lon="7.46092">
        <ele>191.07455125005</ele>
        <time>2022-04-27T09:20:05.620Z</time>
      </trkpt>
      <trkpt lat="48.53414" lon="7.46084">
        <ele>191.33519950296</ele>
        <time>2022-04-27T09:20:08.765Z</time>
      </trkpt>
      <trkpt lat="48.53549" lon="7.45998">
        <ele>191.28900324491</ele>
        <time>2022-04-27T09:20:11.933Z</time>
      </trkpt>
      <trkpt lat="48.53559" lon="7.45991">
        <ele>191.48918930691</ele>
        <time>2022-04-27T09:20:15.103Z</time>
      </trkpt>
      <trkpt lat="48.53602" lon="7.45966">
        <ele>191.73202912812</ele>
        <time>2022-04-27T09:20:18.280Z</time>
      </trkpt>
      <trkpt lat="48.53617" lon="7.45956">
        <ele>191.86472150316</ele>
        <time>2022-04-27T09:20:21.460Z</time>
      </trkpt>
      <trkpt lat="48.53625" lon="7.4595">
        <ele>191.98211861805</ele>
        <time>2022-04-27T09:20:24.641Z</time>
      </trkpt>
      <trkpt lat="48.53668" lon="7.45921">
        <ele>192.13343364832</ele>
        <time>2022-04-27T09:20:27.830Z</time>
      </trkpt>
      <trkpt lat="48.53672" lon="7.45919">
        <ele>192.25764721776</ele>
        <time>2022-04-27T09:20:31.020Z</time>
      </trkpt>
      <trkpt lat="48.53705" lon="7.45898">
        <ele>192.3592668785</ele>
        <time>2022-04-27T09:20:34.215Z</time>
      </trkpt>
      <trkpt lat="48.53709" lon="7.45895">
        <ele>192.45006169044</ele>
        <time>2022-04-27T09:20:37.411Z</time>
      </trkpt>
      <trkpt lat="48.53738" lon="7.45877">
        <ele>192.50750278634</ele>
        <time>2022-04-27T09:20:40.612Z</time>
      </trkpt>
      <trkpt lat="48.53756" lon="7.45866">
        <ele>192.64787874152</ele>
        <time>2022-04-27T09:20:43.816Z</time>
      </trkpt>
      <trkpt lat="48.53782" lon="7.4585">
        <ele>192.77963150505</ele>
        <time>2022-04-27T09:20:47.025Z</time>
      </trkpt>
      <trkpt lat="48.53787" lon="7.45846">
        <ele>192.88903120439</ele>
        <time>2022-04-27T09:20:50.235Z</time>
      </trkpt>
      <trkpt lat="48.53791" lon="7.45842">
        <ele>192.98757174771</ele>
        <time>2022-04-27T09:20:53.445Z</time>
      </trkpt>
      <trkpt lat="48.538" lon="7.45832">
        <ele>193.07253778577</ele>
        <time>2022-04-27T09:20:56.657Z</time>
      </trkpt>
      <trkpt lat="48.53807" lon="7.4582">
        <ele>193.15677092595</ele>
        <time>2022-04-27T09:20:59.871Z</time>
      </trkpt>
      <trkpt lat="48.53811" lon="7.45815">
        <ele>193.2444279936</ele>
        <time>2022-04-27T09:21:03.086Z</time>
      </trkpt>
      <trkpt lat="48.53812" lon="7.4581">
        <ele>193.32744033869</ele>
        <time>2022-04-27T09:21:06.301Z</time>
      </trkpt>
      <trkpt lat="48.53817" lon="7.45792">
        <ele>193.41751621333</ele>
        <time>2022-04-27T09:21:09.518Z</time>
      </trkpt>
      <trkpt lat="48.53821" lon="7.4578">
        <ele>193.50370903437</ele>
        <time>2022-04-27T09:21:12.737Z</time>
      </trkpt>
      <trkpt lat="48.53824" lon="7.4577">
        <ele>193.58799068473</ele>
        <time>2022-04-27T09:21:15.957Z</time>
      </trkpt>
      <trkpt lat="48.53825" lon="7.45765">
        <ele>193.66874065826</ele>
        <time>2022-04-27T09:21:19.177Z</time>
      </trkpt>
      <trkpt lat="48.53826" lon="7.45759">
        <ele>193.75083649507</ele>
        <time>2022-04-27T09:21:22.398Z</time>
      </trkpt>
      <trkpt lat="48.53828" lon="7.45752">
        <ele>193.83551008097</ele>
        <time>2022-04-27T09:21:25.620Z</time>
      </trkpt>
      <trkpt lat="48.5385" lon="7.45679">
        <ele>193.95549393531</ele>
        <time>2022-04-27T09:21:28.850Z</time>
      </trkpt>
      <trkpt lat="48.53857" lon="7.45643">
        <ele>194.02465422786</ele>
        <time>2022-04-27T09:21:32.084Z</time>
      </trkpt>
      <trkpt lat="48.53859" lon="7.45626">
        <ele>194.11728707477</ele>
        <time>2022-04-27T09:21:35.320Z</time>
      </trkpt>
      <trkpt lat="48.53858" lon="7.45611">
        <ele>194.23476531184</ele>
        <time>2022-04-27T09:21:38.558Z</time>
      </trkpt>
      <trkpt lat="48.53852" lon="7.45576">
        <ele>194.31588127772</ele>
        <time>2022-04-27T09:21:41.800Z</time>
      </trkpt>
      <trkpt lat="48.53851" lon="7.45571">
        <ele>194.4088157167</ele>
        <time>2022-04-27T09:21:45.042Z</time>
      </trkpt>
      <trkpt lat="48.53852" lon="7.45543">
        <ele>194.52948916896</ele>
        <time>2022-04-27T09:21:48.287Z</time>
      </trkpt>
      <trkpt lat="48.53852" lon="7.45532">
        <ele>194.63242765001</ele>
        <time>2022-04-27T09:21:51.533Z</time>
      </trkpt>
      <trkpt lat="48.53852" lon="7.45486">
        <ele>194.8521742301</ele>
        <time>2022-04-27T09:21:54.784Z</time>
      </trkpt>
      <trkpt lat="48.53851" lon="7.45454">
        <ele>194.96432277771</ele>
        <time>2022-04-27T09:21:58.039Z</time>
      </trkpt>
      <trkpt lat="48.53852" lon="7.45436">
        <ele>195.06631958811</ele>
        <time>2022-04-27T09:22:01.296Z</time>
      </trkpt>
      <trkpt lat="48.53852" lon="7.45406">
        <ele>195.13223796001</ele>
        <time>2022-04-27T09:22:04.556Z</time>
      </trkpt>
      <trkpt lat="48.53853" lon="7.45391">
        <ele>195.23571151069</ele>
        <time>2022-04-27T09:22:07.817Z</time>
      </trkpt>
      <trkpt lat="48.53853" lon="7.45368">
        <ele>195.39530474094</ele>
        <time>2022-04-27T09:22:11.081Z</time>
      </trkpt>
      <trkpt lat="48.53853" lon="7.45342">
        <ele>195.60647859825</ele>
        <time>2022-04-27T09:22:14.348Z</time>
      </trkpt>
      <trkpt lat="48.53855" lon="7.45315">
        <ele>195.85209157806</ele>
        <time>2022-04-27T09:22:17.617Z</time>
      </trkpt>
      <trkpt lat="48.53856" lon="7.45308">
        <ele>196.05358836279</ele>
        <time>2022-04-27T09:22:20.887Z</time>
      </trkpt>
      <trkpt lat="48.53866" lon="7.45282">
        <ele>196.30246613495</ele>
        <time>2022-04-27T09:22:24.160Z</time>
      </trkpt>
      <trkpt lat="48.53907" lon="7.45228">
        <ele>196.39534341042</ele>
        <time>2022-04-27T09:22:27.442Z</time>
      </trkpt>
      <trkpt lat="48.53912" lon="7.4522">
        <ele>196.62457138055</ele>
        <time>2022-04-27T09:22:30.725Z</time>
      </trkpt>
      <trkpt lat="48.53916" lon="7.45207">
        <ele>196.90356273893</ele>
        <time>2022-04-27T09:22:34.010Z</time>
      </trkpt>
      <trkpt lat="48.53919" lon="7.4519">
        <ele>197.22607039413</ele>
        <time>2022-04-27T09:22:37.297Z</time>
      </trkpt>
      <trkpt lat="48.53921" lon="7.45155">
        <ele>197.57097720881</ele>
        <time>2022-04-27T09:22:40.587Z</time>
      </trkpt>
      <trkpt lat="48.53923" lon="7.45117">
        <ele>197.94199664074</ele>
        <time>2022-04-27T09:22:43.881Z</time>
      </trkpt>
      <trkpt lat="48.53923" lon="7.45108">
        <ele>198.31741753116</ele>
        <time>2022-04-27T09:22:47.176Z</time>
      </trkpt>
      <trkpt lat="48.53923" lon="7.45096">
        <ele>198.70803535007</ele>
        <time>2022-04-27T09:22:50.473Z</time>
      </trkpt>
      <trkpt lat="48.53924" lon="7.45044">
        <ele>199.05077347682</ele>
        <time>2022-04-27T09:22:53.775Z</time>
      </trkpt>
      <trkpt lat="48.53923" lon="7.45022">
        <ele>199.45366452406</ele>
        <time>2022-04-27T09:22:57.080Z</time>
      </trkpt>
      <trkpt lat="48.53923" lon="7.44996">
        <ele>199.90999744778</ele>
        <time>2022-04-27T09:23:00.387Z</time>
      </trkpt>
      <trkpt lat="48.53923" lon="7.44937">
        <ele>200.50023779702</ele>
        <time>2022-04-27T09:23:03.701Z</time>
      </trkpt>
      <trkpt lat="48.53925" lon="7.44916">
        <ele>200.98536626857</ele>
        <time>2022-04-27T09:23:07.017Z</time>
      </trkpt>
      <trkpt lat="48.53927" lon="7.44767">
        <ele>201.51658133807</ele>
        <time>2022-04-27T09:23:10.349Z</time>
      </trkpt>
      <trkpt lat="48.53928" lon="7.44654">
        <ele>202.05397315156</ele>
        <time>2022-04-27T09:23:13.693Z</time>
      </trkpt>
      <trkpt lat="48.53929" lon="7.44596">
        <ele>202.633279003</ele>
        <time>2022-04-27T09:23:17.043Z</time>
      </trkpt>
      <trkpt lat="48.53931" lon="7.44365">
        <ele>203.55721767359</ele>
        <time>2022-04-27T09:23:20.417Z</time>
      </trkpt>
      <trkpt lat="48.53932" lon="7.44146">
        <ele>203.97201937026</ele>
        <time>2022-04-27T09:23:23.815Z</time>
      </trkpt>
      <trkpt lat="48.53942" lon="7.44078">
        <ele>204.66079262455</ele>
        <time>2022-04-27T09:23:27.220Z</time>
      </trkpt>
      <trkpt lat="48.53959" lon="7.44009">
        <ele>205.26348127918</ele>
        <time>2022-04-27T09:23:30.633Z</time>
      </trkpt>
      <trkpt lat="48.5396" lon="7.43991">
        <ele>205.59357798817</ele>
        <time>2022-04-27T09:23:34.048Z</time>
      </trkpt>
      <trkpt lat="48.53963" lon="7.43991">
        <ele>206.02105567669</ele>
        <time>2022-04-27T09:23:37.463Z</time>
      </trkpt>
      <trkpt lat="48.53965" lon="7.43989">
        <ele>206.39490883144</ele>
        <time>2022-04-27T09:23:40.879Z</time>
      </trkpt>
      <trkpt lat="48.53969" lon="7.43983">
        <ele>206.73387302085</ele>
        <time>2022-04-27T09:23:44.296Z</time>
      </trkpt>
      <trkpt lat="48.5397" lon="7.43979">
        <ele>206.96191972663</ele>
        <time>2022-04-27T09:23:47.713Z</time>
      </trkpt>
      <trkpt lat="48.53968" lon="7.43971">
        <ele>207.08158393023</ele>
        <time>2022-04-27T09:23:51.131Z</time>
      </trkpt>
      <trkpt lat="48.53966" lon="7.43968">
        <ele>207.15561127394</ele>
        <time>2022-04-27T09:23:54.550Z</time>
      </trkpt>
      <trkpt lat="48.53975" lon="7.43955">
        <ele>207.28545463595</ele>
        <time>2022-04-27T09:23:57.971Z</time>
      </trkpt>
      <trkpt lat="48.53999" lon="7.43884">
        <ele>207.00245414968</ele>
        <time>2022-04-27T09:24:01.400Z</time>
      </trkpt>
      <trkpt lat="48.54014" lon="7.43844">
        <ele>207.03771642165</ele>
        <time>2022-04-27T09:24:04.834Z</time>
      </trkpt>
      <trkpt lat="48.54027" lon="7.43806">
        <ele>206.94268660286</ele>
        <time>2022-04-27T09:24:08.272Z</time>
      </trkpt>
      <trkpt lat="48.54041" lon="7.4378">
        <ele>206.91953893004</ele>
        <time>2022-04-27T09:24:11.714Z</time>
      </trkpt>
      <trkpt lat="48.54069" lon="7.43737">
        <ele>206.87149369843</ele>
        <time>2022-04-27T09:24:15.162Z</time>
      </trkpt>
      <trkpt lat="48.54185" lon="7.43624">
        <ele>206.74315843124</ele>
        <time>2022-04-27T09:24:18.633Z</time>
      </trkpt>
      <trkpt lat="48.54219" lon="7.43584">
        <ele>206.72638880649</ele>
        <time>2022-04-27T09:24:22.111Z</time>
      </trkpt>
      <trkpt lat="48.54235" lon="7.43563">
        <ele>206.60247376041</ele>
        <time>2022-04-27T09:24:25.592Z</time>
      </trkpt>
      <trkpt lat="48.54248" lon="7.43543">
        <ele>206.52678424035</ele>
        <time>2022-04-27T09:24:29.076Z</time>
      </trkpt>
      <trkpt lat="48.54258" lon="7.43521">
        <ele>206.40835173108</ele>
        <time>2022-04-27T09:24:32.563Z</time>
      </trkpt>
      <trkpt lat="48.54263" lon="7.43501">
        <ele>206.28584044325</ele>
        <time>2022-04-27T09:24:36.052Z</time>
      </trkpt>
      <trkpt lat="48.54266" lon="7.43465">
        <ele>206.18600303783</ele>
        <time>2022-04-27T09:24:39.545Z</time>
      </trkpt>
      <trkpt lat="48.54269" lon="7.43417">
        <ele>206.13174448402</ele>
        <time>2022-04-27T09:24:43.043Z</time>
      </trkpt>
      <trkpt lat="48.54276" lon="7.43306">
        <ele>206.09325165398</ele>
        <time>2022-04-27T09:24:46.553Z</time>
      </trkpt>
      <trkpt lat="48.5428" lon="7.43257">
        <ele>206.1016826021</ele>
        <time>2022-04-27T09:24:50.068Z</time>
      </trkpt>
      <trkpt lat="48.54297" lon="7.43134">
        <ele>205.93712814988</ele>
        <time>2022-04-27T09:24:53.596Z</time>
      </trkpt>
      <trkpt lat="48.54298" lon="7.43109">
        <ele>205.91243681608</ele>
        <time>2022-04-27T09:24:57.127Z</time>
      </trkpt>
      <trkpt lat="48.54296" lon="7.43055">
        <ele>205.84285143389</ele>
        <time>2022-04-27T09:25:00.664Z</time>
      </trkpt>
      <trkpt lat="48.5429" lon="7.42999">
        <ele>205.76644460255</ele>
        <time>2022-04-27T09:25:04.207Z</time>
      </trkpt>
      <trkpt lat="48.54289" lon="7.42983">
        <ele>205.71364033124</ele>
        <time>2022-04-27T09:25:07.752Z</time>
      </trkpt>
      <trkpt lat="48.54288" lon="7.42932">
        <ele>205.6615135193</ele>
        <time>2022-04-27T09:25:11.302Z</time>
      </trkpt>
      <trkpt lat="48.54287" lon="7.42913">
        <ele>205.5485020743</ele>
        <time>2022-04-27T09:25:14.854Z</time>
      </trkpt>
      <trkpt lat="48.54279" lon="7.4284">
        <ele>205.42175992536</ele>
        <time>2022-04-27T09:25:18.414Z</time>
      </trkpt>
      <trkpt lat="48.54271" lon="7.428">
        <ele>205.30558249252</ele>
        <time>2022-04-27T09:25:21.978Z</time>
      </trkpt>
      <trkpt lat="48.54271" lon="7.42797">
        <ele>205.19226976158</ele>
        <time>2022-04-27T09:25:25.543Z</time>
      </trkpt>
      <trkpt lat="48.54257" lon="7.42741">
        <ele>205.01733353856</ele>
        <time>2022-04-27T09:25:29.114Z</time>
      </trkpt>
      <trkpt lat="48.54254" lon="7.42731">
        <ele>204.87904380401</ele>
        <time>2022-04-27T09:25:32.686Z</time>
      </trkpt>
      <trkpt lat="48.5425" lon="7.42725">
        <ele>204.73454427436</ele>
        <time>2022-04-27T09:25:36.259Z</time>
      </trkpt>
      <trkpt lat="48.54242" lon="7.42721">
        <ele>204.59343138527</ele>
        <time>2022-04-27T09:25:39.833Z</time>
      </trkpt>
      <trkpt lat="48.54232" lon="7.42716">
        <ele>204.43608216132</ele>
        <time>2022-04-27T09:25:43.409Z</time>
      </trkpt>
      <trkpt lat="48.54218" lon="7.42712">
        <ele>204.28204764319</ele>
        <time>2022-04-27T09:25:46.987Z</time>
      </trkpt>
      <trkpt lat="48.54216" lon="7.42712">
        <ele>204.11933855112</ele>
        <time>2022-04-27T09:25:50.566Z</time>
      </trkpt>
      <trkpt lat="48.54191" lon="7.42708">
        <ele>203.94482082658</ele>
        <time>2022-04-27T09:25:54.149Z</time>
      </trkpt>
      <trkpt lat="48.5419" lon="7.42703">
        <ele>203.75927677317</ele>
        <time>2022-04-27T09:25:57.732Z</time>
      </trkpt>
      <trkpt lat="48.54186" lon="7.42688">
        <ele>203.5729515453</ele>
        <time>2022-04-27T09:26:01.317Z</time>
      </trkpt>
      <trkpt lat="48.54182" lon="7.4267">
        <ele>203.38516288198</ele>
        <time>2022-04-27T09:26:04.904Z</time>
      </trkpt>
      <trkpt lat="48.5418" lon="7.42662">
        <ele>203.16706340958</ele>
        <time>2022-04-27T09:26:08.492Z</time>
      </trkpt>
      <trkpt lat="48.54177" lon="7.42617">
        <ele>202.91306647657</ele>
        <time>2022-04-27T09:26:12.085Z</time>
      </trkpt>
      <trkpt lat="48.54174" lon="7.42598">
        <ele>202.64542181914</ele>
        <time>2022-04-27T09:26:15.680Z</time>
      </trkpt>
      <trkpt lat="48.54169" lon="7.42562">
        <ele>202.38247619529</ele>
        <time>2022-04-27T09:26:19.279Z</time>
      </trkpt>
      <trkpt lat="48.54168" lon="7.42557">
        <ele>202.1379255968</ele>
        <time>2022-04-27T09:26:22.878Z</time>
      </trkpt>
      <trkpt lat="48.54163" lon="7.42526">
        <ele>201.87919818327</ele>
        <time>2022-04-27T09:26:26.481Z</time>
      </trkpt>
      <trkpt lat="48.54161" lon="7.42513">
        <ele>201.62475143626</ele>
        <time>2022-04-27T09:26:30.085Z</time>
      </trkpt>
      <trkpt lat="48.54158" lon="7.42488">
        <ele>201.36814844638</ele>
        <time>2022-04-27T09:26:33.692Z</time>
      </trkpt>
      <trkpt lat="48.54157" lon="7.42478">
        <ele>201.10264201849</ele>
        <time>2022-04-27T09:26:37.300Z</time>
      </trkpt>
      <trkpt lat="48.54158" lon="7.42488">
        <ele>201.36814844638</ele>
        <time>2022-04-27T09:26:40.909Z</time>
      </trkpt>
      <trkpt lat="48.54161" lon="7.42513">
        <ele>201.62475143626</ele>
        <time>2022-04-27T09:26:44.521Z</time>
      </trkpt>
      <trkpt lat="48.54095" lon="7.42532">
        <ele>200.25177317489</ele>
        <time>2022-04-27T09:26:48.144Z</time>
      </trkpt>
      <trkpt lat="48.54078" lon="7.4253">
        <ele>200.04020259721</ele>
        <time>2022-04-27T09:26:51.769Z</time>
      </trkpt>
      <trkpt lat="48.54062" lon="7.42529">
        <ele>199.85766455599</ele>
        <time>2022-04-27T09:26:55.397Z</time>
      </trkpt>
      <trkpt lat="48.54019" lon="7.42529">
        <ele>199.68656856155</ele>
        <time>2022-04-27T09:26:59.032Z</time>
      </trkpt>
      <trkpt lat="48.53982" lon="7.42529">
        <ele>199.660707997</ele>
        <time>2022-04-27T09:27:02.673Z</time>
      </trkpt>
      <trkpt lat="48.53977" lon="7.42529">
        <ele>199.56746585606</ele>
        <time>2022-04-27T09:27:06.314Z</time>
      </trkpt>
      <trkpt lat="48.53954" lon="7.42528">
        <ele>199.4216920632</ele>
        <time>2022-04-27T09:27:09.959Z</time>
      </trkpt>
      <trkpt lat="48.53893" lon="7.42525">
        <ele>199.29233390831</ele>
        <time>2022-04-27T09:27:13.614Z</time>
      </trkpt>
      <trkpt lat="48.53876" lon="7.42522">
        <ele>199.27084190028</ele>
        <time>2022-04-27T09:27:17.272Z</time>
      </trkpt>
      <trkpt lat="48.53845" lon="7.42517">
        <ele>199.30790772354</ele>
        <time>2022-04-27T09:27:20.935Z</time>
      </trkpt>
      <trkpt lat="48.53835" lon="7.42513">
        <ele>199.36619454505</ele>
        <time>2022-04-27T09:27:24.599Z</time>
      </trkpt>
      <trkpt lat="48.53821" lon="7.42507">
        <ele>199.43354077285</ele>
        <time>2022-04-27T09:27:28.266Z</time>
      </trkpt>
      <trkpt lat="48.5381" lon="7.42495">
        <ele>199.5433263998</ele>
        <time>2022-04-27T09:27:31.935Z</time>
      </trkpt>
      <trkpt lat="48.53799" lon="7.4247">
        <ele>199.69227770809</ele>
        <time>2022-04-27T09:27:35.607Z</time>
      </trkpt>
      <trkpt lat="48.53775" lon="7.42372">
        <ele>199.95462520699</ele>
        <time>2022-04-27T09:27:39.290Z</time>
      </trkpt>
      <trkpt lat="48.53767" lon="7.42353">
        <ele>200.14171500308</ele>
        <time>2022-04-27T09:27:42.975Z</time>
      </trkpt>
      <trkpt lat="48.5376" lon="7.42341">
        <ele>200.34607100429</ele>
        <time>2022-04-27T09:27:46.662Z</time>
      </trkpt>
      <trkpt lat="48.53752" lon="7.42333">
        <ele>200.56391532551</ele>
        <time>2022-04-27T09:27:50.351Z</time>
      </trkpt>
      <trkpt lat="48.53741" lon="7.42329">
        <ele>200.78699902297</ele>
        <time>2022-04-27T09:27:54.041Z</time>
      </trkpt>
      <trkpt lat="48.5372" lon="7.42328">
        <ele>201.02472901557</ele>
        <time>2022-04-27T09:27:57.735Z</time>
      </trkpt>
      <trkpt lat="48.53677" lon="7.42328">
        <ele>201.35094424421</ele>
        <time>2022-04-27T09:28:01.436Z</time>
      </trkpt>
      <trkpt lat="48.53659" lon="7.42328">
        <ele>201.62088259113</ele>
        <time>2022-04-27T09:28:05.140Z</time>
      </trkpt>
      <trkpt lat="48.53646" lon="7.42331">
        <ele>201.8978438351</ele>
        <time>2022-04-27T09:28:08.846Z</time>
      </trkpt>
      <trkpt lat="48.53626" lon="7.4234">
        <ele>202.14589392937</ele>
        <time>2022-04-27T09:28:12.555Z</time>
      </trkpt>
      <trkpt lat="48.53607" lon="7.42359">
        <ele>202.40113977383</ele>
        <time>2022-04-27T09:28:16.268Z</time>
      </trkpt>
      <trkpt lat="48.53592" lon="7.42382">
        <ele>202.48280514325</ele>
        <time>2022-04-27T09:28:19.984Z</time>
      </trkpt>
      <trkpt lat="48.53587" lon="7.42394">
        <ele>202.59097868771</ele>
        <time>2022-04-27T09:28:23.702Z</time>
      </trkpt>
      <trkpt lat="48.53575" lon="7.42432">
        <ele>202.55716201282</ele>
        <time>2022-04-27T09:28:27.424Z</time>
      </trkpt>
      <trkpt lat="48.53562" lon="7.4248">
        <ele>202.63076689552</ele>
        <time>2022-04-27T09:28:31.152Z</time>
      </trkpt>
      <trkpt lat="48.53551" lon="7.425">
        <ele>202.68014455058</ele>
        <time>2022-04-27T09:28:34.882Z</time>
      </trkpt>
      <trkpt lat="48.53545" lon="7.42509">
        <ele>202.72832380369</ele>
        <time>2022-04-27T09:28:38.614Z</time>
      </trkpt>
      <trkpt lat="48.53539" lon="7.42516">
        <ele>202.74518553977</ele>
        <time>2022-04-27T09:28:42.347Z</time>
      </trkpt>
      <trkpt lat="48.53529" lon="7.42504">
        <ele>202.69602750843</ele>
        <time>2022-04-27T09:28:46.082Z</time>
      </trkpt>
      <trkpt lat="48.53498" lon="7.42471">
        <ele>202.58056634921</ele>
        <time>2022-04-27T09:28:49.823Z</time>
      </trkpt>
      <trkpt lat="48.53454" lon="7.42431">
        <ele>202.56549565967</ele>
        <time>2022-04-27T09:28:53.572Z</time>
      </trkpt>
      <trkpt lat="48.53441" lon="7.42415">
        <ele>202.44853689764</ele>
        <time>2022-04-27T09:28:57.324Z</time>
      </trkpt>
      <trkpt lat="48.53434" lon="7.42405">
        <ele>202.30155678887</ele>
        <time>2022-04-27T09:29:01.078Z</time>
      </trkpt>
      <trkpt lat="48.534" lon="7.42352">
        <ele>202.20730414048</ele>
        <time>2022-04-27T09:29:04.839Z</time>
      </trkpt>
      <trkpt lat="48.5339" lon="7.42336">
        <ele>202.06973020076</ele>
        <time>2022-04-27T09:29:08.603Z</time>
      </trkpt>
      <trkpt lat="48.53385" lon="7.42328">
        <ele>201.8550702294</ele>
        <time>2022-04-27T09:29:12.368Z</time>
      </trkpt>
      <trkpt lat="48.53379" lon="7.4232">
        <ele>201.59808246044</ele>
        <time>2022-04-27T09:29:16.134Z</time>
      </trkpt>
      <trkpt lat="48.53355" lon="7.42299">
        <ele>201.30479875303</ele>
        <time>2022-04-27T09:29:19.905Z</time>
      </trkpt>
      <trkpt lat="48.53346" lon="7.42292">
        <ele>200.93916361342</ele>
        <time>2022-04-27T09:29:23.677Z</time>
      </trkpt>
      <trkpt lat="48.53327" lon="7.42279">
        <ele>200.53118901732</ele>
        <time>2022-04-27T09:29:27.452Z</time>
      </trkpt>
      <trkpt lat="48.53324" lon="7.42277">
        <ele>200.1471097909</ele>
        <time>2022-04-27T09:29:31.228Z</time>
      </trkpt>
      <trkpt lat="48.53307" lon="7.42265">
        <ele>199.75181163781</ele>
        <time>2022-04-27T09:29:35.007Z</time>
      </trkpt>
      <trkpt lat="48.533" lon="7.4226">
        <ele>199.33702797557</ele>
        <time>2022-04-27T09:29:38.787Z</time>
      </trkpt>
      <trkpt lat="48.53297" lon="7.42258">
        <ele>198.9280864439</ele>
        <time>2022-04-27T09:29:42.568Z</time>
      </trkpt>
      <trkpt lat="48.53281" lon="7.42238">
        <ele>198.52180680274</ele>
        <time>2022-04-27T09:29:46.352Z</time>
      </trkpt>
      <trkpt lat="48.53272" lon="7.42214">
        <ele>198.19929004513</ele>
        <time>2022-04-27T09:29:50.139Z</time>
      </trkpt>
      <trkpt lat="48.53268" lon="7.42191">
        <ele>197.89420529791</ele>
        <time>2022-04-27T09:29:53.929Z</time>
      </trkpt>
      <trkpt lat="48.53269" lon="7.42171">
        <ele>197.57036937371</ele>
        <time>2022-04-27T09:29:57.721Z</time>
      </trkpt>
      <trkpt lat="48.5327" lon="7.42156">
        <ele>197.28887012914</ele>
        <time>2022-04-27T09:30:01.514Z</time>
      </trkpt>
      <trkpt lat="48.53299" lon="7.41959">
        <ele>196.99715055733</ele>
        <time>2022-04-27T09:30:05.329Z</time>
      </trkpt>
      <trkpt lat="48.533" lon="7.41938">
        <ele>196.84759405642</ele>
        <time>2022-04-27T09:30:09.146Z</time>
      </trkpt>
      <trkpt lat="48.53295" lon="7.41914">
        <ele>196.78219985009</ele>
        <time>2022-04-27T09:30:12.966Z</time>
      </trkpt>
      <trkpt lat="48.53288" lon="7.41897">
        <ele>196.78057912359</ele>
        <time>2022-04-27T09:30:16.788Z</time>
      </trkpt>
      <trkpt lat="48.53283" lon="7.41891">
        <ele>196.91267158226</ele>
        <time>2022-04-27T09:30:20.611Z</time>
      </trkpt>
      <trkpt lat="48.53268" lon="7.41879">
        <ele>197.16035397851</ele>
        <time>2022-04-27T09:30:24.436Z</time>
      </trkpt>
      <trkpt lat="48.53248" lon="7.41875">
        <ele>197.56196691278</ele>
        <time>2022-04-27T09:30:28.265Z</time>
      </trkpt>
      <trkpt lat="48.53042" lon="7.41861">
        <ele>198.42926326347</ele>
        <time>2022-04-27T09:30:32.127Z</time>
      </trkpt>
      <trkpt lat="48.53023" lon="7.41857">
        <ele>199.16079367914</ele>
        <time>2022-04-27T09:30:35.992Z</time>
      </trkpt>
      <trkpt lat="48.53002" lon="7.41849">
        <ele>200.08215227898</ele>
        <time>2022-04-27T09:30:39.860Z</time>
      </trkpt>
      <trkpt lat="48.52972" lon="7.41825">
        <ele>201.18106241273</ele>
        <time>2022-04-27T09:30:43.734Z</time>
      </trkpt>
      <trkpt lat="48.52956" lon="7.41806">
        <ele>202.42147026038</ele>
        <time>2022-04-27T09:30:47.611Z</time>
      </trkpt>
      <trkpt lat="48.52942" lon="7.41783">
        <ele>203.91773029999</ele>
        <time>2022-04-27T09:30:51.491Z</time>
      </trkpt>
      <trkpt lat="48.52899" lon="7.4169">
        <ele>205.84885680282</ele>
        <time>2022-04-27T09:30:55.383Z</time>
      </trkpt>
      <trkpt lat="48.52895" lon="7.41681">
        <ele>207.76885978814</ele>
        <time>2022-04-27T09:30:59.277Z</time>
      </trkpt>
      <trkpt lat="48.52868" lon="7.41622">
        <ele>210.15544599548</ele>
        <time>2022-04-27T09:31:03.178Z</time>
      </trkpt>
      <trkpt lat="48.52821" lon="7.41522">
        <ele>212.80723591088</ele>
        <time>2022-04-27T09:31:07.092Z</time>
      </trkpt>
      <trkpt lat="48.52815" lon="7.41509">
        <ele>215.40969925541</ele>
        <time>2022-04-27T09:31:11.008Z</time>
      </trkpt>
      <trkpt lat="48.52801" lon="7.41479">
        <ele>218.2835312332</ele>
        <time>2022-04-27T09:31:14.928Z</time>
      </trkpt>
      <trkpt lat="48.52791" lon="7.41462">
        <ele>221.34390205772</ele>
        <time>2022-04-27T09:31:18.850Z</time>
      </trkpt>
      <trkpt lat="48.52778" lon="7.41442">
        <ele>224.63697226429</ele>
        <time>2022-04-27T09:31:22.775Z</time>
      </trkpt>
      <trkpt lat="48.52755" lon="7.41419">
        <ele>228.17426237816</ele>
        <time>2022-04-27T09:31:26.705Z</time>
      </trkpt>
      <trkpt lat="48.52747" lon="7.41414">
        <ele>231.85120403135</ele>
        <time>2022-04-27T09:31:30.636Z</time>
      </trkpt>
      <trkpt lat="48.52738" lon="7.41408">
        <ele>235.73906651895</ele>
        <time>2022-04-27T09:31:34.569Z</time>
      </trkpt>
      <trkpt lat="48.52719" lon="7.414">
        <ele>239.83283559726</ele>
        <time>2022-04-27T09:31:38.505Z</time>
      </trkpt>
      <trkpt lat="48.52688" lon="7.41393">
        <ele>244.10325053163</ele>
        <time>2022-04-27T09:31:42.446Z</time>
      </trkpt>
      <trkpt lat="48.526" lon="7.41385">
        <ele>248.89538843486</ele>
        <time>2022-04-27T09:31:46.401Z</time>
      </trkpt>
      <trkpt lat="48.52565" lon="7.41377">
        <ele>253.70282911234</ele>
        <time>2022-04-27T09:31:50.362Z</time>
      </trkpt>
      <trkpt lat="48.52187" lon="7.41258">
        <ele>259.15762983543</ele>
        <time>2022-04-27T09:31:54.384Z</time>
      </trkpt>
      <trkpt lat="48.52051" lon="7.41215">
        <ele>264.30860674651</ele>
        <time>2022-04-27T09:31:58.429Z</time>
      </trkpt>
      <trkpt lat="48.52041" lon="7.4121">
        <ele>269.03270689217</ele>
        <time>2022-04-27T09:32:02.475Z</time>
      </trkpt>
      <trkpt lat="48.52024" lon="7.41199">
        <ele>273.77785730139</ele>
        <time>2022-04-27T09:32:06.524Z</time>
      </trkpt>
      <trkpt lat="48.52001" lon="7.41177">
        <ele>278.67544719559</ele>
        <time>2022-04-27T09:32:10.578Z</time>
      </trkpt>
      <trkpt lat="48.51983" lon="7.41159">
        <ele>283.46415353651</ele>
        <time>2022-04-27T09:32:14.635Z</time>
      </trkpt>
      <trkpt lat="48.51916" lon="7.41099">
        <ele>287.89379733813</ele>
        <time>2022-04-27T09:32:18.705Z</time>
      </trkpt>
      <trkpt lat="48.51595" lon="7.40814">
        <ele>293.68908171059</ele>
        <time>2022-04-27T09:32:22.834Z</time>
      </trkpt>
      <trkpt lat="48.51535" lon="7.4076">
        <ele>298.0330929913</ele>
        <time>2022-04-27T09:32:26.975Z</time>
      </trkpt>
      <trkpt lat="48.51499" lon="7.40725">
        <ele>302.38749213048</ele>
        <time>2022-04-27T09:32:31.122Z</time>
      </trkpt>
      <trkpt lat="48.51478" lon="7.40704">
        <ele>306.17244099498</ele>
        <time>2022-04-27T09:32:35.273Z</time>
      </trkpt>
      <trkpt lat="48.51344" lon="7.40532">
        <ele>309.79927122024</ele>
        <time>2022-04-27T09:32:39.453Z</time>
      </trkpt>
      <trkpt lat="48.51168" lon="7.40376">
        <ele>312.39239043373</ele>
        <time>2022-04-27T09:32:43.665Z</time>
      </trkpt>
      <trkpt lat="48.51071" lon="7.40276">
        <ele>314.85958257992</ele>
        <time>2022-04-27T09:32:47.896Z</time>
      </trkpt>
      <trkpt lat="48.50911" lon="7.40112">
        <ele>317.80347639926</ele>
        <time>2022-04-27T09:32:52.158Z</time>
      </trkpt>
      <trkpt lat="48.50875" lon="7.40061">
        <ele>319.73795952803</ele>
        <time>2022-04-27T09:32:56.428Z</time>
      </trkpt>
      <trkpt lat="48.50842" lon="7.40007">
        <ele>321.15342641737</ele>
        <time>2022-04-27T09:33:00.706Z</time>
      </trkpt>
      <trkpt lat="48.50817" lon="7.39953">
        <ele>322.14116636225</ele>
        <time>2022-04-27T09:33:04.991Z</time>
      </trkpt>
      <trkpt lat="48.50748" lon="7.39788">
        <ele>322.66628059527</ele>
        <time>2022-04-27T09:33:09.297Z</time>
      </trkpt>
      <trkpt lat="48.50713" lon="7.39722">
        <ele>322.52319064141</ele>
        <time>2022-04-27T09:33:13.612Z</time>
      </trkpt>
      <trkpt lat="48.5061" lon="7.39585">
        <ele>322.23637145718</ele>
        <time>2022-04-27T09:33:17.949Z</time>
      </trkpt>
      <trkpt lat="48.50586" lon="7.39537">
        <ele>321.31029722679</ele>
        <time>2022-04-27T09:33:22.292Z</time>
      </trkpt>
      <trkpt lat="48.50556" lon="7.39462">
        <ele>320.1442329698</ele>
        <time>2022-04-27T09:33:26.644Z</time>
      </trkpt>
      <trkpt lat="48.50517" lon="7.39375">
        <ele>318.55968066847</ele>
        <time>2022-04-27T09:33:31.007Z</time>
      </trkpt>
      <trkpt lat="48.505" lon="7.39347">
        <ele>316.84090536551</ele>
        <time>2022-04-27T09:33:35.375Z</time>
      </trkpt>
      <trkpt lat="48.50469" lon="7.39303">
        <ele>314.75371842695</ele>
        <time>2022-04-27T09:33:39.749Z</time>
      </trkpt>
      <trkpt lat="48.50443" lon="7.39277">
        <ele>310.64974704028</ele>
        <time>2022-04-27T09:33:44.128Z</time>
      </trkpt>
      <trkpt lat="48.5041" lon="7.39249">
        <ele>308.54225904046</ele>
        <time>2022-04-27T09:33:48.513Z</time>
      </trkpt>
      <trkpt lat="48.50356" lon="7.39212">
        <ele>306.17141726734</ele>
        <time>2022-04-27T09:33:52.908Z</time>
      </trkpt>
      <trkpt lat="48.5031" lon="7.39184">
        <ele>304.01811469998</ele>
        <time>2022-04-27T09:33:57.311Z</time>
      </trkpt>
      <trkpt lat="48.50141" lon="7.39123">
        <ele>301.05974490934</ele>
        <time>2022-04-27T09:34:01.742Z</time>
      </trkpt>
      <trkpt lat="48.50121" lon="7.39113">
        <ele>298.85695176668</ele>
        <time>2022-04-27T09:34:06.176Z</time>
      </trkpt>
      <trkpt lat="48.50092" lon="7.39099">
        <ele>296.90093577945</ele>
        <time>2022-04-27T09:34:10.615Z</time>
      </trkpt>
      <trkpt lat="48.50076" lon="7.39095">
        <ele>295.23478002506</ele>
        <time>2022-04-27T09:34:15.056Z</time>
      </trkpt>
      <trkpt lat="48.50071" lon="7.39096">
        <ele>293.79800456948</ele>
        <time>2022-04-27T09:34:19.498Z</time>
      </trkpt>
      <trkpt lat="48.49954" lon="7.39141">
        <ele>292.74432261172</ele>
        <time>2022-04-27T09:34:23.960Z</time>
      </trkpt>
      <trkpt lat="48.49918" lon="7.39159">
        <ele>291.86977249329</ele>
        <time>2022-04-27T09:34:28.428Z</time>
      </trkpt>
      <trkpt lat="48.49891" lon="7.39175">
        <ele>291.33819898774</ele>
        <time>2022-04-27T09:34:32.900Z</time>
      </trkpt>
      <trkpt lat="48.49858" lon="7.39201">
        <ele>290.9320383458</ele>
        <time>2022-04-27T09:34:37.378Z</time>
      </trkpt>
      <trkpt lat="48.49833" lon="7.39223">
        <ele>290.86565081922</ele>
        <time>2022-04-27T09:34:41.861Z</time>
      </trkpt>
      <trkpt lat="48.49816" lon="7.39242">
        <ele>291.1778708415</ele>
        <time>2022-04-27T09:34:46.347Z</time>
      </trkpt>
      <trkpt lat="48.49777" lon="7.39281">
        <ele>291.66731110141</ele>
        <time>2022-04-27T09:34:50.841Z</time>
      </trkpt>
      <trkpt lat="48.49759" lon="7.39298">
        <ele>292.56216478375</ele>
        <time>2022-04-27T09:34:55.338Z</time>
      </trkpt>
      <trkpt lat="48.49728" lon="7.3932">
        <ele>293.81793600284</ele>
        <time>2022-04-27T09:34:59.841Z</time>
      </trkpt>
      <trkpt lat="48.49702" lon="7.39334">
        <ele>295.4294278404</ele>
        <time>2022-04-27T09:35:04.348Z</time>
      </trkpt>
      <trkpt lat="48.49594" lon="7.39379">
        <ele>297.6551853516</ele>
        <time>2022-04-27T09:35:08.873Z</time>
      </trkpt>
      <trkpt lat="48.49484" lon="7.39425">
        <ele>300.54194796944</ele>
        <time>2022-04-27T09:35:13.416Z</time>
      </trkpt>
      <trkpt lat="48.49427" lon="7.39454">
        <ele>303.16205416137</ele>
        <time>2022-04-27T09:35:17.969Z</time>
      </trkpt>
      <trkpt lat="48.49385" lon="7.39485">
        <ele>306.06509305037</ele>
        <time>2022-04-27T09:35:22.530Z</time>
      </trkpt>
      <trkpt lat="48.4935" lon="7.39515">
        <ele>309.25077400224</ele>
        <time>2022-04-27T09:35:27.097Z</time>
      </trkpt>
      <trkpt lat="48.49229" lon="7.3965">
        <ele>313.15866345566</ele>
        <time>2022-04-27T09:35:31.688Z</time>
      </trkpt>
      <trkpt lat="48.49218" lon="7.39668">
        <ele>316.5841238415</ele>
        <time>2022-04-27T09:35:36.282Z</time>
      </trkpt>
      <trkpt lat="48.49212" lon="7.39684">
        <ele>320.02996002173</ele>
        <time>2022-04-27T09:35:40.878Z</time>
      </trkpt>
      <trkpt lat="48.49208" lon="7.39699">
        <ele>323.52925955236</ele>
        <time>2022-04-27T09:35:45.475Z</time>
      </trkpt>
      <trkpt lat="48.49193" lon="7.39789">
        <ele>327.29677851477</ele>
        <time>2022-04-27T09:35:50.082Z</time>
      </trkpt>
      <trkpt lat="48.49183" lon="7.39812">
        <ele>330.96464729422</ele>
        <time>2022-04-27T09:35:54.692Z</time>
      </trkpt>
      <trkpt lat="48.49173" lon="7.39823">
        <ele>334.55441386636</ele>
        <time>2022-04-27T09:35:59.304Z</time>
      </trkpt>
      <trkpt lat="48.49146" lon="7.39826">
        <ele>338.08890854644</ele>
        <time>2022-04-27T09:36:03.920Z</time>
      </trkpt>
      <trkpt lat="48.49121" lon="7.39837">
        <ele>341.57692987571</ele>
        <time>2022-04-27T09:36:08.541Z</time>
      </trkpt>
      <trkpt lat="48.49024" lon="7.39901">
        <ele>345.61042061725</ele>
        <time>2022-04-27T09:36:13.179Z</time>
      </trkpt>
      <trkpt lat="48.49017" lon="7.39906">
        <ele>348.79737283078</ele>
        <time>2022-04-27T09:36:17.818Z</time>
      </trkpt>
      <trkpt lat="48.48983" lon="7.39926">
        <ele>351.94191701661</ele>
        <time>2022-04-27T09:36:22.463Z</time>
      </trkpt>
      <trkpt lat="48.48978" lon="7.3993">
        <ele>354.76211133973</ele>
        <time>2022-04-27T09:36:27.109Z</time>
      </trkpt>
      <trkpt lat="48.48968" lon="7.39943">
        <ele>357.44509156274</ele>
        <time>2022-04-27T09:36:31.757Z</time>
      </trkpt>
      <trkpt lat="48.48965" lon="7.3995">
        <ele>359.88734149071</ele>
        <time>2022-04-27T09:36:36.406Z</time>
      </trkpt>
      <trkpt lat="48.48963" lon="7.39955">
        <ele>362.11121920951</ele>
        <time>2022-04-27T09:36:41.055Z</time>
      </trkpt>
      <trkpt lat="48.48961" lon="7.39975">
        <ele>364.18735025048</ele>
        <time>2022-04-27T09:36:45.706Z</time>
      </trkpt>
      <trkpt lat="48.4896" lon="7.39992">
        <ele>366.00974302808</ele>
        <time>2022-04-27T09:36:50.359Z</time>
      </trkpt>
      <trkpt lat="48.48952" lon="7.39976">
        <ele>367.55399898618</ele>
        <time>2022-04-27T09:36:55.014Z</time>
      </trkpt>
      <trkpt lat="48.48914" lon="7.39895">
        <ele>368.90278064836</ele>
        <time>2022-04-27T09:36:59.680Z</time>
      </trkpt>
      <trkpt lat="48.48908" lon="7.39887">
        <ele>370.07601539111</ele>
        <time>2022-04-27T09:37:04.347Z</time>
      </trkpt>
      <trkpt lat="48.48907" lon="7.39898">
        <ele>370.98776048174</ele>
        <time>2022-04-27T09:37:09.015Z</time>
      </trkpt>
      <trkpt lat="48.48905" lon="7.3992">
        <ele>371.71978370755</ele>
        <time>2022-04-27T09:37:13.686Z</time>
      </trkpt>
      <trkpt lat="48.48897" lon="7.39945">
        <ele>372.32633943935</ele>
        <time>2022-04-27T09:37:18.360Z</time>
      </trkpt>
      <trkpt lat="48.48886" lon="7.39965">
        <ele>372.72459472025</ele>
        <time>2022-04-27T09:37:23.036Z</time>
      </trkpt>
      <trkpt lat="48.48873" lon="7.39977">
        <ele>372.99287824672</ele>
        <time>2022-04-27T09:37:27.715Z</time>
      </trkpt>
      <trkpt lat="48.48835" lon="7.40005">
        <ele>373.18558634656</ele>
        <time>2022-04-27T09:37:32.401Z</time>
      </trkpt>
      <trkpt lat="48.48796" lon="7.40035">
        <ele>373.1487246494</ele>
        <time>2022-04-27T09:37:37.094Z</time>
      </trkpt>
      <trkpt lat="48.48719" lon="7.4009">
        <ele>372.71634077589</ele>
        <time>2022-04-27T09:37:41.800Z</time>
      </trkpt>
      <trkpt lat="48.48701" lon="7.40103">
        <ele>372.37494092142</ele>
        <time>2022-04-27T09:37:46.509Z</time>
      </trkpt>
      <trkpt lat="48.4869" lon="7.40108">
        <ele>371.97247009269</ele>
        <time>2022-04-27T09:37:51.220Z</time>
      </trkpt>
      <trkpt lat="48.48675" lon="7.40114">
        <ele>371.45992631329</ele>
        <time>2022-04-27T09:37:55.934Z</time>
      </trkpt>
      <trkpt lat="48.48633" lon="7.40122">
        <ele>370.8610766201</ele>
        <time>2022-04-27T09:38:00.655Z</time>
      </trkpt>
      <trkpt lat="48.48578" lon="7.40126">
        <ele>370.36308453345</ele>
        <time>2022-04-27T09:38:05.384Z</time>
      </trkpt>
      <trkpt lat="48.48504" lon="7.40119">
        <ele>369.82944442</ele>
        <time>2022-04-27T09:38:10.125Z</time>
      </trkpt>
      <trkpt lat="48.48456" lon="7.4012">
        <ele>369.0596626611</ele>
        <time>2022-04-27T09:38:14.874Z</time>
      </trkpt>
      <trkpt lat="48.48391" lon="7.40133">
        <ele>368.39850024549</ele>
        <time>2022-04-27T09:38:19.633Z</time>
      </trkpt>
      <trkpt lat="48.48315" lon="7.40155">
        <ele>367.598894433</ele>
        <time>2022-04-27T09:38:24.405Z</time>
      </trkpt>
      <trkpt lat="48.48166" lon="7.40203">
        <ele>366.34052779815</ele>
        <time>2022-04-27T09:38:29.201Z</time>
      </trkpt>
      <trkpt lat="48.48148" lon="7.40212">
        <ele>365.47295638967</ele>
        <time>2022-04-27T09:38:34.000Z</time>
      </trkpt>
      <trkpt lat="48.48122" lon="7.40228">
        <ele>364.57000098432</ele>
        <time>2022-04-27T09:38:38.804Z</time>
      </trkpt>
      <trkpt lat="48.48107" lon="7.40241">
        <ele>363.77922079514</ele>
        <time>2022-04-27T09:38:43.610Z</time>
      </trkpt>
      <trkpt lat="48.48094" lon="7.40255">
        <ele>363.03116847448</ele>
        <time>2022-04-27T09:38:48.419Z</time>
      </trkpt>
      <trkpt lat="48.48082" lon="7.40274">
        <ele>362.29903531849</ele>
        <time>2022-04-27T09:38:53.231Z</time>
      </trkpt>
      <trkpt lat="48.48066" lon="7.40307">
        <ele>361.61285590411</ele>
        <time>2022-04-27T09:38:58.047Z</time>
      </trkpt>
      <trkpt lat="48.48058" lon="7.40327">
        <ele>360.87440418139</ele>
        <time>2022-04-27T09:39:02.866Z</time>
      </trkpt>
      <trkpt lat="48.48043" lon="7.40358">
        <ele>360.14424637744</ele>
        <time>2022-04-27T09:39:07.689Z</time>
      </trkpt>
      <trkpt lat="48.48022" lon="7.40392">
        <ele>359.43852361312</ele>
        <time>2022-04-27T09:39:12.517Z</time>
      </trkpt>
      <trkpt lat="48.4801" lon="7.40406">
        <ele>358.74073766826</ele>
        <time>2022-04-27T09:39:17.347Z</time>
      </trkpt>
      <trkpt lat="48.47994" lon="7.40418">
        <ele>358.07507187153</ele>
        <time>2022-04-27T09:39:22.180Z</time>
      </trkpt>
      <trkpt lat="48.47966" lon="7.40429">
        <ele>357.39053511162</ele>
        <time>2022-04-27T09:39:27.018Z</time>
      </trkpt>
      <trkpt lat="48.47894" lon="7.40452">
        <ele>356.52776328934</ele>
        <time>2022-04-27T09:39:31.867Z</time>
      </trkpt>
      <trkpt lat="48.47736" lon="7.40503">
        <ele>355.3602900642</ele>
        <time>2022-04-27T09:39:36.742Z</time>
      </trkpt>
      <trkpt lat="48.47708" lon="7.40514">
        <ele>354.42096834953</ele>
        <time>2022-04-27T09:39:41.622Z</time>
      </trkpt>
      <trkpt lat="48.47701" lon="7.40517">
        <ele>353.51751661968</ele>
        <time>2022-04-27T09:39:46.503Z</time>
      </trkpt>
      <trkpt lat="48.47599" lon="7.40588">
        <ele>352.58322784292</ele>
        <time>2022-04-27T09:39:51.402Z</time>
      </trkpt>
      <trkpt lat="48.47575" lon="7.40608">
        <ele>351.44573465186</ele>
        <time>2022-04-27T09:39:56.305Z</time>
      </trkpt>
      <trkpt lat="48.47574" lon="7.40608">
        <ele>350.35647715823</ele>
        <time>2022-04-27T09:40:01.209Z</time>
      </trkpt>
      <trkpt lat="48.47565" lon="7.40621">
        <ele>349.14032637265</ele>
        <time>2022-04-27T09:40:06.114Z</time>
      </trkpt>
      <trkpt lat="48.47552" lon="7.40641">
        <ele>347.95125845975</ele>
        <time>2022-04-27T09:40:11.023Z</time>
      </trkpt>
      <trkpt lat="48.47492" lon="7.40745">
        <ele>346.96143362853</ele>
        <time>2022-04-27T09:40:15.946Z</time>
      </trkpt>
      <trkpt lat="48.47436" lon="7.40842">
        <ele>345.39667365183</ele>
        <time>2022-04-27T09:40:20.883Z</time>
      </trkpt>
      <trkpt lat="48.47375" lon="7.40944">
        <ele>343.62636995578</ele>
        <time>2022-04-27T09:40:25.834Z</time>
      </trkpt>
      <trkpt lat="48.4732" lon="7.4105">
        <ele>341.73551677562</ele>
        <time>2022-04-27T09:40:30.800Z</time>
      </trkpt>
      <trkpt lat="48.47312" lon="7.41064">
        <ele>340.17102956625</ele>
        <time>2022-04-27T09:40:35.768Z</time>
      </trkpt>
      <trkpt lat="48.47304" lon="7.41074">
        <ele>338.57647768614</ele>
        <time>2022-04-27T09:40:40.737Z</time>
      </trkpt>
      <trkpt lat="48.47294" lon="7.41081">
        <ele>336.96434812149</ele>
        <time>2022-04-27T09:40:45.708Z</time>
      </trkpt>
      <trkpt lat="48.4728" lon="7.4109">
        <ele>335.34266067415</ele>
        <time>2022-04-27T09:40:50.682Z</time>
      </trkpt>
      <trkpt lat="48.47207" lon="7.41118">
        <ele>333.54854138359</ele>
        <time>2022-04-27T09:40:55.668Z</time>
      </trkpt>
      <trkpt lat="48.47197" lon="7.41117">
        <ele>331.91186904893</ele>
        <time>2022-04-27T09:41:00.655Z</time>
      </trkpt>
      <trkpt lat="48.47186" lon="7.41111">
        <ele>330.18774000742</ele>
        <time>2022-04-27T09:41:05.644Z</time>
      </trkpt>
      <trkpt lat="48.47181" lon="7.41097">
        <ele>328.41665870063</ele>
        <time>2022-04-27T09:41:10.635Z</time>
      </trkpt>
      <trkpt lat="48.47177" lon="7.41077">
        <ele>326.62841482812</ele>
        <time>2022-04-27T09:41:15.628Z</time>
      </trkpt>
      <trkpt lat="48.47176" lon="7.41044">
        <ele>324.81852947859</ele>
        <time>2022-04-27T09:41:20.625Z</time>
      </trkpt>
      <trkpt lat="48.47176" lon="7.41018">
        <ele>323.04953262856</ele>
        <time>2022-04-27T09:41:25.624Z</time>
      </trkpt>
      <trkpt lat="48.47175" lon="7.41005">
        <ele>321.31276180633</ele>
        <time>2022-04-27T09:41:30.625Z</time>
      </trkpt>
      <trkpt lat="48.47169" lon="7.40977">
        <ele>319.53092315803</ele>
        <time>2022-04-27T09:41:35.629Z</time>
      </trkpt>
      <trkpt lat="48.47163" lon="7.40964">
        <ele>317.74635754387</ele>
        <time>2022-04-27T09:41:40.635Z</time>
      </trkpt>
      <trkpt lat="48.47154" lon="7.40954">
        <ele>315.90541944098</ele>
        <time>2022-04-27T09:41:45.642Z</time>
      </trkpt>
      <trkpt lat="48.47117" lon="7.40904">
        <ele>314.01706530051</ele>
        <time>2022-04-27T09:41:50.657Z</time>
      </trkpt>
      <trkpt lat="48.47051" lon="7.40823">
        <ele>312.05836773576</ele>
        <time>2022-04-27T09:41:55.686Z</time>
      </trkpt>
      <trkpt lat="48.47033" lon="7.40799">
        <ele>310.16779786355</ele>
        <time>2022-04-27T09:42:00.719Z</time>
      </trkpt>
      <trkpt lat="48.47017" lon="7.40769">
        <ele>308.24329564686</ele>
        <time>2022-04-27T09:42:05.756Z</time>
      </trkpt>
      <trkpt lat="48.47013" lon="7.40766">
        <ele>306.39603880858</ele>
        <time>2022-04-27T09:42:10.794Z</time>
      </trkpt>
      <trkpt lat="48.47008" lon="7.40767">
        <ele>304.52375935755</ele>
        <time>2022-04-27T09:42:15.832Z</time>
      </trkpt>
      <trkpt lat="48.47004" lon="7.40773">
        <ele>302.64378360539</ele>
        <time>2022-04-27T09:42:20.871Z</time>
      </trkpt>
      <trkpt lat="48.47003" lon="7.40782">
        <ele>300.81744881201</ele>
        <time>2022-04-27T09:42:25.911Z</time>
      </trkpt>
      <trkpt lat="48.47012" lon="7.40832">
        <ele>299.02365104625</ele>
        <time>2022-04-27T09:42:30.957Z</time>
      </trkpt>
      <trkpt lat="48.47017" lon="7.40897">
        <ele>297.0486457285</ele>
        <time>2022-04-27T09:42:36.010Z</time>
      </trkpt>
      <trkpt lat="48.47027" lon="7.40993">
        <ele>295.22845156958</ele>
        <time>2022-04-27T09:42:41.073Z</time>
      </trkpt>
      <trkpt lat="48.47025" lon="7.41011">
        <ele>293.49751820542</ele>
        <time>2022-04-27T09:42:46.138Z</time>
      </trkpt>
      <trkpt lat="48.47021" lon="7.41017">
        <ele>291.81709438487</ele>
        <time>2022-04-27T09:42:51.204Z</time>
      </trkpt>
      <trkpt lat="48.47016" lon="7.41019">
        <ele>290.18125706838</ele>
        <time>2022-04-27T09:42:56.271Z</time>
      </trkpt>
      <trkpt lat="48.47011" lon="7.41017">
        <ele>288.63912135108</ele>
        <time>2022-04-27T09:43:01.339Z</time>
      </trkpt>
      <trkpt lat="48.47007" lon="7.41008">
        <ele>287.21483505794</ele>
        <time>2022-04-27T09:43:06.408Z</time>
      </trkpt>
      <trkpt lat="48.46997" lon="7.40977">
        <ele>285.90297561009</ele>
        <time>2022-04-27T09:43:11.481Z</time>
      </trkpt>
      <trkpt lat="48.46983" lon="7.40954">
        <ele>284.61162654675</ele>
        <time>2022-04-27T09:43:16.557Z</time>
      </trkpt>
      <trkpt lat="48.46973" lon="7.40945">
        <ele>283.44787107697</ele>
        <time>2022-04-27T09:43:21.635Z</time>
      </trkpt>
      <trkpt lat="48.46967" lon="7.40942">
        <ele>282.47566598131</ele>
        <time>2022-04-27T09:43:26.714Z</time>
      </trkpt>
      <trkpt lat="48.46957" lon="7.40944">
        <ele>281.59648402438</ele>
        <time>2022-04-27T09:43:31.794Z</time>
      </trkpt>
      <trkpt lat="48.46945" lon="7.40952">
        <ele>280.84102843516</ele>
        <time>2022-04-27T09:43:36.876Z</time>
      </trkpt>
      <trkpt lat="48.46939" lon="7.40958">
        <ele>280.3794155971</ele>
        <time>2022-04-27T09:43:41.960Z</time>
      </trkpt>
      <trkpt lat="48.46936" lon="7.40966">
        <ele>280.09746227202</ele>
        <time>2022-04-27T09:43:47.045Z</time>
      </trkpt>
      <trkpt lat="48.46906" lon="7.41091">
        <ele>279.91135826708</ele>
        <time>2022-04-27T09:43:52.144Z</time>
      </trkpt>
      <trkpt lat="48.469" lon="7.41114">
        <ele>279.95693133752</ele>
        <time>2022-04-27T09:43:57.245Z</time>
      </trkpt>
      <trkpt lat="48.46897" lon="7.41111">
        <ele>280.28935351862</ele>
        <time>2022-04-27T09:44:02.347Z</time>
      </trkpt>
      <trkpt lat="48.46889" lon="7.41089">
        <ele>280.84817722144</ele>
        <time>2022-04-27T09:44:07.452Z</time>
      </trkpt>
      <trkpt lat="48.46875" lon="7.4104">
        <ele>281.68633204953</ele>
        <time>2022-04-27T09:44:12.562Z</time>
      </trkpt>
      <trkpt lat="48.46866" lon="7.41013">
        <ele>282.6614052128</ele>
        <time>2022-04-27T09:44:17.675Z</time>
      </trkpt>
      <trkpt lat="48.46864" lon="7.41005">
        <ele>283.80228314208</ele>
        <time>2022-04-27T09:44:22.789Z</time>
      </trkpt>
      <trkpt lat="48.46859" lon="7.40984">
        <ele>285.1412997915</ele>
        <time>2022-04-27T09:44:27.906Z</time>
      </trkpt>
      <trkpt lat="48.46853" lon="7.4091">
        <ele>286.79351864884</ele>
        <time>2022-04-27T09:44:33.031Z</time>
      </trkpt>
      <trkpt lat="48.46849" lon="7.40891">
        <ele>288.5466115955</ele>
        <time>2022-04-27T09:44:38.158Z</time>
      </trkpt>
      <trkpt lat="48.46827" lon="7.40806">
        <ele>290.87382477706</ele>
        <time>2022-04-27T09:44:43.295Z</time>
      </trkpt>
      <trkpt lat="48.46816" lon="7.40743">
        <ele>292.97341686941</ele>
        <time>2022-04-27T09:44:48.439Z</time>
      </trkpt>
      <trkpt lat="48.4681" lon="7.40724">
        <ele>295.03546924788</ele>
        <time>2022-04-27T09:44:53.585Z</time>
      </trkpt>
      <trkpt lat="48.46797" lon="7.40691">
        <ele>297.20683851971</ele>
        <time>2022-04-27T09:44:58.735Z</time>
      </trkpt>
      <trkpt lat="48.46777" lon="7.40659">
        <ele>299.48573998705</ele>
        <time>2022-04-27T09:45:03.889Z</time>
      </trkpt>
      <trkpt lat="48.46727" lon="7.40613">
        <ele>302.20043285815</ele>
        <time>2022-04-27T09:45:09.053Z</time>
      </trkpt>
      <trkpt lat="48.46723" lon="7.40607">
        <ele>304.5394310301</ele>
        <time>2022-04-27T09:45:14.218Z</time>
      </trkpt>
      <trkpt lat="48.4672" lon="7.40602">
        <ele>306.89969772875</ele>
        <time>2022-04-27T09:45:19.384Z</time>
      </trkpt>
      <trkpt lat="48.46717" lon="7.40593">
        <ele>309.24994422529</ele>
        <time>2022-04-27T09:45:24.551Z</time>
      </trkpt>
      <trkpt lat="48.46713" lon="7.40569">
        <ele>311.69807839805</ele>
        <time>2022-04-27T09:45:29.720Z</time>
      </trkpt>
      <trkpt lat="48.46711" lon="7.40555">
        <ele>314.05294566549</ele>
        <time>2022-04-27T09:45:34.891Z</time>
      </trkpt>
      <trkpt lat="48.46709" lon="7.40524">
        <ele>316.26447228855</ele>
        <time>2022-04-27T09:45:40.065Z</time>
      </trkpt>
      <trkpt lat="48.46684" lon="7.40305">
        <ele>318.12123440249</ele>
        <time>2022-04-27T09:45:45.263Z</time>
      </trkpt>
      <trkpt lat="48.46669" lon="7.40213">
        <ele>320.68276019463</ele>
        <time>2022-04-27T09:45:50.471Z</time>
      </trkpt>
      <trkpt lat="48.46641" lon="7.40087">
        <ele>322.80689499853</ele>
        <time>2022-04-27T09:45:55.693Z</time>
      </trkpt>
      <trkpt lat="48.46632" lon="7.40051">
        <ele>324.79637294807</ele>
        <time>2022-04-27T09:46:00.919Z</time>
      </trkpt>
      <trkpt lat="48.46604" lon="7.39978">
        <ele>326.85020966367</ele>
        <time>2022-04-27T09:46:06.154Z</time>
      </trkpt>
      <trkpt lat="48.4659" lon="7.39896">
        <ele>328.75317566246</ele>
        <time>2022-04-27T09:46:11.398Z</time>
      </trkpt>
      <trkpt lat="48.46562" lon="7.39698">
        <ele>330.42663070598</ele>
        <time>2022-04-27T09:46:16.664Z</time>
      </trkpt>
      <trkpt lat="48.46541" lon="7.39572">
        <ele>331.90688818626</ele>
        <time>2022-04-27T09:46:21.943Z</time>
      </trkpt>
      <trkpt lat="48.46528" lon="7.39528">
        <ele>333.49310047854</ele>
        <time>2022-04-27T09:46:27.228Z</time>
      </trkpt>
      <trkpt lat="48.46499" lon="7.39464">
        <ele>334.60724709797</ele>
        <time>2022-04-27T09:46:32.521Z</time>
      </trkpt>
      <trkpt lat="48.4644" lon="7.39362">
        <ele>335.47011118027</ele>
        <time>2022-04-27T09:46:37.828Z</time>
      </trkpt>
      <trkpt lat="48.46415" lon="7.39339">
        <ele>336.6864461858</ele>
        <time>2022-04-27T09:46:43.140Z</time>
      </trkpt>
      <trkpt lat="48.46291" lon="7.39267">
        <ele>337.89476410546</ele>
        <time>2022-04-27T09:46:48.473Z</time>
      </trkpt>
      <trkpt lat="48.46273" lon="7.39253">
        <ele>338.69266777543</ele>
        <time>2022-04-27T09:46:53.809Z</time>
      </trkpt>
      <trkpt lat="48.46268" lon="7.39247">
        <ele>339.58020166303</ele>
        <time>2022-04-27T09:46:59.147Z</time>
      </trkpt>
      <trkpt lat="48.46255" lon="7.39226">
        <ele>340.41774426365</ele>
        <time>2022-04-27T09:47:04.488Z</time>
      </trkpt>
      <trkpt lat="48.46243" lon="7.39197">
        <ele>341.29488447037</ele>
        <time>2022-04-27T09:47:09.832Z</time>
      </trkpt>
      <trkpt lat="48.4623" lon="7.39175">
        <ele>342.20019241616</ele>
        <time>2022-04-27T09:47:15.179Z</time>
      </trkpt>
      <trkpt lat="48.46213" lon="7.39154">
        <ele>343.1626718349</ele>
        <time>2022-04-27T09:47:20.530Z</time>
      </trkpt>
      <trkpt lat="48.46192" lon="7.39131">
        <ele>344.19672872976</ele>
        <time>2022-04-27T09:47:25.885Z</time>
      </trkpt>
      <trkpt lat="48.46137" lon="7.39066">
        <ele>345.17537464374</ele>
        <time>2022-04-27T09:47:31.251Z</time>
      </trkpt>
      <trkpt lat="48.46029" lon="7.38952">
        <ele>346.36540484405</ele>
        <time>2022-04-27T09:47:36.638Z</time>
      </trkpt>
      <trkpt lat="48.45995" lon="7.38909">
        <ele>347.11940454833</ele>
        <time>2022-04-27T09:47:42.032Z</time>
      </trkpt>
      <trkpt lat="48.45954" lon="7.3885">
        <ele>348.21442652203</ele>
        <time>2022-04-27T09:47:47.436Z</time>
      </trkpt>
      <trkpt lat="48.45946" lon="7.38837">
        <ele>349.18002099613</ele>
        <time>2022-04-27T09:47:52.841Z</time>
      </trkpt>
      <trkpt lat="48.45951" lon="7.38828">
        <ele>349.95953217951</ele>
        <time>2022-04-27T09:47:58.248Z</time>
      </trkpt>
      <trkpt lat="48.45956" lon="7.38814">
        <ele>350.75677344684</ele>
        <time>2022-04-27T09:48:03.656Z</time>
      </trkpt>
      <trkpt lat="48.45973" lon="7.38776">
        <ele>351.74735827263</ele>
        <time>2022-04-27T09:48:09.069Z</time>
      </trkpt>
      <trkpt lat="48.4598" lon="7.38759">
        <ele>352.69240345104</ele>
        <time>2022-04-27T09:48:14.484Z</time>
      </trkpt>
      <trkpt lat="48.45982" lon="7.38747">
        <ele>353.74713120777</ele>
        <time>2022-04-27T09:48:19.901Z</time>
      </trkpt>
      <trkpt lat="48.4598" lon="7.38732">
        <ele>354.79644574038</ele>
        <time>2022-04-27T09:48:25.319Z</time>
      </trkpt>
      <trkpt lat="48.4597" lon="7.38697">
        <ele>356.01509788794</ele>
        <time>2022-04-27T09:48:30.741Z</time>
      </trkpt>
      <trkpt lat="48.45938" lon="7.38598">
        <ele>357.71571967107</ele>
        <time>2022-04-27T09:48:36.175Z</time>
      </trkpt>
      <trkpt lat="48.45928" lon="7.38561">
        <ele>359.06367250737</ele>
        <time>2022-04-27T09:48:41.613Z</time>
      </trkpt>
      <trkpt lat="48.45922" lon="7.38527">
        <ele>360.49610111743</ele>
        <time>2022-04-27T09:48:47.055Z</time>
      </trkpt>
      <trkpt lat="48.45906" lon="7.38321">
        <ele>362.08016600702</ele>
        <time>2022-04-27T09:48:52.519Z</time>
      </trkpt>
      <trkpt lat="48.4591" lon="7.38243">
        <ele>363.36292512197</ele>
        <time>2022-04-27T09:48:57.992Z</time>
      </trkpt>
      <trkpt lat="48.45921" lon="7.38194">
        <ele>364.71272127235</ele>
        <time>2022-04-27T09:49:03.470Z</time>
      </trkpt>
      <trkpt lat="48.45922" lon="7.38172">
        <ele>366.00987450597</ele>
        <time>2022-04-27T09:49:08.950Z</time>
      </trkpt>
      <trkpt lat="48.45915" lon="7.38095">
        <ele>367.6317076349</ele>
        <time>2022-04-27T09:49:14.439Z</time>
      </trkpt>
      <trkpt lat="48.45899" lon="7.37976">
        <ele>368.91342794037</ele>
        <time>2022-04-27T09:49:19.941Z</time>
      </trkpt>
      <trkpt lat="48.45891" lon="7.3794">
        <ele>370.18349045884</ele>
        <time>2022-04-27T09:49:25.447Z</time>
      </trkpt>
      <trkpt lat="48.45883" lon="7.37915">
        <ele>371.63968192186</ele>
        <time>2022-04-27T09:49:30.956Z</time>
      </trkpt>
      <trkpt lat="48.4587" lon="7.3789">
        <ele>373.10867946162</ele>
        <time>2022-04-27T09:49:36.468Z</time>
      </trkpt>
      <trkpt lat="48.45854" lon="7.37867">
        <ele>374.56577699469</ele>
        <time>2022-04-27T09:49:41.984Z</time>
      </trkpt>
      <trkpt lat="48.45781" lon="7.37778">
        <ele>376.0865333405</ele>
        <time>2022-04-27T09:49:47.515Z</time>
      </trkpt>
      <trkpt lat="48.45768" lon="7.37757">
        <ele>377.62974537541</ele>
        <time>2022-04-27T09:49:53.049Z</time>
      </trkpt>
      <trkpt lat="48.45761" lon="7.37739">
        <ele>379.26040675503</ele>
        <time>2022-04-27T09:49:58.585Z</time>
      </trkpt>
      <trkpt lat="48.45756" lon="7.37719">
        <ele>380.9571403149</ele>
        <time>2022-04-27T09:50:04.123Z</time>
      </trkpt>
      <trkpt lat="48.45744" lon="7.37633">
        <ele>382.73292629104</ele>
        <time>2022-04-27T09:50:09.670Z</time>
      </trkpt>
      <trkpt lat="48.45736" lon="7.37595">
        <ele>384.64850972003</ele>
        <time>2022-04-27T09:50:15.222Z</time>
      </trkpt>
      <trkpt lat="48.45711" lon="7.37489">
        <ele>386.83296227834</ele>
        <time>2022-04-27T09:50:20.786Z</time>
      </trkpt>
      <trkpt lat="48.45695" lon="7.37437">
        <ele>389.26900787914</ele>
        <time>2022-04-27T09:50:26.356Z</time>
      </trkpt>
      <trkpt lat="48.45661" lon="7.37366">
        <ele>391.67066859682</ele>
        <time>2022-04-27T09:50:31.935Z</time>
      </trkpt>
      <trkpt lat="48.45621" lon="7.37296">
        <ele>393.98297904225</ele>
        <time>2022-04-27T09:50:37.524Z</time>
      </trkpt>
      <trkpt lat="48.45615" lon="7.37279">
        <ele>396.68505444868</ele>
        <time>2022-04-27T09:50:43.115Z</time>
      </trkpt>
      <trkpt lat="48.45612" lon="7.37252">
        <ele>399.49407280009</ele>
        <time>2022-04-27T09:50:48.709Z</time>
      </trkpt>
      <trkpt lat="48.45608" lon="7.37198">
        <ele>402.44273059736</ele>
        <time>2022-04-27T09:50:54.309Z</time>
      </trkpt>
      <trkpt lat="48.45604" lon="7.37166">
        <ele>405.76814950404</ele>
        <time>2022-04-27T09:50:59.912Z</time>
      </trkpt>
      <trkpt lat="48.45543" lon="7.36929">
        <ele>409.85005331166</ele>
        <time>2022-04-27T09:51:05.542Z</time>
      </trkpt>
      <trkpt lat="48.45534" lon="7.36911">
        <ele>413.44595018457</ele>
        <time>2022-04-27T09:51:11.175Z</time>
      </trkpt>
      <trkpt lat="48.45522" lon="7.36894">
        <ele>417.25432463879</ele>
        <time>2022-04-27T09:51:16.810Z</time>
      </trkpt>
      <trkpt lat="48.45459" lon="7.36832">
        <ele>421.77949055671</ele>
        <time>2022-04-27T09:51:22.457Z</time>
      </trkpt>
      <trkpt lat="48.45446" lon="7.36809">
        <ele>426.07233539114</ele>
        <time>2022-04-27T09:51:28.108Z</time>
      </trkpt>
      <trkpt lat="48.45368" lon="7.36619">
        <ele>431.1657441456</ele>
        <time>2022-04-27T09:51:33.782Z</time>
      </trkpt>
      <trkpt lat="48.45342" lon="7.36503">
        <ele>435.72069005087</ele>
        <time>2022-04-27T09:51:39.469Z</time>
      </trkpt>
      <trkpt lat="48.45283" lon="7.36284">
        <ele>441.12427788111</ele>
        <time>2022-04-27T09:51:45.182Z</time>
      </trkpt>
      <trkpt lat="48.45279" lon="7.36263">
        <ele>445.69004008456</ele>
        <time>2022-04-27T09:51:50.897Z</time>
      </trkpt>
      <trkpt lat="48.45276" lon="7.36233">
        <ele>450.3161618565</ele>
        <time>2022-04-27T09:51:56.615Z</time>
      </trkpt>
      <trkpt lat="48.45272" lon="7.3617">
        <ele>455.3495874644</ele>
        <time>2022-04-27T09:52:02.340Z</time>
      </trkpt>
      <trkpt lat="48.45266" lon="7.36144">
        <ele>460.19880225197</ele>
        <time>2022-04-27T09:52:08.068Z</time>
      </trkpt>
      <trkpt lat="48.45228" lon="7.36068">
        <ele>465.13538741887</ele>
        <time>2022-04-27T09:52:13.806Z</time>
      </trkpt>
      <trkpt lat="48.45221" lon="7.36045">
        <ele>469.76697029954</ele>
        <time>2022-04-27T09:52:19.547Z</time>
      </trkpt>
      <trkpt lat="48.45215" lon="7.36005">
        <ele>474.45756538914</ele>
        <time>2022-04-27T09:52:25.292Z</time>
      </trkpt>
      <trkpt lat="48.45209" lon="7.35948">
        <ele>479.26676356332</ele>
        <time>2022-04-27T09:52:31.043Z</time>
      </trkpt>
      <trkpt lat="48.45205" lon="7.35812">
        <ele>484.43825136308</ele>
        <time>2022-04-27T09:52:36.809Z</time>
      </trkpt>
      <trkpt lat="48.45201" lon="7.35778">
        <ele>488.82587208553</ele>
        <time>2022-04-27T09:52:42.578Z</time>
      </trkpt>
      <trkpt lat="48.45186" lon="7.35712">
        <ele>493.09673634503</ele>
        <time>2022-04-27T09:52:48.355Z</time>
      </trkpt>
      <trkpt lat="48.45183" lon="7.3569">
        <ele>497.30175553409</ele>
        <time>2022-04-27T09:52:54.134Z</time>
      </trkpt>
      <trkpt lat="48.45182" lon="7.35556">
        <ele>502.05890945697</ele>
        <time>2022-04-27T09:52:59.927Z</time>
      </trkpt>
      <trkpt lat="48.45177" lon="7.35532">
        <ele>505.86141995202</ele>
        <time>2022-04-27T09:53:05.723Z</time>
      </trkpt>
      <trkpt lat="48.45171" lon="7.35518">
        <ele>509.47597427809</ele>
        <time>2022-04-27T09:53:11.521Z</time>
      </trkpt>
      <trkpt lat="48.45157" lon="7.35498">
        <ele>512.96753249412</ele>
        <time>2022-04-27T09:53:17.322Z</time>
      </trkpt>
      <trkpt lat="48.45104" lon="7.35439">
        <ele>516.61130174283</ele>
        <time>2022-04-27T09:53:23.134Z</time>
      </trkpt>
      <trkpt lat="48.45092" lon="7.35413">
        <ele>519.82975502499</ele>
        <time>2022-04-27T09:53:28.949Z</time>
      </trkpt>
      <trkpt lat="48.4508" lon="7.35366">
        <ele>522.94222452972</ele>
        <time>2022-04-27T09:53:34.769Z</time>
      </trkpt>
      <trkpt lat="48.45075" lon="7.35304">
        <ele>525.77764984507</ele>
        <time>2022-04-27T09:53:40.596Z</time>
      </trkpt>
      <trkpt lat="48.45066" lon="7.35239">
        <ele>530.58327149734</ele>
        <time>2022-04-27T09:53:46.430Z</time>
      </trkpt>
      <trkpt lat="48.45051" lon="7.35167">
        <ele>532.64201981479</ele>
        <time>2022-04-27T09:53:52.272Z</time>
      </trkpt>
      <trkpt lat="48.45033" lon="7.35102">
        <ele>535.24408209872</ele>
        <time>2022-04-27T09:53:58.122Z</time>
      </trkpt>
      <trkpt lat="48.45034" lon="7.35088">
        <ele>536.97881778486</ele>
        <time>2022-04-27T09:54:03.973Z</time>
      </trkpt>
      <trkpt lat="48.4504" lon="7.35075">
        <ele>538.54258560449</ele>
        <time>2022-04-27T09:54:09.826Z</time>
      </trkpt>
      <trkpt lat="48.45048" lon="7.35071">
        <ele>539.87912767041</ele>
        <time>2022-04-27T09:54:15.680Z</time>
      </trkpt>
      <trkpt lat="48.45056" lon="7.35071">
        <ele>541.11682189917</ele>
        <time>2022-04-27T09:54:21.535Z</time>
      </trkpt>
      <trkpt lat="48.45067" lon="7.35083">
        <ele>542.10849437461</ele>
        <time>2022-04-27T09:54:27.393Z</time>
      </trkpt>
      <trkpt lat="48.45077" lon="7.35108">
        <ele>542.92204295336</ele>
        <time>2022-04-27T09:54:33.254Z</time>
      </trkpt>
      <trkpt lat="48.45086" lon="7.35122">
        <ele>543.92490975925</ele>
        <time>2022-04-27T09:54:39.117Z</time>
      </trkpt>
      <trkpt lat="48.45098" lon="7.35132">
        <ele>545.08914096726</ele>
        <time>2022-04-27T09:54:44.982Z</time>
      </trkpt>
      <trkpt lat="48.4516" lon="7.35157">
        <ele>546.99161893563</ele>
        <time>2022-04-27T09:54:50.857Z</time>
      </trkpt>
      <trkpt lat="48.45174" lon="7.35168">
        <ele>548.30304864239</ele>
        <time>2022-04-27T09:54:56.735Z</time>
      </trkpt>
      <trkpt lat="48.45185" lon="7.3519">
        <ele>549.57218567723</ele>
        <time>2022-04-27T09:55:02.616Z</time>
      </trkpt>
      <trkpt lat="48.45196" lon="7.35226">
        <ele>550.77407104491</ele>
        <time>2022-04-27T09:55:08.501Z</time>
      </trkpt>
      <trkpt lat="48.45203" lon="7.35237">
        <ele>552.11969156246</ele>
        <time>2022-04-27T09:55:14.388Z</time>
      </trkpt>
      <trkpt lat="48.45212" lon="7.35243">
        <ele>553.60789601267</ele>
        <time>2022-04-27T09:55:20.276Z</time>
      </trkpt>
      <trkpt lat="48.45221" lon="7.35244">
        <ele>555.21251739013</ele>
        <time>2022-04-27T09:55:26.166Z</time>
      </trkpt>
      <trkpt lat="48.45228" lon="7.3524">
        <ele>556.96801471003</ele>
        <time>2022-04-27T09:55:32.057Z</time>
      </trkpt>
      <trkpt lat="48.45231" lon="7.35235">
        <ele>558.73437686954</ele>
        <time>2022-04-27T09:55:37.948Z</time>
      </trkpt>
      <trkpt lat="48.45235" lon="7.35221">
        <ele>560.67733772338</ele>
        <time>2022-04-27T09:55:43.841Z</time>
      </trkpt>
      <trkpt lat="48.45234" lon="7.35207">
        <ele>562.6250453955</ele>
        <time>2022-04-27T09:55:49.736Z</time>
      </trkpt>
      <trkpt lat="48.45218" lon="7.35171">
        <ele>564.5312305537</ele>
        <time>2022-04-27T09:55:55.635Z</time>
      </trkpt>
      <trkpt lat="48.45209" lon="7.35115">
        <ele>566.7084598101</ele>
        <time>2022-04-27T09:56:01.540Z</time>
      </trkpt>
      <trkpt lat="48.45204" lon="7.35098">
        <ele>568.96080360975</ele>
        <time>2022-04-27T09:56:07.447Z</time>
      </trkpt>
      <trkpt lat="48.45186" lon="7.35057">
        <ele>571.38683598185</ele>
        <time>2022-04-27T09:56:13.359Z</time>
      </trkpt>
      <trkpt lat="48.45173" lon="7.34985">
        <ele>574.33750949095</ele>
        <time>2022-04-27T09:56:19.279Z</time>
      </trkpt>
      <trkpt lat="48.45163" lon="7.34898">
        <ele>577.3323453936</ele>
        <time>2022-04-27T09:56:25.209Z</time>
      </trkpt>
      <trkpt lat="48.45157" lon="7.34878">
        <ele>579.92375588613</ele>
        <time>2022-04-27T09:56:31.141Z</time>
      </trkpt>
      <trkpt lat="48.45145" lon="7.3486">
        <ele>582.44195164788</ele>
        <time>2022-04-27T09:56:37.076Z</time>
      </trkpt>
      <trkpt lat="48.45128" lon="7.34822">
        <ele>584.99829469569</ele>
        <time>2022-04-27T09:56:43.016Z</time>
      </trkpt>
      <trkpt lat="48.45122" lon="7.34805">
        <ele>587.55716245294</ele>
        <time>2022-04-27T09:56:48.958Z</time>
      </trkpt>
      <trkpt lat="48.45117" lon="7.34765">
        <ele>590.20352098417</ele>
        <time>2022-04-27T09:56:54.904Z</time>
      </trkpt>
      <trkpt lat="48.45118" lon="7.34719">
        <ele>592.96187261153</ele>
        <time>2022-04-27T09:57:00.855Z</time>
      </trkpt>
      <trkpt lat="48.45115" lon="7.34693">
        <ele>595.54860533387</ele>
        <time>2022-04-27T09:57:06.809Z</time>
      </trkpt>
      <trkpt lat="48.45091" lon="7.34615">
        <ele>598.48311037117</ele>
        <time>2022-04-27T09:57:12.772Z</time>
      </trkpt>
      <trkpt lat="48.45074" lon="7.34544">
        <ele>601.0773071708</ele>
        <time>2022-04-27T09:57:18.743Z</time>
      </trkpt>
      <trkpt lat="48.45066" lon="7.34504">
        <ele>603.62615537626</ele>
        <time>2022-04-27T09:57:24.718Z</time>
      </trkpt>
      <trkpt lat="48.45059" lon="7.3449">
        <ele>605.94926489104</ele>
        <time>2022-04-27T09:57:30.695Z</time>
      </trkpt>
      <trkpt lat="48.45046" lon="7.34479">
        <ele>608.1772047002</ele>
        <time>2022-04-27T09:57:36.675Z</time>
      </trkpt>
      <trkpt lat="48.45028" lon="7.3447">
        <ele>610.2989881544</ele>
        <time>2022-04-27T09:57:42.658Z</time>
      </trkpt>
      <trkpt lat="48.45014" lon="7.34464">
        <ele>612.32095994101</ele>
        <time>2022-04-27T09:57:48.643Z</time>
      </trkpt>
      <trkpt lat="48.45002" lon="7.34464">
        <ele>614.19845312997</ele>
        <time>2022-04-27T09:57:54.630Z</time>
      </trkpt>
      <trkpt lat="48.44989" lon="7.34468">
        <ele>616.08577840382</ele>
        <time>2022-04-27T09:58:00.619Z</time>
      </trkpt>
      <trkpt lat="48.44975" lon="7.34478">
        <ele>617.9047039841</ele>
        <time>2022-04-27T09:58:06.611Z</time>
      </trkpt>
      <trkpt lat="48.44966" lon="7.34489">
        <ele>619.55138339739</ele>
        <time>2022-04-27T09:58:12.605Z</time>
      </trkpt>
      <trkpt lat="48.44957" lon="7.3451">
        <ele>621.12073302254</ele>
        <time>2022-04-27T09:58:18.601Z</time>
      </trkpt>
      <trkpt lat="48.44935" lon="7.34579">
        <ele>622.86102148208</ele>
        <time>2022-04-27T09:58:24.605Z</time>
      </trkpt>
      <trkpt lat="48.44921" lon="7.34614">
        <ele>624.5485866686</ele>
        <time>2022-04-27T09:58:30.614Z</time>
      </trkpt>
      <trkpt lat="48.44907" lon="7.34635">
        <ele>626.16730304746</ele>
        <time>2022-04-27T09:58:36.626Z</time>
      </trkpt>
      <trkpt lat="48.4488" lon="7.34666">
        <ele>627.8610807098</ele>
        <time>2022-04-27T09:58:42.643Z</time>
      </trkpt>
      <trkpt lat="48.44857" lon="7.34685">
        <ele>629.5745775065</ele>
        <time>2022-04-27T09:58:48.664Z</time>
      </trkpt>
      <trkpt lat="48.44836" lon="7.34697">
        <ele>631.35560255984</ele>
        <time>2022-04-27T09:58:54.689Z</time>
      </trkpt>
      <trkpt lat="48.44819" lon="7.34704">
        <ele>633.12725073421</ele>
        <time>2022-04-27T09:59:00.717Z</time>
      </trkpt>
      <trkpt lat="48.44806" lon="7.34704">
        <ele>635.11601440163</ele>
        <time>2022-04-27T09:59:06.747Z</time>
      </trkpt>
      <trkpt lat="48.44791" lon="7.34696">
        <ele>637.24991403898</ele>
        <time>2022-04-27T09:59:12.779Z</time>
      </trkpt>
      <trkpt lat="48.44778" lon="7.34683">
        <ele>639.50103092338</ele>
        <time>2022-04-27T09:59:18.814Z</time>
      </trkpt>
      <trkpt lat="48.44723" lon="7.34603">
        <ele>641.85193516984</ele>
        <time>2022-04-27T09:59:24.861Z</time>
      </trkpt>
      <trkpt lat="48.44685" lon="7.34546">
        <ele>644.48067429872</ele>
        <time>2022-04-27T09:59:30.917Z</time>
      </trkpt>
      <trkpt lat="48.44674" lon="7.34525">
        <ele>647.12535316073</ele>
        <time>2022-04-27T09:59:36.976Z</time>
      </trkpt>
      <trkpt lat="48.44664" lon="7.34495">
        <ele>649.88230881621</ele>
        <time>2022-04-27T09:59:43.038Z</time>
      </trkpt>
      <trkpt lat="48.44632" lon="7.34382">
        <ele>653.14355832509</ele>
        <time>2022-04-27T09:59:49.113Z</time>
      </trkpt>
      <trkpt lat="48.44609" lon="7.34322">
        <ele>656.11479660942</ele>
        <time>2022-04-27T09:59:55.196Z</time>
      </trkpt>
      <trkpt lat="48.44513" lon="7.3416">
        <ele>659.64265610883</ele>
        <time>2022-04-27T10:00:01.302Z</time>
      </trkpt>
      <trkpt lat="48.44467" lon="7.34088">
        <ele>662.88712206086</ele>
        <time>2022-04-27T10:00:07.418Z</time>
      </trkpt>
      <trkpt lat="48.44434" lon="7.34037">
        <ele>666.21129102764</ele>
        <time>2022-04-27T10:00:13.542Z</time>
      </trkpt>
      <trkpt lat="48.444" lon="7.3397">
        <ele>669.54532291124</ele>
        <time>2022-04-27T10:00:19.675Z</time>
      </trkpt>
      <trkpt lat="48.44363" lon="7.3389">
        <ele>672.82518633573</ele>
        <time>2022-04-27T10:00:25.818Z</time>
      </trkpt>
      <trkpt lat="48.44356" lon="7.33869">
        <ele>675.92931512711</ele>
        <time>2022-04-27T10:00:31.964Z</time>
      </trkpt>
      <trkpt lat="48.44353" lon="7.33852">
        <ele>678.95740100696</ele>
        <time>2022-04-27T10:00:38.112Z</time>
      </trkpt>
      <trkpt lat="48.44351" lon="7.3383">
        <ele>682.01142218775</ele>
        <time>2022-04-27T10:00:44.262Z</time>
      </trkpt>
      <trkpt lat="48.4435" lon="7.3379">
        <ele>685.07317635885</ele>
        <time>2022-04-27T10:00:50.416Z</time>
      </trkpt>
      <trkpt lat="48.44347" lon="7.33774">
        <ele>687.86225976551</ele>
        <time>2022-04-27T10:00:56.572Z</time>
      </trkpt>
      <trkpt lat="48.4434" lon="7.33762">
        <ele>690.39525945348</ele>
        <time>2022-04-27T10:01:02.730Z</time>
      </trkpt>
      <trkpt lat="48.44331" lon="7.33756">
        <ele>692.80892348602</ele>
        <time>2022-04-27T10:01:08.889Z</time>
      </trkpt>
      <trkpt lat="48.44317" lon="7.33754">
        <ele>695.18006080665</ele>
        <time>2022-04-27T10:01:15.051Z</time>
      </trkpt>
      <trkpt lat="48.44299" lon="7.33759">
        <ele>697.40175786788</ele>
        <time>2022-04-27T10:01:21.216Z</time>
      </trkpt>
      <trkpt lat="48.44288" lon="7.33758">
        <ele>699.59878123249</ele>
        <time>2022-04-27T10:01:27.382Z</time>
      </trkpt>
      <trkpt lat="48.44257" lon="7.33741">
        <ele>701.94125076735</ele>
        <time>2022-04-27T10:01:33.554Z</time>
      </trkpt>
      <trkpt lat="48.44242" lon="7.33738">
        <ele>704.03750304318</ele>
        <time>2022-04-27T10:01:39.728Z</time>
      </trkpt>
      <trkpt lat="48.44191" lon="7.33735">
        <ele>706.24046658666</ele>
        <time>2022-04-27T10:01:45.910Z</time>
      </trkpt>
      <trkpt lat="48.4418" lon="7.33738">
        <ele>708.07246236485</ele>
        <time>2022-04-27T10:01:52.094Z</time>
      </trkpt>
      <trkpt lat="48.44169" lon="7.33747">
        <ele>709.76667705428</ele>
        <time>2022-04-27T10:01:58.280Z</time>
      </trkpt>
      <trkpt lat="48.44143" lon="7.33777">
        <ele>711.39468599002</ele>
        <time>2022-04-27T10:02:04.471Z</time>
      </trkpt>
      <trkpt lat="48.44132" lon="7.33785">
        <ele>713.03091888208</ele>
        <time>2022-04-27T10:02:10.664Z</time>
      </trkpt>
      <trkpt lat="48.44106" lon="7.33792">
        <ele>714.68621996446</ele>
        <time>2022-04-27T10:02:16.861Z</time>
      </trkpt>
      <trkpt lat="48.44086" lon="7.33802">
        <ele>716.30374923196</ele>
        <time>2022-04-27T10:02:23.062Z</time>
      </trkpt>
      <trkpt lat="48.44072" lon="7.33817">
        <ele>717.91360351914</ele>
        <time>2022-04-27T10:02:29.266Z</time>
      </trkpt>
      <trkpt lat="48.44045" lon="7.33866">
        <ele>719.51910552004</ele>
        <time>2022-04-27T10:02:35.476Z</time>
      </trkpt>
      <trkpt lat="48.44037" lon="7.33876">
        <ele>721.12825348745</ele>
        <time>2022-04-27T10:02:41.688Z</time>
      </trkpt>
      <trkpt lat="48.44019" lon="7.33893">
        <ele>722.82010649884</ele>
        <time>2022-04-27T10:02:47.903Z</time>
      </trkpt>
      <trkpt lat="48.4399" lon="7.33912">
        <ele>724.51053080907</ele>
        <time>2022-04-27T10:02:54.124Z</time>
      </trkpt>
      <trkpt lat="48.43932" lon="7.33941">
        <ele>726.34012558467</ele>
        <time>2022-04-27T10:03:00.354Z</time>
      </trkpt>
      <trkpt lat="48.4392" lon="7.33952">
        <ele>728.01890907004</ele>
        <time>2022-04-27T10:03:06.587Z</time>
      </trkpt>
      <trkpt lat="48.43874" lon="7.34018">
        <ele>729.88897379963</ele>
        <time>2022-04-27T10:03:12.830Z</time>
      </trkpt>
      <trkpt lat="48.43858" lon="7.34033">
        <ele>731.6976768897</ele>
        <time>2022-04-27T10:03:19.076Z</time>
      </trkpt>
      <trkpt lat="48.43841" lon="7.34046">
        <ele>733.47889804767</ele>
        <time>2022-04-27T10:03:25.325Z</time>
      </trkpt>
      <trkpt lat="48.43819" lon="7.34056">
        <ele>735.34559830279</ele>
        <time>2022-04-27T10:03:31.577Z</time>
      </trkpt>
      <trkpt lat="48.43771" lon="7.34064">
        <ele>737.58803856005</ele>
        <time>2022-04-27T10:03:37.837Z</time>
      </trkpt>
      <trkpt lat="48.43701" lon="7.34068">
        <ele>739.79578146201</ele>
        <time>2022-04-27T10:03:44.109Z</time>
      </trkpt>
      <trkpt lat="48.43664" lon="7.34066">
        <ele>741.83549320355</ele>
        <time>2022-04-27T10:03:50.386Z</time>
      </trkpt>
      <trkpt lat="48.43647" lon="7.34062">
        <ele>743.89827159994</ele>
        <time>2022-04-27T10:03:56.666Z</time>
      </trkpt>
      <trkpt lat="48.43637" lon="7.34055">
        <ele>746.04897300674</ele>
        <time>2022-04-27T10:04:02.948Z</time>
      </trkpt>
      <trkpt lat="48.43632" lon="7.34046">
        <ele>748.3125431266</ele>
        <time>2022-04-27T10:04:09.231Z</time>
      </trkpt>
      <trkpt lat="48.43631" lon="7.34033">
        <ele>750.68562104075</ele>
        <time>2022-04-27T10:04:15.516Z</time>
      </trkpt>
      <trkpt lat="48.43631" lon="7.34024">
        <ele>753.09146532035</ele>
        <time>2022-04-27T10:04:21.802Z</time>
      </trkpt>
      <trkpt lat="48.4364" lon="7.34011">
        <ele>755.63330431373</ele>
        <time>2022-04-27T10:04:28.090Z</time>
      </trkpt>
      <trkpt lat="48.43657" lon="7.34001">
        <ele>758.15588004116</ele>
        <time>2022-04-27T10:04:34.380Z</time>
      </trkpt>
      <trkpt lat="48.43705" lon="7.33986">
        <ele>760.78143155021</ele>
        <time>2022-04-27T10:04:40.678Z</time>
      </trkpt>
      <trkpt lat="48.43722" lon="7.33977">
        <ele>763.41300833944</ele>
        <time>2022-04-27T10:04:46.979Z</time>
      </trkpt>
      <trkpt lat="48.43735" lon="7.33965">
        <ele>766.16047921537</ele>
        <time>2022-04-27T10:04:53.283Z</time>
      </trkpt>
      <trkpt lat="48.43776" lon="7.33904">
        <ele>769.39011270942</ele>
        <time>2022-04-27T10:04:59.596Z</time>
      </trkpt>
      <trkpt lat="48.43819" lon="7.33846">
        <ele>772.20817517913</ele>
        <time>2022-04-27T10:05:05.918Z</time>
      </trkpt>
      <trkpt lat="48.4383" lon="7.33828">
        <ele>775.11601483331</ele>
        <time>2022-04-27T10:05:12.243Z</time>
      </trkpt>
      <trkpt lat="48.43848" lon="7.33783">
        <ele>778.19112409378</ele>
        <time>2022-04-27T10:05:18.573Z</time>
      </trkpt>
      <trkpt lat="48.4391" lon="7.33599">
        <ele>781.6172250574</ele>
        <time>2022-04-27T10:05:24.925Z</time>
      </trkpt>
      <trkpt lat="48.43917" lon="7.33571">
        <ele>784.50740765571</ele>
        <time>2022-04-27T10:05:31.280Z</time>
      </trkpt>
      <trkpt lat="48.43925" lon="7.33527">
        <ele>787.64460401632</ele>
        <time>2022-04-27T10:05:37.640Z</time>
      </trkpt>
      <trkpt lat="48.43931" lon="7.3351">
        <ele>790.56062007445</ele>
        <time>2022-04-27T10:05:44.002Z</time>
      </trkpt>
      <trkpt lat="48.44038" lon="7.33354">
        <ele>794.1992900242</ele>
        <time>2022-04-27T10:05:50.388Z</time>
      </trkpt>
      <trkpt lat="48.44089" lon="7.33291">
        <ele>797.15415605693</ele>
        <time>2022-04-27T10:05:56.785Z</time>
      </trkpt>
      <trkpt lat="48.44127" lon="7.33228">
        <ele>800.33841444387</ele>
        <time>2022-04-27T10:06:03.191Z</time>
      </trkpt>
      <trkpt lat="48.44144" lon="7.3321">
        <ele>803.06039491949</ele>
        <time>2022-04-27T10:06:09.600Z</time>
      </trkpt>
      <trkpt lat="48.44187" lon="7.33174">
        <ele>805.65002385866</ele>
        <time>2022-04-27T10:06:16.017Z</time>
      </trkpt>
      <trkpt lat="48.44201" lon="7.33152">
        <ele>808.36210451317</ele>
        <time>2022-04-27T10:06:22.437Z</time>
      </trkpt>
      <trkpt lat="48.44211" lon="7.33126">
        <ele>811.03624999201</ele>
        <time>2022-04-27T10:06:28.861Z</time>
      </trkpt>
      <trkpt lat="48.44232" lon="7.33044">
        <ele>813.70553370312</ele>
        <time>2022-04-27T10:06:35.294Z</time>
      </trkpt>
      <trkpt lat="48.44243" lon="7.33015">
        <ele>816.02479778269</ele>
        <time>2022-04-27T10:06:41.730Z</time>
      </trkpt>
      <trkpt lat="48.44289" lon="7.32922">
        <ele>818.57404180038</ele>
        <time>2022-04-27T10:06:48.179Z</time>
      </trkpt>
      <trkpt lat="48.44315" lon="7.32885">
        <ele>820.91171872316</ele>
        <time>2022-04-27T10:06:54.633Z</time>
      </trkpt>
      <trkpt lat="48.44338" lon="7.32866">
        <ele>822.95598026635</ele>
        <time>2022-04-27T10:07:01.092Z</time>
      </trkpt>
      <trkpt lat="48.4436" lon="7.32851">
        <ele>825.01536449867</ele>
        <time>2022-04-27T10:07:07.555Z</time>
      </trkpt>
      <trkpt lat="48.44396" lon="7.32843">
        <ele>827.09527758132</ele>
        <time>2022-04-27T10:07:14.023Z</time>
      </trkpt>
      <trkpt lat="48.44404" lon="7.3284">
        <ele>829.2911793895</ele>
        <time>2022-04-27T10:07:20.493Z</time>
      </trkpt>
      <trkpt lat="48.4441" lon="7.32834">
        <ele>831.53025352731</ele>
        <time>2022-04-27T10:07:26.964Z</time>
      </trkpt>
      <trkpt lat="48.44416" lon="7.32819">
        <ele>833.88750949128</ele>
        <time>2022-04-27T10:07:33.437Z</time>
      </trkpt>
      <trkpt lat="48.44417" lon="7.32804">
        <ele>836.27260840535</ele>
        <time>2022-04-27T10:07:39.911Z</time>
      </trkpt>
      <trkpt lat="48.44414" lon="7.3279">
        <ele>838.6862228767</ele>
        <time>2022-04-27T10:07:46.387Z</time>
      </trkpt>
      <trkpt lat="48.44408" lon="7.3278">
        <ele>841.1601072928</ele>
        <time>2022-04-27T10:07:52.864Z</time>
      </trkpt>
      <trkpt lat="48.44396" lon="7.32771">
        <ele>843.69092615556</ele>
        <time>2022-04-27T10:07:59.343Z</time>
      </trkpt>
      <trkpt lat="48.44358" lon="7.32756">
        <ele>846.36045841838</ele>
        <time>2022-04-27T10:08:05.829Z</time>
      </trkpt>
      <trkpt lat="48.44332" lon="7.32735">
        <ele>849.23090690547</ele>
        <time>2022-04-27T10:08:12.320Z</time>
      </trkpt>
      <trkpt lat="48.4431" lon="7.32708">
        <ele>852.34010586687</ele>
        <time>2022-04-27T10:08:18.815Z</time>
      </trkpt>
      <trkpt lat="48.44266" lon="7.32673">
        <ele>855.45857761523</ele>
        <time>2022-04-27T10:08:25.318Z</time>
      </trkpt>
      <trkpt lat="48.44197" lon="7.32637">
        <ele>858.42935250212</ele>
        <time>2022-04-27T10:08:31.833Z</time>
      </trkpt>
      <trkpt lat="48.44181" lon="7.32632">
        <ele>861.60110514036</ele>
        <time>2022-04-27T10:08:38.350Z</time>
      </trkpt>
      <trkpt lat="48.44151" lon="7.3263">
        <ele>864.99425583973</ele>
        <time>2022-04-27T10:08:44.872Z</time>
      </trkpt>
      <trkpt lat="48.44102" lon="7.3263">
        <ele>868.5413967803</ele>
        <time>2022-04-27T10:08:51.402Z</time>
      </trkpt>
      <trkpt lat="48.43982" lon="7.32647">
        <ele>872.30414273972</ele>
        <time>2022-04-27T10:08:57.951Z</time>
      </trkpt>
      <trkpt lat="48.43919" lon="7.32642">
        <ele>876.0701270521</ele>
        <time>2022-04-27T10:09:04.511Z</time>
      </trkpt>
      <trkpt lat="48.43806" lon="7.32615">
        <ele>879.99539286625</ele>
        <time>2022-04-27T10:09:11.089Z</time>
      </trkpt>
      <trkpt lat="48.43795" lon="7.3261">
        <ele>883.37874636273</ele>
        <time>2022-04-27T10:09:17.669Z</time>
      </trkpt>
      <trkpt lat="48.43774" lon="7.32598">
        <ele>886.72039468102</ele>
        <time>2022-04-27T10:09:24.252Z</time>
      </trkpt>
      <trkpt lat="48.43639" lon="7.32469">
        <ele>890.62969732513</ele>
        <time>2022-04-27T10:09:30.861Z</time>
      </trkpt>
      <trkpt lat="48.4358" lon="7.32418">
        <ele>894.28970162296</ele>
        <time>2022-04-27T10:09:37.481Z</time>
      </trkpt>
      <trkpt lat="48.43565" lon="7.324">
        <ele>897.71413544982</ele>
        <time>2022-04-27T10:09:44.104Z</time>
      </trkpt>
      <trkpt lat="48.4356" lon="7.32383">
        <ele>900.95673122615</ele>
        <time>2022-04-27T10:09:50.729Z</time>
      </trkpt>
      <trkpt lat="48.43559" lon="7.32361">
        <ele>904.12540413707</ele>
        <time>2022-04-27T10:09:57.356Z</time>
      </trkpt>
      <trkpt lat="48.43565" lon="7.32336">
        <ele>907.16233364998</ele>
        <time>2022-04-27T10:10:03.986Z</time>
      </trkpt>
      <trkpt lat="48.43582" lon="7.32279">
        <ele>909.86069157411</ele>
        <time>2022-04-27T10:10:10.623Z</time>
      </trkpt>
      <trkpt lat="48.43587" lon="7.32253">
        <ele>912.64929138399</ele>
        <time>2022-04-27T10:10:17.262Z</time>
      </trkpt>
      <trkpt lat="48.43587" lon="7.32229">
        <ele>915.29565440788</ele>
        <time>2022-04-27T10:10:23.904Z</time>
      </trkpt>
      <trkpt lat="48.43584" lon="7.32177">
        <ele>917.99054247172</ele>
        <time>2022-04-27T10:10:30.552Z</time>
      </trkpt>
      <trkpt lat="48.43579" lon="7.32136">
        <ele>920.5687997274</ele>
        <time>2022-04-27T10:10:37.204Z</time>
      </trkpt>
      <trkpt lat="48.43572" lon="7.32118">
        <ele>922.97791180544</ele>
        <time>2022-04-27T10:10:43.858Z</time>
      </trkpt>
      <trkpt lat="48.43555" lon="7.3209">
        <ele>925.35369991421</ele>
        <time>2022-04-27T10:10:50.516Z</time>
      </trkpt>
      <trkpt lat="48.43538" lon="7.32078">
        <ele>927.66537814208</ele>
        <time>2022-04-27T10:10:57.177Z</time>
      </trkpt>
      <trkpt lat="48.43523" lon="7.32073">
        <ele>929.9133503792</ele>
        <time>2022-04-27T10:11:03.841Z</time>
      </trkpt>
      <trkpt lat="48.43505" lon="7.32072">
        <ele>932.09925833135</ele>
        <time>2022-04-27T10:11:10.508Z</time>
      </trkpt>
      <trkpt lat="48.43481" lon="7.32073">
        <ele>934.21596959953</ele>
        <time>2022-04-27T10:11:17.178Z</time>
      </trkpt>
      <trkpt lat="48.43428" lon="7.32066">
        <ele>936.42117259757</ele>
        <time>2022-04-27T10:11:23.857Z</time>
      </trkpt>
      <trkpt lat="48.43416" lon="7.32057">
        <ele>938.42786627955</ele>
        <time>2022-04-27T10:11:30.538Z</time>
      </trkpt>
      <trkpt lat="48.43377" lon="7.3202">
        <ele>940.20693997716</ele>
        <time>2022-04-27T10:11:37.226Z</time>
      </trkpt>
      <trkpt lat="48.43292" lon="7.3192">
        <ele>942.36341875164</ele>
        <time>2022-04-27T10:11:43.932Z</time>
      </trkpt>
      <trkpt lat="48.43256" lon="7.31865">
        <ele>944.14767223312</ele>
        <time>2022-04-27T10:11:50.646Z</time>
      </trkpt>
      <trkpt lat="48.43241" lon="7.31852">
        <ele>945.93148387582</ele>
        <time>2022-04-27T10:11:57.363Z</time>
      </trkpt>
      <trkpt lat="48.43226" lon="7.31842">
        <ele>947.69624530281</ele>
        <time>2022-04-27T10:12:04.082Z</time>
      </trkpt>
      <trkpt lat="48.43182" lon="7.31827">
        <ele>949.52596881074</ele>
        <time>2022-04-27T10:12:10.809Z</time>
      </trkpt>
      <trkpt lat="48.43107" lon="7.31818">
        <ele>951.2464759395</ele>
        <time>2022-04-27T10:12:17.548Z</time>
      </trkpt>
      <trkpt lat="48.43084" lon="7.31809">
        <ele>952.71317171485</ele>
        <time>2022-04-27T10:12:24.291Z</time>
      </trkpt>
      <trkpt lat="48.43056" lon="7.31793">
        <ele>954.2262455313</ele>
        <time>2022-04-27T10:12:31.038Z</time>
      </trkpt>
      <trkpt lat="48.43001" lon="7.31755">
        <ele>955.83744804452</ele>
        <time>2022-04-27T10:12:37.795Z</time>
      </trkpt>
      <trkpt lat="48.42955" lon="7.31709">
        <ele>957.35671570589</ele>
        <time>2022-04-27T10:12:44.561Z</time>
      </trkpt>
      <trkpt lat="48.42909" lon="7.31655">
        <ele>958.25961068183</ele>
        <time>2022-04-27T10:12:51.336Z</time>
      </trkpt>
      <trkpt lat="48.42907" lon="7.31653">
        <ele>958.95716599085</ele>
        <time>2022-04-27T10:12:58.112Z</time>
      </trkpt>
      <trkpt lat="48.42872" lon="7.31602">
        <ele>959.54771987854</ele>
        <time>2022-04-27T10:13:04.895Z</time>
      </trkpt>
      <trkpt lat="48.42867" lon="7.31606">
        <ele>959.86071587147</ele>
        <time>2022-04-27T10:13:11.679Z</time>
      </trkpt>
      <trkpt lat="48.42853" lon="7.31615">
        <ele>959.9757739686</ele>
        <time>2022-04-27T10:13:18.466Z</time>
      </trkpt>
      <trkpt lat="48.42839" lon="7.3163">
        <ele>959.85540739602</ele>
        <time>2022-04-27T10:13:25.256Z</time>
      </trkpt>
      <trkpt lat="48.42835" lon="7.31631">
        <ele>959.43581026636</ele>
        <time>2022-04-27T10:13:32.046Z</time>
      </trkpt>
      <trkpt lat="48.42834" lon="7.31643">
        <ele>958.82600875229</ele>
        <time>2022-04-27T10:13:38.837Z</time>
      </trkpt>
      <trkpt lat="48.42834" lon="7.3165">
        <ele>957.96693642993</ele>
        <time>2022-04-27T10:13:45.629Z</time>
      </trkpt>
      <trkpt lat="48.42832" lon="7.31669">
        <ele>956.90893838475</ele>
        <time>2022-04-27T10:13:52.423Z</time>
      </trkpt>
      <trkpt lat="48.42809" lon="7.31785">
        <ele>955.22499781886</ele>
        <time>2022-04-27T10:13:59.230Z</time>
      </trkpt>
      <trkpt lat="48.42777" lon="7.32054">
        <ele>952.97461224906</ele>
        <time>2022-04-27T10:14:06.066Z</time>
      </trkpt>
      <trkpt lat="48.42769" lon="7.32083">
        <ele>951.24954761246</ele>
        <time>2022-04-27T10:14:12.906Z</time>
      </trkpt>
      <trkpt lat="48.42761" lon="7.32105">
        <ele>949.32389940658</ele>
        <time>2022-04-27T10:14:19.748Z</time>
      </trkpt>
      <trkpt lat="48.42747" lon="7.32137">
        <ele>947.24229981429</ele>
        <time>2022-04-27T10:14:26.594Z</time>
      </trkpt>
      <trkpt lat="48.42739" lon="7.32151">
        <ele>945.19399291148</ele>
        <time>2022-04-27T10:14:33.442Z</time>
      </trkpt>
      <trkpt lat="48.42731" lon="7.32164">
        <ele>943.07825931155</ele>
        <time>2022-04-27T10:14:40.292Z</time>
      </trkpt>
      <trkpt lat="48.42715" lon="7.32183">
        <ele>940.91837955038</ele>
        <time>2022-04-27T10:14:47.145Z</time>
      </trkpt>
      <trkpt lat="48.42642" lon="7.32259">
        <ele>938.61822098084</ele>
        <time>2022-04-27T10:14:54.013Z</time>
      </trkpt>
      <trkpt lat="48.4261" lon="7.32287">
        <ele>936.39717768291</ele>
        <time>2022-04-27T10:15:00.887Z</time>
      </trkpt>
      <trkpt lat="48.42532" lon="7.32344">
        <ele>933.87164698623</ele>
        <time>2022-04-27T10:15:07.775Z</time>
      </trkpt>
      <trkpt lat="48.42504" lon="7.32378">
        <ele>931.62324347125</ele>
        <time>2022-04-27T10:15:14.668Z</time>
      </trkpt>
      <trkpt lat="48.42481" lon="7.32414">
        <ele>929.49764357397</ele>
        <time>2022-04-27T10:15:21.567Z</time>
      </trkpt>
      <trkpt lat="48.42432" lon="7.32508">
        <ele>927.68143433469</ele>
        <time>2022-04-27T10:15:28.478Z</time>
      </trkpt>
      <trkpt lat="48.42373" lon="7.32597">
        <ele>925.35701051368</ele>
        <time>2022-04-27T10:15:35.403Z</time>
      </trkpt>
      <trkpt lat="48.42314" lon="7.32667">
        <ele>923.26331461183</ele>
        <time>2022-04-27T10:15:42.340Z</time>
      </trkpt>
      <trkpt lat="48.42234" lon="7.32731">
        <ele>921.25682627401</ele>
        <time>2022-04-27T10:15:49.291Z</time>
      </trkpt>
      <trkpt lat="48.42185" lon="7.32775">
        <ele>919.33285512595</ele>
        <time>2022-04-27T10:15:56.251Z</time>
      </trkpt>
      <trkpt lat="48.42152" lon="7.32824">
        <ele>917.52336035593</ele>
        <time>2022-04-27T10:16:03.219Z</time>
      </trkpt>
      <trkpt lat="48.42138" lon="7.32851">
        <ele>915.91003719145</ele>
        <time>2022-04-27T10:16:10.190Z</time>
      </trkpt>
      <trkpt lat="48.42128" lon="7.3288">
        <ele>914.45762371856</ele>
        <time>2022-04-27T10:16:17.165Z</time>
      </trkpt>
      <trkpt lat="48.42121" lon="7.32913">
        <ele>913.11690615125</ele>
        <time>2022-04-27T10:16:24.144Z</time>
      </trkpt>
      <trkpt lat="48.42115" lon="7.32965">
        <ele>911.92609167572</ele>
        <time>2022-04-27T10:16:31.128Z</time>
      </trkpt>
      <trkpt lat="48.4212" lon="7.33027">
        <ele>910.8590760649</ele>
        <time>2022-04-27T10:16:38.119Z</time>
      </trkpt>
      <trkpt lat="48.42128" lon="7.3307">
        <ele>909.78479630531</ele>
        <time>2022-04-27T10:16:45.115Z</time>
      </trkpt>
      <trkpt lat="48.42191" lon="7.3334">
        <ele>908.9904758946</ele>
        <time>2022-04-27T10:16:52.141Z</time>
      </trkpt>
      <trkpt lat="48.42201" lon="7.33375">
        <ele>908.09545263871</ele>
        <time>2022-04-27T10:16:59.171Z</time>
      </trkpt>
      <trkpt lat="48.42248" lon="7.33477">
        <ele>907.32651401733</ele>
        <time>2022-04-27T10:17:06.214Z</time>
      </trkpt>
      <trkpt lat="48.42278" lon="7.33546">
        <ele>906.3949556555</ele>
        <time>2022-04-27T10:17:13.266Z</time>
      </trkpt>
      <trkpt lat="48.42305" lon="7.336">
        <ele>905.41372150173</ele>
        <time>2022-04-27T10:17:20.325Z</time>
      </trkpt>
      <trkpt lat="48.42343" lon="7.33673">
        <ele>904.66385051867</ele>
        <time>2022-04-27T10:17:27.394Z</time>
      </trkpt>
      <trkpt lat="48.42372" lon="7.33721">
        <ele>903.99813135696</ele>
        <time>2022-04-27T10:17:34.470Z</time>
      </trkpt>
      <trkpt lat="48.42394" lon="7.33768">
        <ele>903.19592725908</ele>
        <time>2022-04-27T10:17:41.552Z</time>
      </trkpt>
      <trkpt lat="48.42401" lon="7.33798">
        <ele>902.4125870166</ele>
        <time>2022-04-27T10:17:48.638Z</time>
      </trkpt>
      <trkpt lat="48.42405" lon="7.33825">
        <ele>901.5532345066</ele>
        <time>2022-04-27T10:17:55.727Z</time>
      </trkpt>
      <trkpt lat="48.42406" lon="7.33866">
        <ele>900.64084578462</ele>
        <time>2022-04-27T10:18:02.820Z</time>
      </trkpt>
      <trkpt lat="48.42393" lon="7.33952">
        <ele>899.5191780062</ele>
        <time>2022-04-27T10:18:09.923Z</time>
      </trkpt>
      <trkpt lat="48.42391" lon="7.33982">
        <ele>898.33745438393</ele>
        <time>2022-04-27T10:18:17.029Z</time>
      </trkpt>
      <trkpt lat="48.42396" lon="7.34123">
        <ele>897.15088724529</ele>
        <time>2022-04-27T10:18:24.150Z</time>
      </trkpt>
      <trkpt lat="48.42396" lon="7.34165">
        <ele>895.81866060737</ele>
        <time>2022-04-27T10:18:31.275Z</time>
      </trkpt>
      <trkpt lat="48.42392" lon="7.34208">
        <ele>894.27000399708</ele>
        <time>2022-04-27T10:18:38.405Z</time>
      </trkpt>
      <trkpt lat="48.42362" lon="7.34419">
        <ele>891.97551074189</ele>
        <time>2022-04-27T10:18:45.558Z</time>
      </trkpt>
      <trkpt lat="48.42345" lon="7.3455">
        <ele>890.06521783638</ele>
        <time>2022-04-27T10:18:52.725Z</time>
      </trkpt>
      <trkpt lat="48.42342" lon="7.34582">
        <ele>888.12387880747</ele>
        <time>2022-04-27T10:18:59.896Z</time>
      </trkpt>
      <trkpt lat="48.42342" lon="7.34613">
        <ele>886.02647125338</ele>
        <time>2022-04-27T10:19:07.070Z</time>
      </trkpt>
      <trkpt lat="48.42346" lon="7.34651">
        <ele>883.83337304603</ele>
        <time>2022-04-27T10:19:14.248Z</time>
      </trkpt>
      <trkpt lat="48.42356" lon="7.34708">
        <ele>881.51239620382</ele>
        <time>2022-04-27T10:19:21.432Z</time>
      </trkpt>
      <trkpt lat="48.42356" lon="7.34731">
        <ele>879.06163943439</ele>
        <time>2022-04-27T10:19:28.619Z</time>
      </trkpt>
      <trkpt lat="48.42351" lon="7.34752">
        <ele>876.47416478812</ele>
        <time>2022-04-27T10:19:35.808Z</time>
      </trkpt>
      <trkpt lat="48.4234" lon="7.34774">
        <ele>873.73908271596</ele>
        <time>2022-04-27T10:19:43.000Z</time>
      </trkpt>
      <trkpt lat="48.42331" lon="7.34784">
        <ele>870.95502831096</ele>
        <time>2022-04-27T10:19:50.194Z</time>
      </trkpt>
      <trkpt lat="48.42318" lon="7.34793">
        <ele>868.06081614556</ele>
        <time>2022-04-27T10:19:57.390Z</time>
      </trkpt>
      <trkpt lat="48.42286" lon="7.34809">
        <ele>864.99966425679</ele>
        <time>2022-04-27T10:20:04.591Z</time>
      </trkpt>
      <trkpt lat="48.42258" lon="7.34828">
        <ele>861.73735097642</ele>
        <time>2022-04-27T10:20:11.797Z</time>
      </trkpt>
      <trkpt lat="48.42234" lon="7.34848">
        <ele>858.39778164701</ele>
        <time>2022-04-27T10:20:19.008Z</time>
      </trkpt>
      <trkpt lat="48.42125" lon="7.34997">
        <ele>854.55766406954</ele>
        <time>2022-04-27T10:20:26.242Z</time>
      </trkpt>
      <trkpt lat="48.421" lon="7.35016">
        <ele>851.03390658367</ele>
        <time>2022-04-27T10:20:33.481Z</time>
      </trkpt>
      <trkpt lat="48.42084" lon="7.35021">
        <ele>847.60772031962</ele>
        <time>2022-04-27T10:20:40.722Z</time>
      </trkpt>
      <trkpt lat="48.42052" lon="7.3502">
        <ele>844.15979316229</ele>
        <time>2022-04-27T10:20:47.969Z</time>
      </trkpt>
      <trkpt lat="48.41977" lon="7.35009">
        <ele>840.31872566234</ele>
        <time>2022-04-27T10:20:55.228Z</time>
      </trkpt>
      <trkpt lat="48.41897" lon="7.34978">
        <ele>836.77147077</ele>
        <time>2022-04-27T10:21:02.500Z</time>
      </trkpt>
      <trkpt lat="48.41878" lon="7.34973">
        <ele>833.53622582198</ele>
        <time>2022-04-27T10:21:09.775Z</time>
      </trkpt>
      <trkpt lat="48.41856" lon="7.3497">
        <ele>830.34989236722</ele>
        <time>2022-04-27T10:21:17.054Z</time>
      </trkpt>
      <trkpt lat="48.41815" lon="7.34971">
        <ele>826.9030097503</ele>
        <time>2022-04-27T10:21:24.339Z</time>
      </trkpt>
      <trkpt lat="48.41745" lon="7.34978">
        <ele>820.43854316063</ele>
        <time>2022-04-27T10:21:31.635Z</time>
      </trkpt>
      <trkpt lat="48.41728" lon="7.34977">
        <ele>817.50368831416</ele>
        <time>2022-04-27T10:21:38.934Z</time>
      </trkpt>
      <trkpt lat="48.41709" lon="7.34972">
        <ele>814.70630786142</ele>
        <time>2022-04-27T10:21:46.236Z</time>
      </trkpt>
      <trkpt lat="48.41678" lon="7.34957">
        <ele>812.05731295011</ele>
        <time>2022-04-27T10:21:53.543Z</time>
      </trkpt>
      <trkpt lat="48.41653" lon="7.34939">
        <ele>809.63398111663</ele>
        <time>2022-04-27T10:22:00.855Z</time>
      </trkpt>
      <trkpt lat="48.41644" lon="7.3493">
        <ele>807.32353911107</ele>
        <time>2022-04-27T10:22:08.169Z</time>
      </trkpt>
      <trkpt lat="48.41625" lon="7.34906">
        <ele>805.1007897559</ele>
        <time>2022-04-27T10:22:15.486Z</time>
      </trkpt>
      <trkpt lat="48.41617" lon="7.34892">
        <ele>803.03318861034</ele>
        <time>2022-04-27T10:22:22.805Z</time>
      </trkpt>
      <trkpt lat="48.41603" lon="7.34855">
        <ele>801.0503416327</ele>
        <time>2022-04-27T10:22:30.129Z</time>
      </trkpt>
      <trkpt lat="48.41586" lon="7.34801">
        <ele>799.19930270316</ele>
        <time>2022-04-27T10:22:37.459Z</time>
      </trkpt>
      <trkpt lat="48.41581" lon="7.3479">
        <ele>797.5990098959</ele>
        <time>2022-04-27T10:22:44.791Z</time>
      </trkpt>
      <trkpt lat="48.41573" lon="7.34778">
        <ele>796.10839166783</ele>
        <time>2022-04-27T10:22:52.125Z</time>
      </trkpt>
      <trkpt lat="48.41567" lon="7.34771">
        <ele>794.75754123027</ele>
        <time>2022-04-27T10:22:59.460Z</time>
      </trkpt>
      <trkpt lat="48.41563" lon="7.34768">
        <ele>793.54183952115</ele>
        <time>2022-04-27T10:23:06.795Z</time>
      </trkpt>
      <trkpt lat="48.41554" lon="7.34763">
        <ele>792.41689210452</ele>
        <time>2022-04-27T10:23:14.132Z</time>
      </trkpt>
      <trkpt lat="48.41536" lon="7.34763">
        <ele>791.43924786751</ele>
        <time>2022-04-27T10:23:21.472Z</time>
      </trkpt>
      <trkpt lat="48.41526" lon="7.34767">
        <ele>790.56687572045</ele>
        <time>2022-04-27T10:23:28.813Z</time>
      </trkpt>
      <trkpt lat="48.415" lon="7.34784">
        <ele>789.74230636226</ele>
        <time>2022-04-27T10:23:36.159Z</time>
      </trkpt>
      <trkpt lat="48.41476" lon="7.34802">
        <ele>788.95458707055</ele>
        <time>2022-04-27T10:23:43.509Z</time>
      </trkpt>
      <trkpt lat="48.41466" lon="7.34811">
        <ele>788.31574882489</ele>
        <time>2022-04-27T10:23:50.861Z</time>
      </trkpt>
      <trkpt lat="48.41451" lon="7.34828">
        <ele>787.7301009017</ele>
        <time>2022-04-27T10:23:58.216Z</time>
      </trkpt>
      <trkpt lat="48.4143" lon="7.34873">
        <ele>787.23092100553</ele>
        <time>2022-04-27T10:24:05.577Z</time>
      </trkpt>
      <trkpt lat="48.41423" lon="7.34885">
        <ele>786.88285223909</ele>
        <time>2022-04-27T10:24:12.940Z</time>
      </trkpt>
      <trkpt lat="48.41419" lon="7.34878">
        <ele>786.64288515813</ele>
        <time>2022-04-27T10:24:20.304Z</time>
      </trkpt>
      <trkpt lat="48.41415" lon="7.34876">
        <ele>786.4495095372</ele>
        <time>2022-04-27T10:24:27.668Z</time>
      </trkpt>
      <trkpt lat="48.4141" lon="7.34877">
        <ele>786.31237729355</ele>
        <time>2022-04-27T10:24:35.033Z</time>
      </trkpt>
      <trkpt lat="48.41406" lon="7.34881">
        <ele>786.21363642035</ele>
        <time>2022-04-27T10:24:42.399Z</time>
      </trkpt>
      <trkpt lat="48.41404" lon="7.34889">
        <ele>786.12918327391</ele>
        <time>2022-04-27T10:24:49.766Z</time>
      </trkpt>
      <trkpt lat="48.41404" lon="7.34896">
        <ele>786.03692391725</ele>
        <time>2022-04-27T10:24:57.134Z</time>
      </trkpt>
      <trkpt lat="48.41407" lon="7.34903">
        <ele>785.93690005338</ele>
        <time>2022-04-27T10:25:04.503Z</time>
      </trkpt>
      <trkpt lat="48.41412" lon="7.34906">
        <ele>785.82491656196</ele>
        <time>2022-04-27T10:25:11.872Z</time>
      </trkpt>
      <trkpt lat="48.41406" lon="7.34944">
        <ele>785.70394504443</ele>
        <time>2022-04-27T10:25:19.245Z</time>
      </trkpt>
      <trkpt lat="48.41403" lon="7.34961">
        <ele>785.55722689278</ele>
        <time>2022-04-27T10:25:26.620Z</time>
      </trkpt>
      <trkpt lat="48.414" lon="7.34979">
        <ele>785.42450864802</ele>
        <time>2022-04-27T10:25:33.997Z</time>
      </trkpt>
      <trkpt lat="48.41398" lon="7.35017">
        <ele>785.25354554838</ele>
        <time>2022-04-27T10:25:41.378Z</time>
      </trkpt>
      <trkpt lat="48.41401" lon="7.35039">
        <ele>784.91433451644</ele>
        <time>2022-04-27T10:25:48.762Z</time>
      </trkpt>
      <trkpt lat="48.41403" lon="7.35043">
        <ele>784.51785526029</ele>
        <time>2022-04-27T10:25:56.146Z</time>
      </trkpt>
      <trkpt lat="48.41407" lon="7.3505">
        <ele>784.01269059638</ele>
        <time>2022-04-27T10:26:03.531Z</time>
      </trkpt>
      <trkpt lat="48.41413" lon="7.35056">
        <ele>783.37000155549</ele>
        <time>2022-04-27T10:26:10.917Z</time>
      </trkpt>
      <trkpt lat="48.41415" lon="7.35059">
        <ele>782.68823282402</ele>
        <time>2022-04-27T10:26:18.304Z</time>
      </trkpt>
      <trkpt lat="48.41425" lon="7.35063">
        <ele>781.8275459127</ele>
        <time>2022-04-27T10:26:25.693Z</time>
      </trkpt>
      <trkpt lat="48.41437" lon="7.35064">
        <ele>780.87992217843</ele>
        <time>2022-04-27T10:26:33.083Z</time>
      </trkpt>
      <trkpt lat="48.41478" lon="7.35054">
        <ele>780.1169116262</ele>
        <time>2022-04-27T10:26:40.480Z</time>
      </trkpt>
      <trkpt lat="48.41496" lon="7.35055">
        <ele>779.24381227926</ele>
        <time>2022-04-27T10:26:47.880Z</time>
      </trkpt>
      <trkpt lat="48.4153" lon="7.35068">
        <ele>778.1019478179</ele>
        <time>2022-04-27T10:26:55.286Z</time>
      </trkpt>
      <trkpt lat="48.4156" lon="7.35088">
        <ele>776.79409626878</ele>
        <time>2022-04-27T10:27:02.697Z</time>
      </trkpt>
      <trkpt lat="48.41647" lon="7.35166">
        <ele>775.35774245277</ele>
        <time>2022-04-27T10:27:10.124Z</time>
      </trkpt>
      <trkpt lat="48.41678" lon="7.35196">
        <ele>773.81382344749</ele>
        <time>2022-04-27T10:27:17.557Z</time>
      </trkpt>
      <trkpt lat="48.41691" lon="7.35212">
        <ele>772.31039442422</ele>
        <time>2022-04-27T10:27:24.993Z</time>
      </trkpt>
      <trkpt lat="48.41755" lon="7.35302">
        <ele>770.57952184817</ele>
        <time>2022-04-27T10:27:32.443Z</time>
      </trkpt>
      <trkpt lat="48.41763" lon="7.35319">
        <ele>769.0877326995</ele>
        <time>2022-04-27T10:27:39.895Z</time>
      </trkpt>
      <trkpt lat="48.41767" lon="7.35336">
        <ele>767.52849940499</ele>
        <time>2022-04-27T10:27:47.349Z</time>
      </trkpt>
      <trkpt lat="48.4177" lon="7.35419">
        <ele>765.60263606842</ele>
        <time>2022-04-27T10:27:54.812Z</time>
      </trkpt>
      <trkpt lat="48.41773" lon="7.35445">
        <ele>764.038836041</ele>
        <time>2022-04-27T10:28:02.278Z</time>
      </trkpt>
      <trkpt lat="48.41778" lon="7.35472">
        <ele>762.53344128043</ele>
        <time>2022-04-27T10:28:09.747Z</time>
      </trkpt>
      <trkpt lat="48.41805" lon="7.35575">
        <ele>760.87953941204</ele>
        <time>2022-04-27T10:28:17.227Z</time>
      </trkpt>
      <trkpt lat="48.41815" lon="7.35603">
        <ele>759.42537782314</ele>
        <time>2022-04-27T10:28:24.711Z</time>
      </trkpt>
      <trkpt lat="48.41828" lon="7.3563">
        <ele>758.05631023192</ele>
        <time>2022-04-27T10:28:32.198Z</time>
      </trkpt>
      <trkpt lat="48.41848" lon="7.35658">
        <ele>756.543741719</ele>
        <time>2022-04-27T10:28:39.690Z</time>
      </trkpt>
      <trkpt lat="48.41859" lon="7.3567">
        <ele>755.14862305516</ele>
        <time>2022-04-27T10:28:47.184Z</time>
      </trkpt>
      <trkpt lat="48.4187" lon="7.3568">
        <ele>753.84336430713</ele>
        <time>2022-04-27T10:28:54.680Z</time>
      </trkpt>
      <trkpt lat="48.41896" lon="7.35694">
        <ele>752.56082709412</ele>
        <time>2022-04-27T10:29:02.180Z</time>
      </trkpt>
      <trkpt lat="48.41915" lon="7.35699">
        <ele>751.36891651708</ele>
        <time>2022-04-27T10:29:09.683Z</time>
      </trkpt>
      <trkpt lat="48.41934" lon="7.35697">
        <ele>750.2163543106</ele>
        <time>2022-04-27T10:29:17.189Z</time>
      </trkpt>
      <trkpt lat="48.4195" lon="7.35691">
        <ele>749.15927356198</ele>
        <time>2022-04-27T10:29:24.698Z</time>
      </trkpt>
      <trkpt lat="48.41989" lon="7.35665">
        <ele>748.43864464962</ele>
        <time>2022-04-27T10:29:32.214Z</time>
      </trkpt>
      <trkpt lat="48.41997" lon="7.35665">
        <ele>747.39795082566</ele>
        <time>2022-04-27T10:29:39.731Z</time>
      </trkpt>
      <trkpt lat="48.42004" lon="7.35669">
        <ele>746.38965749454</ele>
        <time>2022-04-27T10:29:47.249Z</time>
      </trkpt>
      <trkpt lat="48.42012" lon="7.35679">
        <ele>745.34011210983</ele>
        <time>2022-04-27T10:29:54.769Z</time>
      </trkpt>
      <trkpt lat="48.42015" lon="7.35692">
        <ele>744.16788244985</ele>
        <time>2022-04-27T10:30:02.291Z</time>
      </trkpt>
      <trkpt lat="48.42015" lon="7.35708">
        <ele>742.96779551837</ele>
        <time>2022-04-27T10:30:09.814Z</time>
      </trkpt>
      <trkpt lat="48.42014" lon="7.35729">
        <ele>741.63798753825</ele>
        <time>2022-04-27T10:30:17.340Z</time>
      </trkpt>
      <trkpt lat="48.42007" lon="7.35754">
        <ele>740.18995259929</ele>
        <time>2022-04-27T10:30:24.868Z</time>
      </trkpt>
      <trkpt lat="48.41994" lon="7.35781">
        <ele>738.61639756432</ele>
        <time>2022-04-27T10:30:32.400Z</time>
      </trkpt>
      <trkpt lat="48.41922" lon="7.35874">
        <ele>736.72090796315</ele>
        <time>2022-04-27T10:30:39.947Z</time>
      </trkpt>
      <trkpt lat="48.41864" lon="7.35957">
        <ele>734.82406822537</ele>
        <time>2022-04-27T10:30:47.507Z</time>
      </trkpt>
      <trkpt lat="48.4185" lon="7.3598">
        <ele>733.05479007632</ele>
        <time>2022-04-27T10:30:55.070Z</time>
      </trkpt>
      <trkpt lat="48.41844" lon="7.36">
        <ele>731.36871903656</ele>
        <time>2022-04-27T10:31:02.636Z</time>
      </trkpt>
      <trkpt lat="48.41838" lon="7.36041">
        <ele>729.53595237935</ele>
        <time>2022-04-27T10:31:10.206Z</time>
      </trkpt>
      <trkpt lat="48.41838" lon="7.36082">
        <ele>727.72592690118</ele>
        <time>2022-04-27T10:31:17.780Z</time>
      </trkpt>
      <trkpt lat="48.41842" lon="7.36102">
        <ele>726.04233714208</ele>
        <time>2022-04-27T10:31:25.357Z</time>
      </trkpt>
      <trkpt lat="48.41847" lon="7.36117">
        <ele>724.38771483688</ele>
        <time>2022-04-27T10:31:32.936Z</time>
      </trkpt>
      <trkpt lat="48.41855" lon="7.36134">
        <ele>722.7693246225</ele>
        <time>2022-04-27T10:31:40.517Z</time>
      </trkpt>
      <trkpt lat="48.41906" lon="7.36202">
        <ele>721.28119857879</ele>
        <time>2022-04-27T10:31:48.109Z</time>
      </trkpt>
      <trkpt lat="48.41936" lon="7.36248">
        <ele>719.80366512279</ele>
        <time>2022-04-27T10:31:55.708Z</time>
      </trkpt>
      <trkpt lat="48.41988" lon="7.36343">
        <ele>718.3539116884</ele>
        <time>2022-04-27T10:32:03.320Z</time>
      </trkpt>
      <trkpt lat="48.42005" lon="7.36369">
        <ele>716.75870823349</ele>
        <time>2022-04-27T10:32:10.936Z</time>
      </trkpt>
      <trkpt lat="48.42025" lon="7.36384">
        <ele>715.33219877859</ele>
        <time>2022-04-27T10:32:18.555Z</time>
      </trkpt>
      <trkpt lat="48.42057" lon="7.36392">
        <ele>713.84881471941</ele>
        <time>2022-04-27T10:32:26.179Z</time>
      </trkpt>
      <trkpt lat="48.4208" lon="7.36389">
        <ele>712.58639009127</ele>
        <time>2022-04-27T10:32:33.807Z</time>
      </trkpt>
      <trkpt lat="48.42108" lon="7.36381">
        <ele>711.41036368444</ele>
        <time>2022-04-27T10:32:41.440Z</time>
      </trkpt>
      <trkpt lat="48.42126" lon="7.36384">
        <ele>710.30841099041</ele>
        <time>2022-04-27T10:32:49.076Z</time>
      </trkpt>
      <trkpt lat="48.42141" lon="7.36399">
        <ele>709.13822835233</ele>
        <time>2022-04-27T10:32:56.714Z</time>
      </trkpt>
      <trkpt lat="48.42148" lon="7.3643">
        <ele>707.7745227028</ele>
        <time>2022-04-27T10:33:04.356Z</time>
      </trkpt>
      <trkpt lat="48.42157" lon="7.36497">
        <ele>706.23254581806</ele>
        <time>2022-04-27T10:33:12.005Z</time>
      </trkpt>
      <trkpt lat="48.42165" lon="7.36539">
        <ele>704.96873952498</ele>
        <time>2022-04-27T10:33:19.659Z</time>
      </trkpt>
      <trkpt lat="48.42179" lon="7.36572">
        <ele>703.84856882346</ele>
        <time>2022-04-27T10:33:27.317Z</time>
      </trkpt>
      <trkpt lat="48.42201" lon="7.36618">
        <ele>702.85027744398</ele>
        <time>2022-04-27T10:33:34.981Z</time>
      </trkpt>
      <trkpt lat="48.42244" lon="7.3669">
        <ele>701.90192341078</ele>
        <time>2022-04-27T10:33:42.655Z</time>
      </trkpt>
      <trkpt lat="48.4228" lon="7.36749">
        <ele>700.99539151414</ele>
        <time>2022-04-27T10:33:50.338Z</time>
      </trkpt>
      <trkpt lat="48.42348" lon="7.36861">
        <ele>700.38775839062</ele>
        <time>2022-04-27T10:33:58.037Z</time>
      </trkpt>
      <trkpt lat="48.42451" lon="7.36969">
        <ele>699.97969213364</ele>
        <time>2022-04-27T10:34:05.756Z</time>
      </trkpt>
      <trkpt lat="48.42516" lon="7.37044">
        <ele>699.54888096574</ele>
        <time>2022-04-27T10:34:13.488Z</time>
      </trkpt>
      <trkpt lat="48.42586" lon="7.37114">
        <ele>699.1335854678</ele>
        <time>2022-04-27T10:34:21.234Z</time>
      </trkpt>
      <trkpt lat="48.42591" lon="7.37119">
        <ele>698.70564563719</ele>
        <time>2022-04-27T10:34:28.981Z</time>
      </trkpt>
      <trkpt lat="48.42612" lon="7.3714">
        <ele>698.33247528879</ele>
        <time>2022-04-27T10:34:36.732Z</time>
      </trkpt>
      <trkpt lat="48.42648" lon="7.37172">
        <ele>697.8679010478</ele>
        <time>2022-04-27T10:34:44.489Z</time>
      </trkpt>
      <trkpt lat="48.42671" lon="7.37203">
        <ele>697.45942734033</ele>
        <time>2022-04-27T10:34:52.251Z</time>
      </trkpt>
      <trkpt lat="48.42681" lon="7.37226">
        <ele>697.25226188073</ele>
        <time>2022-04-27T10:35:00.016Z</time>
      </trkpt>
      <trkpt lat="48.42684" lon="7.37237">
        <ele>697.16845430104</ele>
        <time>2022-04-27T10:35:07.783Z</time>
      </trkpt>
      <trkpt lat="48.42688" lon="7.37265">
        <ele>697.17183514117</ele>
        <time>2022-04-27T10:35:15.553Z</time>
      </trkpt>
      <trkpt lat="48.42695" lon="7.37312">
        <ele>697.26141667217</ele>
        <time>2022-04-27T10:35:23.328Z</time>
      </trkpt>
      <trkpt lat="48.42705" lon="7.37365">
        <ele>697.42228232335</ele>
        <time>2022-04-27T10:35:31.109Z</time>
      </trkpt>
      <trkpt lat="48.42719" lon="7.37407">
        <ele>697.68986187575</ele>
        <time>2022-04-27T10:35:38.895Z</time>
      </trkpt>
      <trkpt lat="48.42729" lon="7.3745">
        <ele>698.06824133897</ele>
        <time>2022-04-27T10:35:46.685Z</time>
      </trkpt>
      <trkpt lat="48.42733" lon="7.37474">
        <ele>698.54227595858</ele>
        <time>2022-04-27T10:35:54.478Z</time>
      </trkpt>
      <trkpt lat="48.42739" lon="7.37545">
        <ele>699.07146144515</ele>
        <time>2022-04-27T10:36:02.279Z</time>
      </trkpt>
      <trkpt lat="48.42743" lon="7.37565">
        <ele>699.82370090498</ele>
        <time>2022-04-27T10:36:10.082Z</time>
      </trkpt>
      <trkpt lat="48.42758" lon="7.37595">
        <ele>700.75739529143</ele>
        <time>2022-04-27T10:36:17.889Z</time>
      </trkpt>
      <trkpt lat="48.42787" lon="7.37633">
        <ele>701.73384663771</ele>
        <time>2022-04-27T10:36:25.702Z</time>
      </trkpt>
      <trkpt lat="48.428" lon="7.37657">
        <ele>702.6044237044</ele>
        <time>2022-04-27T10:36:33.518Z</time>
      </trkpt>
      <trkpt lat="48.42809" lon="7.37684">
        <ele>703.63653065279</ele>
        <time>2022-04-27T10:36:41.338Z</time>
      </trkpt>
      <trkpt lat="48.42813" lon="7.37699">
        <ele>704.68534757855</ele>
        <time>2022-04-27T10:36:49.159Z</time>
      </trkpt>
      <trkpt lat="48.42815" lon="7.37708">
        <ele>705.69834351622</ele>
        <time>2022-04-27T10:36:56.981Z</time>
      </trkpt>
      <trkpt lat="48.42819" lon="7.37739">
        <ele>706.79067393213</ele>
        <time>2022-04-27T10:37:04.807Z</time>
      </trkpt>
      <trkpt lat="48.42824" lon="7.37804">
        <ele>707.87551283813</ele>
        <time>2022-04-27T10:37:12.640Z</time>
      </trkpt>
      <trkpt lat="48.42823" lon="7.37838">
        <ele>708.96521606668</ele>
        <time>2022-04-27T10:37:20.476Z</time>
      </trkpt>
      <trkpt lat="48.42817" lon="7.37864">
        <ele>709.95574625233</ele>
        <time>2022-04-27T10:37:28.315Z</time>
      </trkpt>
      <trkpt lat="48.42801" lon="7.37909">
        <ele>710.96716527879</ele>
        <time>2022-04-27T10:37:36.160Z</time>
      </trkpt>
      <trkpt lat="48.42789" lon="7.37931">
        <ele>711.94035988202</ele>
        <time>2022-04-27T10:37:44.008Z</time>
      </trkpt>
      <trkpt lat="48.42773" lon="7.37951">
        <ele>712.85828955515</ele>
        <time>2022-04-27T10:37:51.859Z</time>
      </trkpt>
      <trkpt lat="48.42756" lon="7.37966">
        <ele>713.77563594051</ele>
        <time>2022-04-27T10:37:59.713Z</time>
      </trkpt>
      <trkpt lat="48.42732" lon="7.37984">
        <ele>714.72974549532</ele>
        <time>2022-04-27T10:38:07.572Z</time>
      </trkpt>
      <trkpt lat="48.42687" lon="7.38022">
        <ele>715.58182520896</ele>
        <time>2022-04-27T10:38:15.439Z</time>
      </trkpt>
      <trkpt lat="48.42677" lon="7.38034">
        <ele>716.23196765816</ele>
        <time>2022-04-27T10:38:23.308Z</time>
      </trkpt>
      <trkpt lat="48.42663" lon="7.38058">
        <ele>716.75967769473</ele>
        <time>2022-04-27T10:38:31.180Z</time>
      </trkpt>
      <trkpt lat="48.42649" lon="7.38093">
        <ele>717.30576776487</ele>
        <time>2022-04-27T10:38:39.057Z</time>
      </trkpt>
      <trkpt lat="48.42638" lon="7.38127">
        <ele>717.87036231272</ele>
        <time>2022-04-27T10:38:46.937Z</time>
      </trkpt>
      <trkpt lat="48.42616" lon="7.38221">
        <ele>718.44539555152</ele>
        <time>2022-04-27T10:38:54.828Z</time>
      </trkpt>
      <trkpt lat="48.42589" lon="7.38334">
        <ele>718.8847418913</ele>
        <time>2022-04-27T10:39:02.732Z</time>
      </trkpt>
      <trkpt lat="48.42584" lon="7.38371">
        <ele>719.24609118155</ele>
        <time>2022-04-27T10:39:10.640Z</time>
      </trkpt>
      <trkpt lat="48.42583" lon="7.38397">
        <ele>719.64883001934</ele>
        <time>2022-04-27T10:39:18.551Z</time>
      </trkpt>
      <trkpt lat="48.42584" lon="7.38426">
        <ele>720.07971993911</ele>
        <time>2022-04-27T10:39:26.465Z</time>
      </trkpt>
      <trkpt lat="48.42603" lon="7.38528">
        <ele>720.45807135606</ele>
        <time>2022-04-27T10:39:34.390Z</time>
      </trkpt>
      <trkpt lat="48.42602" lon="7.38562">
        <ele>720.76810209147</ele>
        <time>2022-04-27T10:39:42.319Z</time>
      </trkpt>
      <trkpt lat="48.42599" lon="7.38578">
        <ele>721.0998217589</ele>
        <time>2022-04-27T10:39:50.250Z</time>
      </trkpt>
      <trkpt lat="48.4258" lon="7.38626">
        <ele>721.58171931695</ele>
        <time>2022-04-27T10:39:58.187Z</time>
      </trkpt>
      <trkpt lat="48.42574" lon="7.38649">
        <ele>721.93999580128</ele>
        <time>2022-04-27T10:40:06.126Z</time>
      </trkpt>
      <trkpt lat="48.42571" lon="7.3867">
        <ele>722.22845106875</ele>
        <time>2022-04-27T10:40:14.067Z</time>
      </trkpt>
      <trkpt lat="48.4257" lon="7.38755">
        <ele>722.4754265728</ele>
        <time>2022-04-27T10:40:22.017Z</time>
      </trkpt>
      <trkpt lat="48.42567" lon="7.38775">
        <ele>722.71305944848</ele>
        <time>2022-04-27T10:40:29.970Z</time>
      </trkpt>
      <trkpt lat="48.42562" lon="7.38792">
        <ele>722.938418125</ele>
        <time>2022-04-27T10:40:37.925Z</time>
      </trkpt>
      <trkpt lat="48.42548" lon="7.38822">
        <ele>723.0881880883</ele>
        <time>2022-04-27T10:40:45.884Z</time>
      </trkpt>
      <trkpt lat="48.42538" lon="7.38835">
        <ele>723.29968294774</ele>
        <time>2022-04-27T10:40:53.845Z</time>
      </trkpt>
      <trkpt lat="48.42523" lon="7.38848">
        <ele>723.56442549762</ele>
        <time>2022-04-27T10:41:01.808Z</time>
      </trkpt>
      <trkpt lat="48.42464" lon="7.38889">
        <ele>723.87947265815</ele>
        <time>2022-04-27T10:41:09.782Z</time>
      </trkpt>
      <trkpt lat="48.42397" lon="7.38921">
        <ele>724.51968557064</ele>
        <time>2022-04-27T10:41:17.767Z</time>
      </trkpt>
      <trkpt lat="48.42328" lon="7.38977">
        <ele>724.88869804014</ele>
        <time>2022-04-27T10:41:25.765Z</time>
      </trkpt>
      <trkpt lat="48.42308" lon="7.38995">
        <ele>725.12147361827</ele>
        <time>2022-04-27T10:41:33.766Z</time>
      </trkpt>
      <trkpt lat="48.42296" lon="7.39011">
        <ele>725.20113165949</ele>
        <time>2022-04-27T10:41:41.770Z</time>
      </trkpt>
      <trkpt lat="48.42287" lon="7.39031">
        <ele>725.25474272402</ele>
        <time>2022-04-27T10:41:49.776Z</time>
      </trkpt>
      <trkpt lat="48.42274" lon="7.3909">
        <ele>725.08014926333</ele>
        <time>2022-04-27T10:41:57.789Z</time>
      </trkpt>
      <trkpt lat="48.4227" lon="7.39161">
        <ele>725.11279229542</ele>
        <time>2022-04-27T10:42:05.810Z</time>
      </trkpt>
      <trkpt lat="48.42268" lon="7.39235">
        <ele>725.22965931116</ele>
        <time>2022-04-27T10:42:13.839Z</time>
      </trkpt>
      <trkpt lat="48.42269" lon="7.39467">
        <ele>725.13238399171</ele>
        <time>2022-04-27T10:42:21.892Z</time>
      </trkpt>
      <trkpt lat="48.42267" lon="7.3956">
        <ele>725.16707010664</ele>
        <time>2022-04-27T10:42:29.955Z</time>
      </trkpt>
      <trkpt lat="48.42265" lon="7.39594">
        <ele>725.39353165727</ele>
        <time>2022-04-27T10:42:38.022Z</time>
      </trkpt>
      <trkpt lat="48.4226" lon="7.39669">
        <ele>725.61045139056</ele>
        <time>2022-04-27T10:42:46.097Z</time>
      </trkpt>
      <trkpt lat="48.42259" lon="7.39699">
        <ele>726.01711994235</ele>
        <time>2022-04-27T10:42:54.175Z</time>
      </trkpt>
      <trkpt lat="48.4226" lon="7.3973">
        <ele>726.48473344664</ele>
        <time>2022-04-27T10:43:02.256Z</time>
      </trkpt>
      <trkpt lat="48.42271" lon="7.39891">
        <ele>727.10840110235</ele>
        <time>2022-04-27T10:43:10.355Z</time>
      </trkpt>
      <trkpt lat="48.42273" lon="7.39918">
        <ele>727.76935258086</ele>
        <time>2022-04-27T10:43:18.457Z</time>
      </trkpt>
      <trkpt lat="48.42275" lon="7.39938">
        <ele>728.53906721715</ele>
        <time>2022-04-27T10:43:26.561Z</time>
      </trkpt>
      <trkpt lat="48.42283" lon="7.3997">
        <ele>729.43179343501</ele>
        <time>2022-04-27T10:43:34.668Z</time>
      </trkpt>
      <trkpt lat="48.4229" lon="7.39983">
        <ele>730.43749063325</ele>
        <time>2022-04-27T10:43:42.777Z</time>
      </trkpt>
      <trkpt lat="48.42294" lon="7.39991">
        <ele>731.51774695145</ele>
        <time>2022-04-27T10:43:50.887Z</time>
      </trkpt>
      <trkpt lat="48.42308" lon="7.40016">
        <ele>732.78877240762</ele>
        <time>2022-04-27T10:43:59.001Z</time>
      </trkpt>
      <trkpt lat="48.42334" lon="7.4007">
        <ele>734.35633938516</ele>
        <time>2022-04-27T10:44:07.122Z</time>
      </trkpt>
      <trkpt lat="48.42347" lon="7.40092">
        <ele>735.88397872583</ele>
        <time>2022-04-27T10:44:15.246Z</time>
      </trkpt>
      <trkpt lat="48.42358" lon="7.40101">
        <ele>737.34654945685</ele>
        <time>2022-04-27T10:44:23.372Z</time>
      </trkpt>
      <trkpt lat="48.42372" lon="7.40104">
        <ele>738.74855531247</ele>
        <time>2022-04-27T10:44:31.500Z</time>
      </trkpt>
      <trkpt lat="48.4239" lon="7.40097">
        <ele>740.1350979877</ele>
        <time>2022-04-27T10:44:39.631Z</time>
      </trkpt>
      <trkpt lat="48.4241" lon="7.40076">
        <ele>741.54790249453</ele>
        <time>2022-04-27T10:44:47.766Z</time>
      </trkpt>
      <trkpt lat="48.42432" lon="7.40045">
        <ele>743.04357183117</ele>
        <time>2022-04-27T10:44:55.906Z</time>
      </trkpt>
      <trkpt lat="48.42501" lon="7.39963">
        <ele>744.57583541155</ele>
        <time>2022-04-27T10:45:04.060Z</time>
      </trkpt>
      <trkpt lat="48.42513" lon="7.39954">
        <ele>746.00469027237</ele>
        <time>2022-04-27T10:45:12.216Z</time>
      </trkpt>
      <trkpt lat="48.42529" lon="7.39945">
        <ele>747.45673769014</ele>
        <time>2022-04-27T10:45:20.375Z</time>
      </trkpt>
      <trkpt lat="48.42548" lon="7.39942">
        <ele>748.90179745948</ele>
        <time>2022-04-27T10:45:28.537Z</time>
      </trkpt>
      <trkpt lat="48.42567" lon="7.39948">
        <ele>750.42272979767</ele>
        <time>2022-04-27T10:45:36.702Z</time>
      </trkpt>
      <trkpt lat="48.42586" lon="7.39962">
        <ele>751.96517212033</ele>
        <time>2022-04-27T10:45:44.870Z</time>
      </trkpt>
      <trkpt lat="48.42604" lon="7.3998">
        <ele>753.43949980482</ele>
        <time>2022-04-27T10:45:53.042Z</time>
      </trkpt>
      <trkpt lat="48.42616" lon="7.39995">
        <ele>754.83350450912</ele>
        <time>2022-04-27T10:46:01.216Z</time>
      </trkpt>
      <trkpt lat="48.42649" lon="7.40044">
        <ele>756.18379169854</ele>
        <time>2022-04-27T10:46:09.398Z</time>
      </trkpt>
      <trkpt lat="48.42683" lon="7.40085">
        <ele>757.38995893168</ele>
        <time>2022-04-27T10:46:17.587Z</time>
      </trkpt>
      <trkpt lat="48.42704" lon="7.40099">
        <ele>758.43485813877</ele>
        <time>2022-04-27T10:46:25.780Z</time>
      </trkpt>
      <trkpt lat="48.42726" lon="7.4011">
        <ele>759.46365944971</ele>
        <time>2022-04-27T10:46:33.976Z</time>
      </trkpt>
      <trkpt lat="48.42741" lon="7.40112">
        <ele>760.40782930683</ele>
        <time>2022-04-27T10:46:42.175Z</time>
      </trkpt>
      <trkpt lat="48.4276" lon="7.40109">
        <ele>761.29786101963</ele>
        <time>2022-04-27T10:46:50.377Z</time>
      </trkpt>
      <trkpt lat="48.42769" lon="7.40104">
        <ele>761.99341665723</ele>
        <time>2022-04-27T10:46:58.580Z</time>
      </trkpt>
      <trkpt lat="48.4278" lon="7.40095">
        <ele>762.53767409558</ele>
        <time>2022-04-27T10:47:06.785Z</time>
      </trkpt>
      <trkpt lat="48.42791" lon="7.40075">
        <ele>762.93812525786</ele>
        <time>2022-04-27T10:47:14.993Z</time>
      </trkpt>
      <trkpt lat="48.4282" lon="7.40009">
        <ele>763.0449884638</ele>
        <time>2022-04-27T10:47:23.209Z</time>
      </trkpt>
      <trkpt lat="48.42862" lon="7.39946">
        <ele>763.22784905079</ele>
        <time>2022-04-27T10:47:31.435Z</time>
      </trkpt>
      <trkpt lat="48.42873" lon="7.39933">
        <ele>763.33857460632</ele>
        <time>2022-04-27T10:47:39.663Z</time>
      </trkpt>
      <trkpt lat="48.42884" lon="7.39923">
        <ele>763.35009767657</ele>
        <time>2022-04-27T10:47:47.893Z</time>
      </trkpt>
      <trkpt lat="48.42894" lon="7.39917">
        <ele>763.23607008272</ele>
        <time>2022-04-27T10:47:56.125Z</time>
      </trkpt>
      <trkpt lat="48.42937" lon="7.399">
        <ele>763.0603918378</ele>
        <time>2022-04-27T10:48:04.364Z</time>
      </trkpt>
      <trkpt lat="48.42945" lon="7.39899">
        <ele>762.7144100683</ele>
        <time>2022-04-27T10:48:12.604Z</time>
      </trkpt>
      <trkpt lat="48.42958" lon="7.399">
        <ele>762.27556499784</ele>
        <time>2022-04-27T10:48:20.846Z</time>
      </trkpt>
      <trkpt lat="48.42977" lon="7.39914">
        <ele>761.77028975157</ele>
        <time>2022-04-27T10:48:29.092Z</time>
      </trkpt>
      <trkpt lat="48.43008" lon="7.39954">
        <ele>761.27319907182</ele>
        <time>2022-04-27T10:48:37.344Z</time>
      </trkpt>
      <trkpt lat="48.43031" lon="7.3999">
        <ele>760.51477896106</ele>
        <time>2022-04-27T10:48:45.602Z</time>
      </trkpt>
      <trkpt lat="48.4305" lon="7.40012">
        <ele>759.66719178906</ele>
        <time>2022-04-27T10:48:53.864Z</time>
      </trkpt>
      <trkpt lat="48.43075" lon="7.40031">
        <ele>758.76528221754</ele>
        <time>2022-04-27T10:49:02.130Z</time>
      </trkpt>
      <trkpt lat="48.431" lon="7.40048">
        <ele>757.97812850013</ele>
        <time>2022-04-27T10:49:10.400Z</time>
      </trkpt>
      <trkpt lat="48.43114" lon="7.40054">
        <ele>757.22024768859</ele>
        <time>2022-04-27T10:49:18.673Z</time>
      </trkpt>
      <trkpt lat="48.43127" lon="7.40055">
        <ele>756.45088677439</ele>
        <time>2022-04-27T10:49:26.948Z</time>
      </trkpt>
      <trkpt lat="48.43132" lon="7.40054">
        <ele>755.72214883653</ele>
        <time>2022-04-27T10:49:35.224Z</time>
      </trkpt>
      <trkpt lat="48.43166" lon="7.40043">
        <ele>754.79212496954</ele>
        <time>2022-04-27T10:49:43.505Z</time>
      </trkpt>
      <trkpt lat="48.43177" lon="7.40043">
        <ele>754.17763109623</ele>
        <time>2022-04-27T10:49:51.788Z</time>
      </trkpt>
      <trkpt lat="48.43274" lon="7.40073">
        <ele>753.47128930648</ele>
        <time>2022-04-27T10:50:00.087Z</time>
      </trkpt>
      <trkpt lat="48.4328" lon="7.40073">
        <ele>753.04530117399</ele>
        <time>2022-04-27T10:50:08.387Z</time>
      </trkpt>
      <trkpt lat="48.43281" lon="7.40077">
        <ele>752.7781414347</ele>
        <time>2022-04-27T10:50:16.687Z</time>
      </trkpt>
      <trkpt lat="48.43286" lon="7.4008">
        <ele>752.59044845556</ele>
        <time>2022-04-27T10:50:24.988Z</time>
      </trkpt>
      <trkpt lat="48.43291" lon="7.40079">
        <ele>752.44484509975</ele>
        <time>2022-04-27T10:50:33.290Z</time>
      </trkpt>
      <trkpt lat="48.43293" lon="7.40076">
        <ele>752.40807321867</ele>
        <time>2022-04-27T10:50:41.592Z</time>
      </trkpt>
      <trkpt lat="48.43299" lon="7.40081">
        <ele>752.51142194629</ele>
        <time>2022-04-27T10:50:49.895Z</time>
      </trkpt>
      <trkpt lat="48.43331" lon="7.40095">
        <ele>752.77623961856</ele>
        <time>2022-04-27T10:50:58.204Z</time>
      </trkpt>
      <trkpt lat="48.43387" lon="7.40137">
        <ele>753.40003822161</ele>
        <time>2022-04-27T10:51:06.523Z</time>
      </trkpt>
      <trkpt lat="48.43416" lon="7.40164">
        <ele>753.68462723185</ele>
        <time>2022-04-27T10:51:14.847Z</time>
      </trkpt>
      <trkpt lat="48.43457" lon="7.40212">
        <ele>754.24155181421</ele>
        <time>2022-04-27T10:51:23.179Z</time>
      </trkpt>
      <trkpt lat="48.43469" lon="7.40222">
        <ele>754.49759310143</ele>
        <time>2022-04-27T10:51:31.514Z</time>
      </trkpt>
      <trkpt lat="48.43482" lon="7.40225">
        <ele>754.70594632378</ele>
        <time>2022-04-27T10:51:39.851Z</time>
      </trkpt>
      <trkpt lat="48.43488" lon="7.40224">
        <ele>754.89534842335</ele>
        <time>2022-04-27T10:51:48.189Z</time>
      </trkpt>
      <trkpt lat="48.43496" lon="7.40221">
        <ele>755.04072150644</ele>
        <time>2022-04-27T10:51:56.528Z</time>
      </trkpt>
      <trkpt lat="48.43514" lon="7.40211">
        <ele>755.09547441543</ele>
        <time>2022-04-27T10:52:04.870Z</time>
      </trkpt>
      <trkpt lat="48.43529" lon="7.4021">
        <ele>755.12612097083</ele>
        <time>2022-04-27T10:52:13.215Z</time>
      </trkpt>
      <trkpt lat="48.43537" lon="7.40207">
        <ele>755.14091157005</ele>
        <time>2022-04-27T10:52:21.561Z</time>
      </trkpt>
      <trkpt lat="48.4354" lon="7.402">
        <ele>755.06667114461</ele>
        <time>2022-04-27T10:52:29.908Z</time>
      </trkpt>
      <trkpt lat="48.43543" lon="7.40199">
        <ele>754.98402634104</ele>
        <time>2022-04-27T10:52:38.255Z</time>
      </trkpt>
      <trkpt lat="48.43552" lon="7.40205">
        <ele>754.86965804324</ele>
        <time>2022-04-27T10:52:46.604Z</time>
      </trkpt>
      <trkpt lat="48.43578" lon="7.40209">
        <ele>754.5396647279</ele>
        <time>2022-04-27T10:52:54.957Z</time>
      </trkpt>
      <trkpt lat="48.43607" lon="7.40218">
        <ele>754.21406487605</ele>
        <time>2022-04-27T10:53:03.315Z</time>
      </trkpt>
      <trkpt lat="48.4363" lon="7.40229">
        <ele>753.72374952552</ele>
        <time>2022-04-27T10:53:11.677Z</time>
      </trkpt>
      <trkpt lat="48.43649" lon="7.40241">
        <ele>753.1184393082</ele>
        <time>2022-04-27T10:53:20.042Z</time>
      </trkpt>
      <trkpt lat="48.43672" lon="7.40259">
        <ele>752.39633041024</ele>
        <time>2022-04-27T10:53:28.411Z</time>
      </trkpt>
      <trkpt lat="48.43702" lon="7.4028">
        <ele>751.40680547893</ele>
        <time>2022-04-27T10:53:36.785Z</time>
      </trkpt>
      <trkpt lat="48.43726" lon="7.4031">
        <ele>750.16637649176</ele>
        <time>2022-04-27T10:53:45.165Z</time>
      </trkpt>
      <trkpt lat="48.43741" lon="7.40325">
        <ele>748.89125555704</ele>
        <time>2022-04-27T10:53:53.547Z</time>
      </trkpt>
      <trkpt lat="48.43744" lon="7.40324">
        <ele>747.51622196705</ele>
        <time>2022-04-27T10:54:01.930Z</time>
      </trkpt>
      <trkpt lat="48.43747" lon="7.40325">
        <ele>746.05291392997</ele>
        <time>2022-04-27T10:54:10.313Z</time>
      </trkpt>
      <trkpt lat="48.43798" lon="7.4038">
        <ele>744.31917403711</ele>
        <time>2022-04-27T10:54:18.706Z</time>
      </trkpt>
      <trkpt lat="48.43826" lon="7.40415">
        <ele>742.40842790974</ele>
        <time>2022-04-27T10:54:27.105Z</time>
      </trkpt>
      <trkpt lat="48.43847" lon="7.40456">
        <ele>740.66738190739</ele>
        <time>2022-04-27T10:54:35.510Z</time>
      </trkpt>
      <trkpt lat="48.43861" lon="7.40496">
        <ele>739.00920965591</ele>
        <time>2022-04-27T10:54:43.920Z</time>
      </trkpt>
      <trkpt lat="48.43871" lon="7.40531">
        <ele>736.93390369588</ele>
        <time>2022-04-27T10:54:52.334Z</time>
      </trkpt>
      <trkpt lat="48.43881" lon="7.40586">
        <ele>734.74085751063</ele>
        <time>2022-04-27T10:55:00.754Z</time>
      </trkpt>
      <trkpt lat="48.4388" lon="7.40633">
        <ele>732.71078915198</ele>
        <time>2022-04-27T10:55:09.179Z</time>
      </trkpt>
      <trkpt lat="48.43869" lon="7.40666">
        <ele>730.77946367772</ele>
        <time>2022-04-27T10:55:17.608Z</time>
      </trkpt>
      <trkpt lat="48.43854" lon="7.40683">
        <ele>728.60333454681</ele>
        <time>2022-04-27T10:55:26.040Z</time>
      </trkpt>
      <trkpt lat="48.43825" lon="7.40694">
        <ele>726.45391461756</ele>
        <time>2022-04-27T10:55:34.476Z</time>
      </trkpt>
      <trkpt lat="48.438" lon="7.40699">
        <ele>724.6164446791</ele>
        <time>2022-04-27T10:55:42.917Z</time>
      </trkpt>
      <trkpt lat="48.43775" lon="7.40693">
        <ele>723.09091272138</ele>
        <time>2022-04-27T10:55:51.362Z</time>
      </trkpt>
      <trkpt lat="48.43756" lon="7.40682">
        <ele>721.52010569448</ele>
        <time>2022-04-27T10:55:59.810Z</time>
      </trkpt>
      <trkpt lat="48.43729" lon="7.40658">
        <ele>719.62636943934</ele>
        <time>2022-04-27T10:56:08.263Z</time>
      </trkpt>
      <trkpt lat="48.43695" lon="7.40616">
        <ele>717.36581929438</ele>
        <time>2022-04-27T10:56:16.723Z</time>
      </trkpt>
      <trkpt lat="48.43663" lon="7.40569">
        <ele>715.43816724723</ele>
        <time>2022-04-27T10:56:25.190Z</time>
      </trkpt>
      <trkpt lat="48.43628" lon="7.40524">
        <ele>713.61456973682</ele>
        <time>2022-04-27T10:56:33.664Z</time>
      </trkpt>
      <trkpt lat="48.43584" lon="7.40484">
        <ele>711.66582998981</ele>
        <time>2022-04-27T10:56:42.147Z</time>
      </trkpt>
      <trkpt lat="48.43508" lon="7.4043">
        <ele>709.33747842504</ele>
        <time>2022-04-27T10:56:50.643Z</time>
      </trkpt>
      <trkpt lat="48.43491" lon="7.4042">
        <ele>707.11014891395</ele>
        <time>2022-04-27T10:56:59.142Z</time>
      </trkpt>
      <trkpt lat="48.43474" lon="7.40411">
        <ele>704.64694494515</ele>
        <time>2022-04-27T10:57:07.644Z</time>
      </trkpt>
      <trkpt lat="48.43447" lon="7.40408">
        <ele>701.64199760846</ele>
        <time>2022-04-27T10:57:16.150Z</time>
      </trkpt>
      <trkpt lat="48.43402" lon="7.40409">
        <ele>699.10547370484</ele>
        <time>2022-04-27T10:57:24.663Z</time>
      </trkpt>
      <trkpt lat="48.4334" lon="7.40419">
        <ele>696.36508710267</ele>
        <time>2022-04-27T10:57:33.186Z</time>
      </trkpt>
      <trkpt lat="48.43313" lon="7.40432">
        <ele>693.56239826638</ele>
        <time>2022-04-27T10:57:41.714Z</time>
      </trkpt>
      <trkpt lat="48.43276" lon="7.40454">
        <ele>690.63896052702</ele>
        <time>2022-04-27T10:57:50.248Z</time>
      </trkpt>
      <trkpt lat="48.43233" lon="7.40494">
        <ele>687.9936512691</ele>
        <time>2022-04-27T10:57:58.790Z</time>
      </trkpt>
      <trkpt lat="48.43223" lon="7.40507">
        <ele>685.28368669787</ele>
        <time>2022-04-27T10:58:07.334Z</time>
      </trkpt>
      <trkpt lat="48.43221" lon="7.40521">
        <ele>682.14417396465</ele>
        <time>2022-04-27T10:58:15.880Z</time>
      </trkpt>
      <trkpt lat="48.43223" lon="7.40531">
        <ele>678.91186438449</ele>
        <time>2022-04-27T10:58:24.427Z</time>
      </trkpt>
      <trkpt lat="48.43247" lon="7.40589">
        <ele>675.02264123425</ele>
        <time>2022-04-27T10:58:32.982Z</time>
      </trkpt>
      <trkpt lat="48.43263" lon="7.40637">
        <ele>672.07124970184</ele>
        <time>2022-04-27T10:58:41.542Z</time>
      </trkpt>
      <trkpt lat="48.43273" lon="7.4068">
        <ele>668.90540581445</ele>
        <time>2022-04-27T10:58:50.107Z</time>
      </trkpt>
      <trkpt lat="48.43279" lon="7.40728">
        <ele>666.04329136709</ele>
        <time>2022-04-27T10:58:58.677Z</time>
      </trkpt>
      <trkpt lat="48.4328" lon="7.4077">
        <ele>663.38489140848</ele>
        <time>2022-04-27T10:59:07.252Z</time>
      </trkpt>
      <trkpt lat="48.43277" lon="7.40802">
        <ele>660.74950679514</ele>
        <time>2022-04-27T10:59:15.830Z</time>
      </trkpt>
      <trkpt lat="48.43258" lon="7.40883">
        <ele>658.08935615003</ele>
        <time>2022-04-27T10:59:24.417Z</time>
      </trkpt>
      <trkpt lat="48.43229" lon="7.40947">
        <ele>655.2928479448</ele>
        <time>2022-04-27T10:59:33.013Z</time>
      </trkpt>
      <trkpt lat="48.43192" lon="7.41006">
        <ele>652.32342538635</ele>
        <time>2022-04-27T10:59:41.617Z</time>
      </trkpt>
      <trkpt lat="48.43167" lon="7.41052">
        <ele>649.52100775552</ele>
        <time>2022-04-27T10:59:50.228Z</time>
      </trkpt>
      <trkpt lat="48.43141" lon="7.41092">
        <ele>646.91245385144</ele>
        <time>2022-04-27T10:59:58.845Z</time>
      </trkpt>
      <trkpt lat="48.43135" lon="7.41113">
        <ele>643.49155104074</ele>
        <time>2022-04-27T11:00:07.464Z</time>
      </trkpt>
      <trkpt lat="48.43131" lon="7.41186">
        <ele>639.15590176573</ele>
        <time>2022-04-27T11:00:16.091Z</time>
      </trkpt>
      <trkpt lat="48.43124" lon="7.41262">
        <ele>635.14363674781</ele>
        <time>2022-04-27T11:00:24.726Z</time>
      </trkpt>
      <trkpt lat="48.43123" lon="7.41297">
        <ele>631.66555272804</ele>
        <time>2022-04-27T11:00:33.365Z</time>
      </trkpt>
      <trkpt lat="48.4313" lon="7.41333">
        <ele>627.72159317816</ele>
        <time>2022-04-27T11:00:42.008Z</time>
      </trkpt>
      <trkpt lat="48.4314" lon="7.41372">
        <ele>623.48040327289</ele>
        <time>2022-04-27T11:00:50.655Z</time>
      </trkpt>
      <trkpt lat="48.43155" lon="7.41405">
        <ele>618.78724314686</ele>
        <time>2022-04-27T11:00:59.306Z</time>
      </trkpt>
      <trkpt lat="48.43169" lon="7.41427">
        <ele>613.82173469778</ele>
        <time>2022-04-27T11:01:07.961Z</time>
      </trkpt>
      <trkpt lat="48.43231" lon="7.41482">
        <ele>608.42310783906</ele>
        <time>2022-04-27T11:01:16.627Z</time>
      </trkpt>
      <trkpt lat="48.43333" lon="7.41575">
        <ele>602.85756602667</ele>
        <time>2022-04-27T11:01:25.312Z</time>
      </trkpt>
      <trkpt lat="48.43361" lon="7.41601">
        <ele>599.05661649133</ele>
        <time>2022-04-27T11:01:34.003Z</time>
      </trkpt>
      <trkpt lat="48.43378" lon="7.41622">
        <ele>595.53789425519</ele>
        <time>2022-04-27T11:01:42.697Z</time>
      </trkpt>
      <trkpt lat="48.43398" lon="7.41655">
        <ele>592.09907467632</ele>
        <time>2022-04-27T11:01:51.396Z</time>
      </trkpt>
      <trkpt lat="48.43434" lon="7.41735">
        <ele>588.14987471907</ele>
        <time>2022-04-27T11:02:00.105Z</time>
      </trkpt>
      <trkpt lat="48.43442" lon="7.41753">
        <ele>585.04458063846</ele>
        <time>2022-04-27T11:02:08.816Z</time>
      </trkpt>
      <trkpt lat="48.43454" lon="7.4177">
        <ele>582.1253301714</ele>
        <time>2022-04-27T11:02:17.530Z</time>
      </trkpt>
      <trkpt lat="48.4346" lon="7.41783">
        <ele>579.91092730758</ele>
        <time>2022-04-27T11:02:26.246Z</time>
      </trkpt>
      <trkpt lat="48.43464" lon="7.41789">
        <ele>578.11581096692</ele>
        <time>2022-04-27T11:02:34.963Z</time>
      </trkpt>
      <trkpt lat="48.43467" lon="7.41804">
        <ele>576.74861644576</ele>
        <time>2022-04-27T11:02:43.681Z</time>
      </trkpt>
      <trkpt lat="48.43464" lon="7.41831">
        <ele>580.6233931525</ele>
        <time>2022-04-27T11:02:52.402Z</time>
      </trkpt>
      <trkpt lat="48.43463" lon="7.41835">
        <ele>574.68074926942</ele>
        <time>2022-04-27T11:03:01.124Z</time>
      </trkpt>
    </trkseg>
  </trk>
</gpx>